ftp/pub/palmer/observations_modified/2019/July/AR190717_BASE.txt

Download

Sample DateTime	Unit Id	WS Avg 2min	WD Avg 2min	WGS 10min	WGD 10min	Air Temp	Rel Humidity	Dew Point	Pyranometer	Quantum	Air Pressure	Snow Level	Rainfall	PW Current	Visibility	CBase 1	CBase 2	CBase 3	Vert Vis
2019/07/17  00:00:00  BASE  4.01604  357  5.44488  351  0.6   100   0.6   0     0     976.7    NA       0.0000   9999     5870  0     0    
2019/07/17  00:01:00  BASE  3.65148  355  5.44488  351  0.6   100   0.6   0     0     976.7    NA       0.0000   9999     5840  0     0    
2019/07/17  00:02:00  BASE  3.6162   354  5.44488  351  0.6   100   0.6   0     0     976.7    NA       0.0000   9999     0     0     0    
2019/07/17  00:03:00  BASE  3.4104   353  5.44488  351  0.6   100   0.6   0     0     976.7    NA       0.0000   9999     0     0     0    
2019/07/17  00:04:00  BASE  2.9988   350  5.3214   1    0.6   100   0.6   0     0     976.7    NA       0.0000   9999     0     0     0    
2019/07/17  00:05:00  BASE  3.15168  351  4.96272  3    0.6   100   0.6   0     0     976.7    NA       0.0000   9999     0     0     0    
2019/07/17  00:06:00  BASE  3.12228  349  4.68636  354  0.6   100   0.6   0     0     976.7    NA       0.0000   9999     0     0     0    
2019/07/17  00:07:00  BASE  2.8518   344  4.68636  354  0.6   100   0.6   0     0     976.7    NA       0.0000   9999     0     0     0    
2019/07/17  00:08:00  BASE  2.84592  339  4.53936  1    0.5   100   0.5   0     0     976.7    NA       0.0000   9999     3840  0     0    
2019/07/17  00:09:00  BASE  2.92824  335  4.2336   360  0.5   100   0.5   0     0     976.7    NA       0.0000   9999     4860  0     0    
2019/07/17  00:10:00  BASE  2.92236  329  4.08072  339  0.4   100   0.4   0     0     976.7    NA       0.0000   9999     4760  0     0    
2019/07/17  00:11:00  BASE  2.65776  325  4.08072  339  0.4   100   0.4   0     0     976.7    NA       0.0000   9999     4860  0     0    
2019/07/17  00:12:00  BASE  2.36376  326  3.75144  344  0.3   100   0.3   0     0     976.7    NA       0.0000   9999     4690  0     0    
2019/07/17  00:13:00  BASE  2.32848  329  3.75144  344  0.3   100   0.3   0     0     976.7    NA       0.0000   9999     4360  0     0    
2019/07/17  00:14:00  BASE  2.38728  329  3.75144  344  0.3   100   0.3   0     0     976.7    NA       0.0000   9999     4270  0     0    
2019/07/17  00:15:00  BASE  2.15208  312  3.26928  331  0.3   100   0.3   0     0     976.7    NA       0.0000   9999     4070  0     0    
2019/07/17  00:16:00  BASE  1.911    295  3.26928  331  0.3   100   0.3   0     0     976.7    NA       0.0000   9999     4100  0     0    
2019/07/17  00:17:00  BASE  1.8522   302  3.26928  331  0.2   100   0.2   0     0     976.7    NA       0.0000   9999     4200  0     0    
2019/07/17  00:18:00  BASE  1.7934   313  3.26928  331  0.1   100   0.1   0     0     976.7    NA       0.0000   9999     4270  0     0    
2019/07/17  00:19:00  BASE  1.8816   322  2.99292  334  0.1   100   0.1   0     0     976.7    NA       0.0000   9999     4270  0     0    
2019/07/17  00:20:00  BASE  1.95216  330  2.72244  322  0.0   100   0.0   0     0     976.7    NA       0.0000   9999     4360  0     0    
2019/07/17  00:21:00  BASE  1.92864  332  2.51076  329  0.0   100   0.0   0     0     976.7    NA       0.0000   9999     4130  0     0    
2019/07/17  00:22:00  BASE  1.89924  330  2.51076  329  -0.0  100   -0.0  0     0     976.7    NA       0.0000   9999     3970  0     0    
2019/07/17  00:23:00  BASE  1.87572  323  2.48136  331  -0.0  100   -0.0  0     0     976.7    NA       0.0000   9999     4100  0     0    
2019/07/17  00:24:00  BASE  1.8228   311  2.26968  322  -0.1  100   -0.1  0     0     976.7    NA       0.0000   9999     4230  0     0    
2019/07/17  00:25:00  BASE  1.87572  300  2.21088  345  -0.1  100   -0.1  0     0     976.7    NA       0.0000   9999     4070  0     0    
2019/07/17  00:26:00  BASE  1.97568  291  2.21088  345  -0.1  100   -0.1  0     0     976.7    NA       0.0000   9999     4130  0     0    
2019/07/17  00:27:00  BASE  1.9404   283  2.21088  345  -0.1  100   -0.1  0     0     976.7    NA       0.0000   9999     3940  0     0    
2019/07/17  00:28:00  BASE  1.84632  276  2.21088  345  -0.1  100   -0.1  0     0     976.7    NA       0.0000   9999     3970  0     0    
2019/07/17  00:29:00  BASE  1.85808  273  2.21088  280  -0.1  100   -0.1  0     0     976.7    NA       0.0000   9999     3870  0     0    
2019/07/17  00:30:00  BASE  1.83456  278  2.21088  280  -0.1  100   -0.1  0     0     976.7    NA       0.0000   9999     3810  0     0    
2019/07/17  00:31:00  BASE  1.71696  285  2.21088  280  -0.1  100   -0.1  0     0     976.7    NA       0.0000   9999     3740  0     0    
2019/07/17  00:32:00  BASE  1.64052  289  2.21088  280  -0.1  100   -0.1  0     0     976.7    NA       0.0000   9999     3740  0     0    
2019/07/17  00:33:00  BASE  1.68756  283  2.24028  287  -0.0  100   -0.0  0     0     976.6    NA       0.0000   9999     3640  0     0    
2019/07/17  00:34:00  BASE  1.91688  268  2.35788  258  0.0   100   0.0   0     0     976.6    NA       0.0000   9999     3540  0     0    
2019/07/17  00:35:00  BASE  2.18736  259  2.56956  261  -0.0  100   -0.0  0     0     976.6    NA       0.0000   9999     3670  0     0    
2019/07/17  00:36:00  BASE  2.40492  261  2.56956  263  -0.1  100   -0.1  0     0     976.6    NA       0.0000   9999     3710  0     0    
2019/07/17  00:37:00  BASE  2.44608  267  2.59896  274  -0.1  100   -0.1  0     0     976.6    NA       0.0000   9999     3410  0     0    
2019/07/17  00:38:00  BASE  2.39904  275  2.63424  278  -0.2  100   -0.2  0     0     976.6    NA       0.0000   9999     3380  0     0    
2019/07/17  00:39:00  BASE  2.16384  280  2.63424  278  -0.3  100   -0.3  0     0     976.6    NA       0.0000   9999     3120  0     0    
2019/07/17  00:40:00  BASE  1.764    285  2.63424  278  -0.3  100   -0.3  0     0     976.6    NA       0.0000   9999     3220  0     0    
2019/07/17  00:41:00  BASE  1.89924  290  2.78124  288  -0.3  100   -0.3  0     0     976.6    NA       0.0000   9999     3410  0     0    
2019/07/17  00:42:00  BASE  2.44608  290  2.93412  288  -0.3  100   -0.3  0     0     976.6    NA       0.0000   9999     3640  0     0    
2019/07/17  00:43:00  BASE  2.90472  288  3.38688  286  -0.3  100   -0.3  0     0     976.6    NA       0.0000   9999     3540  0     0    
2019/07/17  00:44:00  BASE  3.15756  290  3.53976  288  -0.3  100   -0.3  0     0     976.6    NA       0.0000   9999     3670  0     0    
2019/07/17  00:45:00  BASE  3.19284  296  3.53976  288  -0.4  100   -0.4  0     0     976.6    NA       0.0000   9999     3280  0     0    
2019/07/17  00:46:00  BASE  2.96352  304  3.53976  288  -0.4  100   -0.4  0     0     976.7    NA       0.0000   UP       9999  0     0    
2019/07/17  00:47:00  BASE  2.60484  305  3.53976  288  -0.4  100   -0.4  0     0     976.7    NA       0.0000   UP       9999  0     0    
2019/07/17  00:48:00  BASE  2.37552  297  3.53976  288  -0.4  100   -0.4  0     0     976.6    NA       0.0000   UP       9999  0     0    
2019/07/17  00:49:00  BASE  2.31672  291  3.53976  288  -0.4  100   -0.4  0     0     976.6    NA       0.0000   UP       9999  0     0    
2019/07/17  00:50:00  BASE  2.205    288  3.53976  288  -0.4  100   -0.4  0     0     976.6    NA       0.0000   UP       9999  0     0    
2019/07/17  00:51:00  BASE  1.84632  286  3.53976  288  -0.4  100   -0.4  0     0     976.6    NA       0.0000   UP       9999  0     0    
2019/07/17  00:52:00  BASE  1.71696  290  3.53976  288  -0.4  100   -0.4  0     0     976.6    NA       0.0000   UP       9999  0     0    
2019/07/17  00:53:00  BASE  1.8228   296  3.53976  288  -0.4  100   -0.4  0     0     976.6    NA       0.0000   UP       9999  0     0    
2019/07/17  00:54:00  BASE  1.78164  297  3.29868  294  -0.4  100   -0.4  0     0     976.6    NA       0.0000   UP       9999  0     0    
2019/07/17  00:55:00  BASE  1.71696  295  3.02232  303  -0.4  100   -0.4  0     0     976.6    NA       0.0000   UP       9999  0     0    
2019/07/17  00:56:00  BASE  1.78752  290  2.63424  304  -0.5  100   -0.5  0     0     976.6    NA       0.0000   UP       9000  0     0    
2019/07/17  00:57:00  BASE  1.62288  282  2.45196  287  -0.5  100   -0.5  0     0     976.6    NA       0.0000   UP       8000  0     0    
2019/07/17  00:58:00  BASE  1.39944  274  2.45196  287  -0.5  100   -0.5  0     0     976.6    NA       0.0000   UP       BR    8000  0    
2019/07/17  00:59:00  BASE  1.47588  273  2.35788  282  -0.5  100   -0.5  0     0     976.6    NA       0.0000   UP       BR    9999  5870 
2019/07/17  01:00:00  BASE  1.56408  278  2.1168   290  -0.6  100   -0.6  0     0     976.6    NA       0.0000   UP       BR    8000  0    
2019/07/17  01:01:00  BASE  1.57584  288  2.1168   290  -0.6  100   -0.6  0     0     976.6    NA       0.0000   UP       BR    7000  0    
2019/07/17  01:02:00  BASE  1.80516  297  2.1168   304  -0.6  100   -0.6  0     0     976.6    NA       0.0000   UP       BR    6000  0    
2019/07/17  01:03:00  BASE  2.09328  302  2.24028  306  -0.6  100   -0.6  0     0     976.6    NA       0.0000   UP       BR    7000  0    
2019/07/17  01:04:00  BASE  2.15796  308  2.29908  313  -0.6  100   -0.6  0     0     976.6    NA       0.0000   UP       BR    8000  1050 
2019/07/17  01:05:00  BASE  2.07564  316  2.29908  313  -0.7  100   -0.7  0     0     976.6    NA       0.0000   UP       BR    8000  1020 
2019/07/17  01:06:00  BASE  1.98156  326  2.29908  313  -0.7  100   -0.7  0     0     976.6    NA       0.0000   UP       BR    9000  920  
2019/07/17  01:07:00  BASE  2.04036  337  2.29908  313  -0.8  100   -0.8  0     0     976.6    NA       0.0000   UP       BR    9000  720  
2019/07/17  01:08:00  BASE  2.058    346  2.29908  313  -0.8  100   -0.8  0     0     976.6    NA       0.0000   UP       BR    9999  690  
2019/07/17  01:09:00  BASE  1.911    346  2.29908  313  -0.8  100   -0.8  0     0     976.6    NA       0.0000   UP       BR    9999  750  
2019/07/17  01:10:00  BASE  1.95216  345  2.48136  1    -0.8  100   -0.8  0     0     976.6    NA       0.0000   UP       BR    9999  720  
2019/07/17  01:11:00  BASE  2.1462   344  2.48136  1    -0.8  100   -0.8  0     0     976.6    NA       0.0000   UP       BR    9999  790  
2019/07/17  01:12:00  BASE  2.33436  340  2.96352  337  -0.8  100   -0.8  0     0     976.6    NA       0.0000   UP       BR    9999  720  
2019/07/17  01:13:00  BASE  2.5872   342  2.96352  342  -0.8  100   -0.8  0     0     976.6    NA       0.0000   UP       BR    9999  690  
2019/07/17  01:14:00  BASE  2.793    349  3.26928  338  -0.7  100   -0.7  0     0     976.6    NA       0.0000   UP       9999  660   0    
2019/07/17  01:15:00  BASE  3.16932  358  4.263    1    -0.8  100   -0.8  0     0     976.6    NA       0.0000   UP       9999  690   0    
2019/07/17  01:16:00  BASE  3.45156  2    4.263    1    -0.8  100   -0.8  0     0     976.6    NA       0.0000   9999     690   0     0    
2019/07/17  01:17:00  BASE  3.32808  359  4.263    1    -0.8  100   -0.8  0     0     976.7    NA       0.0000   9999     750   0     0    
2019/07/17  01:18:00  BASE  3.1164   357  4.263    1    -0.8  100   -0.8  0     0     976.7    NA       0.0000   9999     750   0     0    
2019/07/17  01:19:00  BASE  3.24576  355  4.263    1    -0.8  100   -0.8  0     0     976.7    NA       0.0000   9999     690   0     0    
2019/07/17  01:20:00  BASE  3.54564  353  4.263    1    -0.8  100   -0.8  0     0     976.7    NA       0.0000   9999     720   0     0    
2019/07/17  01:21:00  BASE  3.82788  355  4.263    2    -0.8  100   -0.8  0     0     976.7    NA       0.0000   9999     750   0     0    
2019/07/17  01:22:00  BASE  3.95136  355  4.263    2    -0.8  100   -0.8  0     0     976.6    NA       0.0000   9999     820   0     0    
2019/07/17  01:23:00  BASE  3.75144  356  4.263    2    -0.7  100   -0.7  0     0     976.6    NA       0.0000   9999     850   0     0    
2019/07/17  01:24:00  BASE  3.50448  353  4.263    2    -0.7  100   -0.7  0     0     976.6    NA       0.0000   9999     850   0     0    
2019/07/17  01:25:00  BASE  3.6162   348  4.263    345  -0.7  100   -0.7  0     0     976.6    NA       0.0000   9999     820   0     0    
2019/07/17  01:26:00  BASE  3.78672  345  4.263    345  -0.6  100   -0.6  0     0     976.6    NA       0.0000   9999     820   0     0    
2019/07/17  01:27:00  BASE  3.7338   347  4.263    345  -0.6  100   -0.6  0     0     976.6    NA       0.0000   9999     890   0     0    
2019/07/17  01:28:00  BASE  3.84552  349  4.53936  348  -0.6  100   -0.6  0     0     976.6    NA       0.0000   9999     980   0     0    
2019/07/17  01:29:00  BASE  3.969    348  4.53936  349  -0.6  100   -0.6  0     0     976.6    NA       0.0000   9999     850   0     0    
2019/07/17  01:30:00  BASE  4.2042   348  4.68636  346  -0.6  100   -0.6  0     0     976.6    NA       0.0000   9999     790   0     0    
2019/07/17  01:31:01  BASE  4.42764  346  4.68636  346  -0.6  100   -0.6  0     0     976.6    NA       0.0000   9999     820   0     0    
2019/07/17  01:32:00  BASE  4.31004  346  4.68636  346  -0.6  100   -0.6  0     0     976.6    NA       0.0000   9999     790   0     0    
2019/07/17  01:33:00  BASE  3.98076  341  4.68636  346  -0.6  100   -0.6  0     0     976.6    NA       0.0000   9999     820   0     0    
2019/07/17  01:34:00  BASE  3.2634   322  4.68636  346  -0.6  100   -0.6  0     0     976.7    NA       0.0000   9999     720   0     0    
2019/07/17  01:35:00  BASE  2.69892  309  4.68636  346  -0.7  100   -0.7  0     0     976.7    NA       0.0000   9999     820   0     0    
2019/07/17  01:36:00  BASE  2.5284   310  4.68636  346  -0.7  100   -0.7  0     0     976.6    NA       0.0000   9999     820   0     0    
2019/07/17  01:37:00  BASE  2.39904  310  4.68636  346  -0.7  100   -0.7  0     0     976.6    NA       0.0000   9999     950   0     0    
2019/07/17  01:38:00  BASE  2.5284   308  4.68636  346  -0.7  100   -0.7  0     0     976.6    NA       0.0000   9999     980   0     0    
2019/07/17  01:39:00  BASE  2.63424  308  4.68636  346  -0.7  100   -0.7  0     0     976.6    NA       0.0000   9999     790   0     0    
2019/07/17  01:40:00  BASE  2.36964  310  4.59816  345  -0.7  100   -0.7  0     0     976.6    NA       0.0000   9999     890   0     0    
2019/07/17  01:41:00  BASE  2.16972  316  4.41588  347  -0.7  100   -0.7  0     0     976.6    NA       0.0000   9999     980   0     0    
2019/07/17  01:42:00  BASE  2.29908  325  4.02192  344  -0.7  100   -0.7  0     0     976.6    NA       0.0000   9999     850   0     0    
2019/07/17  01:43:00  BASE  2.29908  320  3.1458   315  -0.7  100   -0.7  0     0     976.7    NA       0.0000   9999     820   0     0    
2019/07/17  01:44:00  BASE  2.24028  309  2.96352  305  -0.6  100   -0.6  0     0     976.7    NA       0.0000   9999     850   0     0    
2019/07/17  01:45:00  BASE  1.92864  313  2.96352  305  -0.6  100   -0.6  0     0     976.7    NA       0.0000   9999     890   0     0    
2019/07/17  01:46:01  BASE  1.72284  310  2.96352  305  -0.6  100   -0.6  0     0     976.7    NA       0.0000   9999     920   0     0    
2019/07/17  01:47:00  BASE  2.11092  305  2.96352  305  -0.6  100   -0.6  0     0     976.7    NA       0.0000   9999     950   0     0    
2019/07/17  01:48:00  BASE  2.2638   304  2.75184  294  -0.6  100   -0.6  0     0     976.7    NA       0.0000   9999     950   0     0    
2019/07/17  01:49:00  BASE  2.74008  303  3.78084  308  -0.6  100   -0.6  0     0     976.7    NA       0.0000   9999     1020  0     0    
2019/07/17  01:50:00  BASE  3.44568  312  4.05132  323  -0.6  100   -0.6  0     0     976.7    NA       0.0000   9999     950   0     0    
2019/07/17  01:51:00  BASE  3.7632   323  4.1454   323  -0.6  100   -0.6  0     0     976.7    NA       0.0000   9999     980   0     0    
2019/07/17  01:52:00  BASE  4.2336   324  4.86864  318  -0.7  100   -0.7  0     0     976.7    NA       0.0000   9999     980   0     0    
2019/07/17  01:53:00  BASE  4.89216  323  5.95644  320  -0.7  100   -0.7  0     0     976.6    NA       0.0000   9999     890   0     0    
2019/07/17  01:54:00  BASE  5.44488  323  5.95644  320  -0.7  100   -0.7  0     0     976.6    NA       0.0000   9999     590   0     0    
2019/07/17  01:55:00  BASE  5.586    323  5.95644  320  -0.7  100   -0.7  0     0     976.6    NA       0.0000   9999     490   0     0    
2019/07/17  01:56:00  BASE  5.59188  325  6.2622   324  -0.7  100   -0.7  0     0     976.6    NA       0.0000   9999     490   980   0    
2019/07/17  01:57:00  BASE  5.55072  328  6.2622   324  -0.7  100   -0.7  0     0     976.6    NA       0.0000   9999     460   0     0    
2019/07/17  01:58:00  BASE  5.42136  331  6.2622   324  -0.7  100   -0.7  0     0     976.6    NA       0.0000   9999     430   0     0    
2019/07/17  01:59:00  BASE  5.48016  333  6.2622   324  -0.7  100   -0.7  0     0     976.7    NA       0.0000   9999     390   0     0    
2019/07/17  02:00:00  BASE  5.7036   334  6.2622   334  -0.7  100   -0.7  0     0     976.7    NA       0.0000   9999     390   0     0    
2019/07/17  02:01:00  BASE  5.60952  336  6.2622   334  -0.6  100   -0.6  0     0     976.7    NA       0.0000   9999     360   0     0    
2019/07/17  02:02:00  BASE  5.12148  339  6.2622   334  -0.6  100   -0.6  0     0     976.7    NA       0.0000   9999     360   0     0    
2019/07/17  02:03:00  BASE  4.80396  340  6.2622   334  -0.6  100   -0.6  0     0     976.7    NA       0.0000   9999     330   0     0    
2019/07/17  02:04:00  BASE  4.60404  342  6.2622   334  -0.6  100   -0.6  0     0     976.7    NA       0.0000   9999     360   0     0    
2019/07/17  02:05:00  BASE  4.37472  344  6.2622   334  -0.6  100   -0.6  0     0     976.7    NA       0.0000   9999     390   0     0    
2019/07/17  02:06:00  BASE  4.2336   343  6.2622   334  -0.6  100   -0.6  0     0     976.7    NA       0.0000   9999     360   0     0    
2019/07/17  02:07:00  BASE  4.33356  344  6.2622   334  -0.6  100   -0.6  0     0     976.7    NA       0.0000   9999     390   0     0    
2019/07/17  02:08:00  BASE  4.4688   344  6.2622   334  -0.6  100   -0.6  0     0     976.7    NA       0.0000   9999     390   0     0    
2019/07/17  02:09:00  BASE  4.2336   347  6.2622   334  -0.6  100   -0.6  0     0     976.7    NA       0.0000   9999     360   0     0    
2019/07/17  02:10:00  BASE  3.92784  351  5.65656  331  -0.6  100   -0.6  0     0     976.7    NA       0.0000   9999     360   0     0    
2019/07/17  02:11:00  BASE  3.62208  349  5.41548  338  -0.6  100   -0.6  0     0     976.7    NA       0.0000   9999     360   0     0    
2019/07/17  02:12:00  BASE  3.29868  348  5.2038   341  -0.7  100   -0.7  0     0     976.7    NA       0.0000   9999     360   0     0    
2019/07/17  02:13:00  BASE  3.06936  349  4.68636  349  -0.7  100   -0.7  0     0     976.7    NA       0.0000   9999     330   0     0    
2019/07/17  02:14:00  BASE  2.98116  348  4.65696  343  -0.7  100   -0.7  0     0     976.7    NA       0.0000   9999     330   1610  0    
2019/07/17  02:15:00  BASE  3.09876  349  4.65696  343  -0.7  100   -0.7  0     0     976.7    NA       0.0000   9999     330   1670  0    
2019/07/17  02:16:00  BASE  3.27516  349  4.65696  343  -0.8  100   -0.8  0     0     976.8    NA       0.0000   9999     330   0     0    
2019/07/17  02:17:00  BASE  3.33396  348  4.65696  343  -0.8  100   -0.8  0     0     976.8    NA       0.0000   9999     330   0     0    
2019/07/17  02:18:00  BASE  3.1752   343  4.38648  348  -0.8  100   -0.8  0     0     976.8    NA       0.0000   9999     330   0     0    
2019/07/17  02:19:00  BASE  3.087    341  4.1748   344  -0.8  100   -0.8  0     0     976.8    NA       0.0000   9999     330   0     0    
2019/07/17  02:20:00  BASE  3.18696  344  4.116    346  -0.8  100   -0.8  0     0     976.8    NA       0.0000   9999     300   0     0    
2019/07/17  02:21:00  BASE  3.30456  344  3.62796  342  -0.8  100   -0.8  0     0     976.8    NA       0.0000   9999     300   0     0    
2019/07/17  02:22:00  BASE  3.43392  341  3.72204  336  -0.8  100   -0.8  0     0     976.8    NA       0.0000   9999     300   0     0    
2019/07/17  02:23:00  BASE  3.41628  340  3.75144  339  -0.8  100   -0.8  0     0     976.9    NA       0.0000   9999     330   0     0    
2019/07/17  02:24:00  BASE  3.3222   341  3.75144  339  -0.8  100   -0.8  0     0     977.0    NA       0.0000   9999     300   0     0    
2019/07/17  02:25:00  BASE  3.18108  345  3.75144  339  -0.8  100   -0.8  0     0     977.0    NA       0.0000   9999     300   0     0    
2019/07/17  02:26:00  BASE  3.15756  346  3.75144  339  -0.8  100   -0.8  0     0     977.0    NA       0.0000   9999     300   0     0    
2019/07/17  02:27:00  BASE  3.234    343  3.96312  346  -0.8  100   -0.8  0     0     977.0    NA       0.0000   9999     300   0     0    
2019/07/17  02:28:00  BASE  3.15168  339  3.96312  346  -0.8  100   -0.8  0     0     977.0    NA       0.0000   9999     330   0     0    
2019/07/17  02:29:00  BASE  3.1752   343  3.96312  346  -0.8  100   -0.8  0     0     977.0    NA       0.0000   9999     300   0     0    
2019/07/17  02:30:00  BASE  3.03996  348  3.96312  346  -0.8  100   -0.8  0     0     977.0    NA       0.0000   9999     300   0     0    
2019/07/17  02:31:00  BASE  2.8518   344  3.96312  346  -0.8  100   -0.8  0     0     977.0    NA       0.0000   9999     300   0     0    
2019/07/17  02:32:00  BASE  2.89296  342  3.96312  346  -0.8  100   -0.8  0     0     977.0    NA       0.0000   9999     300   0     0    
2019/07/17  02:33:00  BASE  2.87532  345  3.96312  346  -0.8  100   -0.8  0     0     977.0    NA       0.0000   9999     330   0     0    
2019/07/17  02:34:00  BASE  2.89296  349  3.96312  346  -0.8  100   -0.8  0     0     977.0    NA       0.0000   9999     330   0     0    
2019/07/17  02:35:00  BASE  3.08112  349  3.96312  346  -0.8  100   -0.8  0     0     977.0    NA       0.0000   9999     330   0     0    
2019/07/17  02:36:00  BASE  3.15168  347  3.96312  346  -0.9  100   -0.9  0     0     977.0    NA       0.0000   9999     360   1210  0    
2019/07/17  02:37:00  BASE  3.11052  346  3.65736  348  -0.9  100   -0.9  0     0     977.0    NA       0.0000   9999     330   0     0    
2019/07/17  02:38:00  BASE  3.12228  346  3.65736  348  -0.9  100   -0.9  0     0     977.0    NA       0.0000   9999     330   0     0    
2019/07/17  02:39:00  BASE  3.09876  344  3.51036  342  -0.9  100   -0.9  0     0     977.0    NA       0.0000   9999     360   1250  0    
2019/07/17  02:40:00  BASE  3.1458   340  3.51036  342  -0.9  100   -0.9  0     0     977.0    NA       0.0000   9999     330   0     0    
2019/07/17  02:41:01  BASE  3.28104  339  3.81024  333  -0.9  100   -0.9  0     0     977.0    NA       0.0000   9999     360   1210  0    
2019/07/17  02:42:00  BASE  3.34572  340  3.81024  333  -0.9  100   -0.9  0     0     977.0    NA       0.0000   9999     330   1210  0    
2019/07/17  02:43:00  BASE  3.22224  341  3.81024  333  -0.9  100   -0.9  0     0     977.0    NA       0.0000   9999     360   0     0    
2019/07/17  02:44:00  BASE  3.21048  341  3.96312  345  -0.9  100   -0.9  0     0     977.0    NA       0.0000   9999     330   1250  0    
2019/07/17  02:45:00  BASE  3.46332  342  3.96312  343  -0.9  100   -0.9  0     0     977.0    NA       0.0000   9999     360   0     0    
2019/07/17  02:46:00  BASE  3.4692   339  3.96312  343  -0.9  100   -0.9  0     0     977.0    NA       0.0000   9999     360   0     0    
2019/07/17  02:47:00  BASE  3.47508  338  4.263    336  -0.9  100   -0.9  0     0     977.0    NA       0.0000   9999     360   0     0    
2019/07/17  02:48:00  BASE  3.50448  339  4.263    336  -0.9  100   -0.9  0     0     977.0    NA       0.0000   9999     360   0     0    
2019/07/17  02:49:00  BASE  3.47508  340  4.47468  332  -0.9  100   -0.9  0     0     977.0    NA       0.0000   9999     330   0     0    
2019/07/17  02:50:00  BASE  3.48096  340  4.47468  332  -0.9  100   -0.9  0     0     977.0    NA       0.0000   9999     330   1310  0    
2019/07/17  02:51:00  BASE  3.66912  337  4.47468  339  -0.9  100   -0.9  0     0     976.9    NA       0.0000   9999     330   1380  0    
2019/07/17  02:52:00  BASE  3.8808   338  4.47468  339  -0.9  100   -0.9  0     0     976.9    NA       0.0000   9999     330   1310  0    
2019/07/17  02:53:00  BASE  3.79848  340  4.47468  339  -0.9  100   -0.9  0     0     976.8    NA       0.0000   9999     330   1310  0    
2019/07/17  02:54:00  BASE  3.65736  338  4.47468  339  -0.9  100   -0.9  0     0     976.8    NA       0.0000   9999     330   0     0    
2019/07/17  02:55:00  BASE  3.59856  339  4.47468  339  -0.9  100   -0.9  0     0     976.8    NA       0.0000   9999     330   1310  0    
2019/07/17  02:56:00  BASE  3.69264  339  4.47468  339  -0.9  100   -0.9  0     0     976.9    NA       0.0000   9999     360   1310  0    
2019/07/17  02:57:00  BASE  3.69852  339  4.47468  339  -0.9  100   -0.9  0     0     976.9    NA       0.0000   9999     360   0     0    
2019/07/17  02:58:00  BASE  3.7044   341  4.47468  339  -0.9  100   -0.9  0     0     976.8    NA       0.0000   9999     360   1310  0    
2019/07/17  02:59:00  BASE  3.8514   343  4.47468  339  -0.9  100   -0.9  0     0     976.8    NA       0.0000   9999     390   1280  0    
2019/07/17  03:00:00  BASE  3.93372  342  4.47468  339  -0.9  100   -0.9  0     0     976.8    NA       0.0000   9999     390   0     0    
2019/07/17  03:01:00  BASE  3.83376  342  4.29828  341  -0.9  100   -0.9  0     0     976.8    NA       0.0000   9999     390   0     0    
2019/07/17  03:02:00  BASE  3.59856  345  4.29828  341  -0.9  100   -0.9  0     0     976.9    NA       0.0000   9999     390   0     0    
2019/07/17  03:03:00  BASE  3.66324  342  4.29828  333  -0.9  100   -0.9  0     0     976.9    NA       0.0000   9999     360   1350  0    
2019/07/17  03:04:00  BASE  3.46332  341  4.29828  333  -0.9  100   -0.9  0     0     977.0    NA       0.0000   9999     390   1380  0    
2019/07/17  03:05:00  BASE  3.09876  346  4.29828  333  -0.9  100   -0.9  0     0     977.0    NA       0.0000   9999     390   0     0    
2019/07/17  03:06:00  BASE  3.06936  349  4.29828  333  -0.9  100   -0.9  0     0     977.0    NA       0.0000   9999     430   0     0    
2019/07/17  03:07:00  BASE  3.01644  347  4.29828  333  -0.9  100   -0.9  0     0     977.0    NA       0.0000   9999     390   0     0    
2019/07/17  03:08:00  BASE  3.29868  344  4.29828  333  -0.9  100   -0.9  0     0     977.0    NA       0.0000   9999     1150  0     0    
2019/07/17  03:09:00  BASE  3.66912  344  4.29828  333  -0.9  100   -0.9  0     0     977.0    NA       0.0000   9999     430   0     0    
2019/07/17  03:10:00  BASE  3.56328  344  4.29828  333  -0.9  100   -0.9  0     0     977.0    NA       0.0000   9999     430   0     0    
2019/07/17  03:11:00  BASE  3.28692  344  4.29828  333  -0.9  100   -0.9  0     0     977.0    NA       0.0000   9999     430   0     0    
2019/07/17  03:12:00  BASE  3.40452  344  4.59816  336  -0.9  100   -0.9  0     0     977.0    NA       0.0000   9999     430   0     0    
2019/07/17  03:13:00  BASE  3.3222   345  4.59816  336  -0.9  100   -0.9  0     0     977.0    NA       0.0000   9999     1440  0     0    
2019/07/17  03:14:00  BASE  2.97528  349  4.59816  336  -0.9  100   -0.9  0     0     977.0    NA       0.0000   9999     1440  0     0    
2019/07/17  03:15:00  BASE  2.98704  349  4.59816  336  -0.9  100   -0.9  0     0     977.0    NA       0.0000   9999     1440  0     0    
2019/07/17  03:16:00  BASE  2.96352  343  4.59816  336  -0.9  100   -0.9  0     0     977.0    NA       0.0000   9999     1440  0     0    
2019/07/17  03:17:00  BASE  2.87532  347  4.59816  336  -0.9  100   -0.9  0     0     977.0    NA       0.0000   9999     490   0     0    
2019/07/17  03:18:00  BASE  3.1164   353  4.59816  336  -0.9  100   -0.9  0     0     977.0    NA       0.0000   9999     520   0     0    
2019/07/17  03:19:00  BASE  3.21048  356  4.59816  336  -0.9  100   -0.9  0     0     977.0    NA       0.0000   9999     460   1480  0    
2019/07/17  03:20:00  BASE  3.22224  356  4.59816  336  -0.9  100   -0.9  0     0     977.0    NA       0.0000   9999     460   0     0    
2019/07/17  03:21:00  BASE  3.22812  359  4.59816  336  -0.9  100   -0.9  0     0     977.0    NA       0.0000   9999     1380  0     0    
2019/07/17  03:22:00  BASE  3.26928  357  4.05132  352  -0.9  100   -0.9  0     0     977.0    NA       0.0000   9999     1380  0     0    
2019/07/17  03:23:00  BASE  3.2928   359  4.05132  352  -0.9  100   -0.9  0     0     977.0    NA       0.0000   9999     1350  0     0    
2019/07/17  03:24:00  BASE  3.16932  4    4.05132  352  -0.9  100   -0.9  0     0     977.0    NA       0.0000   UP       9999  1380  0    
2019/07/17  03:25:00  BASE  3.19872  2    4.05132  352  -0.9  100   -0.9  0     0     977.0    NA       0.0000   UP       9999  430   1410 
2019/07/17  03:26:00  BASE  3.25164  5    4.05132  352  -0.9  100   -0.9  0     0     977.1    NA       0.0000   UP       9999  430   0    
2019/07/17  03:27:00  BASE  3.04584  4    4.05132  352  -0.8  100   -0.8  0     0     977.1    NA       0.0000   UP       9999  1480  0    
2019/07/17  03:28:00  BASE  3.04584  0    4.05132  352  -0.8  100   -0.8  0     0     977.1    NA       0.0000   UP       9999  1480  0    
2019/07/17  03:29:00  BASE  3.29868  360  4.05132  352  -0.8  100   -0.8  0     0     977.1    NA       0.0000   UP       9999  390   0    
2019/07/17  03:30:00  BASE  3.31632  5    3.78084  1    -0.8  100   -0.8  0     0     977.1    NA       0.0000   UP       9999  390   0    
2019/07/17  03:31:00  BASE  3.2046   3    3.78084  1    -0.8  100   -0.8  0     0     977.1    NA       0.0000   UP       9999  1480  0    
2019/07/17  03:32:00  BASE  3.13992  6    3.78084  1    -0.8  100   -0.8  0     0     977.1    NA       0.0000   UP       9999  430   0    
2019/07/17  03:33:00  BASE  3.12228  4    3.78084  1    -0.8  100   -0.8  0     0     977.1    NA       0.0000   UP       9999  390   0    
2019/07/17  03:34:00  BASE  2.95764  356  3.78084  1    -0.8  100   -0.8  0     0     977.1    NA       0.0000   UP       9999  390   0    
2019/07/17  03:35:00  BASE  2.79888  357  3.78084  1    -0.8  100   -0.8  0     0     977.1    NA       0.0000   UP       9999  1440  0    
2019/07/17  03:36:00  BASE  2.81064  2    3.78084  1    -0.8  100   -0.8  0     0     977.0    NA       0.0000   UP       9999  390   0    
2019/07/17  03:37:00  BASE  2.8812   3    3.78084  1    -0.8  100   -0.8  0     0     977.0    NA       0.0000   UP       9999  390   0    
2019/07/17  03:38:00  BASE  2.8812   2    3.78084  1    -0.8  100   -0.8  0     0     977.0    NA       0.0000   UP       9999  1480  0    
2019/07/17  03:39:00  BASE  3.11052  3    3.99252  353  -0.8  100   -0.8  0     0     977.0    NA       0.0000   UP       9999  850   0    
2019/07/17  03:40:00  BASE  3.49272  359  3.99252  353  -0.8  100   -0.8  0     0     977.0    NA       0.0000   UP       9999  820   0    
2019/07/17  03:41:00  BASE  3.38688  359  3.99252  353  -0.8  100   -0.8  0     0     977.0    NA       0.0000   UP       9999  430   0    
2019/07/17  03:42:00  BASE  3.1458   1    3.99252  353  -0.8  100   -0.8  0     0     977.0    NA       0.0000   UP       9999  360   0    
2019/07/17  03:43:00  BASE  3.13404  0    3.99252  353  -0.8  100   -0.8  0     0     977.0    NA       0.0000   UP       9999  360   0    
2019/07/17  03:44:00  BASE  3.1164   5    3.99252  353  -0.8  100   -0.8  0     0     977.1    NA       0.0000   UP       9999  360   0    
2019/07/17  03:45:00  BASE  2.793    11   3.99252  353  -0.8  100   -0.8  0     0     977.1    NA       0.0000   UP       7000  360   0    
2019/07/17  03:46:00  BASE  2.8812   9    3.99252  353  -0.8  100   -0.8  0     0     977.1    NA       0.0000   -SN      5000  360   0    
2019/07/17  03:47:00  BASE  3.16344  3    3.99252  353  -0.8  100   -0.8  0     0     977.1    NA       0.0000   -SN      8000  0     0    
2019/07/17  03:48:00  BASE  3.00468  4    3.99252  353  -0.8  100   -0.8  0     0     977.1    NA       0.0000   -SN      BR    7000  0    
2019/07/17  03:49:00  BASE  2.94     6    3.93372  351  -0.8  100   -0.8  0     0     977.1    NA       0.0000   -SN      BR    5000  0    
2019/07/17  03:50:00  BASE  2.8224   6    3.53976  345  -0.8  100   -0.8  0     0     977.1    NA       0.0000   -SN      BR    5000  0    
2019/07/17  03:51:00  BASE  2.90472  7    3.62796  1    -0.8  100   -0.8  0     0     977.1    NA       0.0000   -SN      BR    4400  0    
2019/07/17  03:52:00  BASE  3.25164  3    3.75144  350  -0.8  100   -0.8  0     0     977.1    NA       0.0000   -SN      BR    4200  0    
2019/07/17  03:53:00  BASE  3.32808  2    3.75144  350  -0.8  100   -0.8  0     0     977.2    NA       0.0000   -SN      BR    4100  0    
2019/07/17  03:54:00  BASE  3.2634   2    3.75144  350  -0.8  100   -0.8  0     0     977.1    NA       0.0000   -SN      BR    3700  0    
2019/07/17  03:55:00  BASE  3.2634   4    3.75144  350  -0.8  100   -0.8  0     0     977.1    NA       0.0000   -SN      BR    3700  0    
2019/07/17  03:56:00  BASE  3.22224  8    3.75144  350  -0.8  100   -0.8  0     0     977.1    NA       0.0000   -SN      BR    3800  0    
2019/07/17  03:57:00  BASE  3.2046   7    3.75144  350  -0.8  100   -0.8  0     0     977.1    NA       0.0000   -SN      BR    3800  0    
2019/07/17  03:58:00  BASE  3.16932  8    3.75144  350  -0.8  100   -0.8  0     0     977.1    NA       0.0000   -SN      BR    3800  0    
2019/07/17  03:59:00  BASE  2.9988   9    3.75144  350  -0.8  100   -0.8  0     0     977.1    NA       0.0000   -SN      BR    3800  0    
2019/07/17  04:00:00  BASE  2.75772  9    3.75144  350  -0.8  100   -0.8  0     0     977.1    NA       0.0000   -SN      BR    3500  0    
2019/07/17  04:01:00  BASE  2.56368  10   3.75144  350  -0.8  100   -0.8  0     0     977.1    NA       0.0000   -SN      BR    3300  0    
2019/07/17  04:02:01  BASE  2.49312  10   3.75144  350  -0.8  100   -0.8  0     0     M        NA       0.0000   -SN      BR    M     0    
2019/07/17  04:03:01  BASE  2.43432  8    3.62796  1    -0.8  100   -0.8  0     0     977.1    NA       0.0000   -SN      BR    3600  0    
2019/07/17  04:04:01  BASE  2.69892  6    3.62796  1    -0.8  100   -0.8  0     0     977.1    NA       0.0000   -SN      BR    3700  0    
2019/07/17  04:05:01  BASE  2.92236  2    3.62796  1    -0.8  100   -0.8  0     0     977.1    NA       0.0000   -SN      BR    3600  0    
2019/07/17  04:06:01  BASE  2.85768  357  3.62796  1    -0.8  100   -0.8  0     0     977.1    NA       0.0000   -SN      BR    3700  0    
2019/07/17  04:07:01  BASE  2.77536  355  3.41628  2    -0.8  100   -0.8  0     0     977.1    NA       0.0000   -SN      BR    5000  0    
2019/07/17  04:08:01  BASE  2.95764  353  3.62796  352  -0.8  100   -0.8  0     0     977.1    NA       0.0000   -SN      BR    3700  0    
2019/07/17  04:09:01  BASE  3.22812  350  3.62796  352  -0.8  100   -0.8  0     0     977.1    NA       0.0000   -SN      BR    5000  0    
2019/07/17  04:10:01  BASE  3.18108  352  3.62796  352  -0.8  100   -0.8  0     0     977.1    NA       0.0000   -SN      BR    6000  0    
2019/07/17  04:11:01  BASE  2.94     353  3.62796  352  -0.8  100   -0.8  0     0     977.0    NA       0.0000   -SN      BR    6000  0    
2019/07/17  04:12:01  BASE  2.77536  352  3.62796  352  -0.8  100   -0.8  0     0     977.1    NA       0.0000   -SN      BR    5000  0    
2019/07/17  04:13:01  BASE  2.69892  353  3.62796  352  -0.8  100   -0.8  0     0     977.1    NA       0.0000   -SN      BR    7000  0    
2019/07/17  04:14:01  BASE  2.56956  351  3.62796  352  -0.8  100   -0.8  0     0     977.1    NA       0.0000   -SN      BR    8000  0    
2019/07/17  04:15:01  BASE  2.75184  350  3.62796  352  -0.8  100   -0.8  0     0     977.1    NA       0.0000   -SN      BR    8000  0    
2019/07/17  04:16:01  BASE  3.09876  351  3.62796  352  -0.8  100   -0.8  0     0     977.1    NA       0.0000   -SN      BR    8000  0    
2019/07/17  04:17:01  BASE  2.98116  349  3.62796  352  -0.8  100   -0.8  0     0     977.1    NA       0.0000   -SN      BR    9999  390  
2019/07/17  04:18:01  BASE  2.69892  349  3.59856  349  -0.8  100   -0.8  0     0     977.1    NA       0.0000   -SN      BR    9999  390  
2019/07/17  04:19:01  BASE  2.646    349  3.41628  351  -0.8  100   -0.8  0     0     977.1    NA       0.0000   -SN      BR    9999  390  
2019/07/17  04:20:01  BASE  3.0282   350  3.81024  348  -0.9  100   -0.9  0     0     977.1    NA       0.0000   -SN      BR    8000  0    
2019/07/17  04:21:01  BASE  3.2634   351  3.81024  348  -0.9  100   -0.9  0     0     977.1    NA       0.0000   -SN      BR    9000  0    
2019/07/17  04:22:01  BASE  3.1164   353  3.81024  348  -0.9  100   -0.9  0     0     977.1    NA       0.0000   -SN      BR    9999  0    
2019/07/17  04:23:01  BASE  2.9988   351  3.81024  348  -0.9  100   -0.9  0     0     977.1    NA       0.0000   -SN      9999  0     0    
2019/07/17  04:24:01  BASE  2.94     347  3.81024  348  -0.9  100   -0.9  0     0     977.1    NA       0.0000   -SN      BR    6000  0    
2019/07/17  04:25:01  BASE  3.06348  351  3.81024  348  -0.9  100   -0.9  0     0     977.1    NA       0.0000   -SN      BR    4400  0    
2019/07/17  04:26:01  BASE  3.34572  353  3.81024  348  -0.9  100   -0.9  0     0     977.0    NA       0.0000   -SN      BR    3800  0    
2019/07/17  04:27:01  BASE  3.39864  352  3.86904  59   -0.9  100   -0.9  0     0     977.0    NA       0.0000   -SN      BR    8000  0    
2019/07/17  04:28:01  BASE  3.22812  354  3.86904  59   -0.9  100   -0.9  0     0     977.0    NA       0.0000   -SN      BR    5000  360  
2019/07/17  04:29:01  BASE  3.57504  352  4.41588  2    -0.8  100   -0.8  0     0     977.0    NA       0.0000   -SN      BR    6000  330  
2019/07/17  04:30:01  BASE  3.56916  350  4.41588  2    -0.8  100   -0.8  0     0     977.0    NA       0.0000   -SN      BR    9999  330  
2019/07/17  04:31:01  BASE  2.95176  348  4.41588  2    -0.8  100   -0.8  0     0     977.1    NA       0.0000   -SN      BR    9999  330  
2019/07/17  04:32:01  BASE  2.91648  347  4.41588  2    -0.8  100   -0.8  0     0     977.1    NA       0.0000   -SN      BR    9000  360  
2019/07/17  04:33:01  BASE  3.00468  346  4.41588  2    -0.8  100   -0.8  0     0     977.1    NA       0.0000   -SN      BR    9999  330  
2019/07/17  04:34:01  BASE  2.74596  345  4.41588  2    -0.8  100   -0.8  0     0     977.1    NA       0.0000   -SN      BR    9999  330  
2019/07/17  04:35:01  BASE  2.65776  346  4.41588  2    -0.9  100   -0.9  0     0     977.1    NA       0.0000   -SN      BR    9999  330  
2019/07/17  04:36:01  BASE  2.79888  347  4.41588  2    -0.9  100   -0.9  0     0     977.1    NA       0.0000   -SN      BR    8000  330  
2019/07/17  04:37:01  BASE  2.80476  347  4.41588  2    -0.9  100   -0.9  0     0     977.1    NA       0.0000   -SN      BR    9999  330  
2019/07/17  04:38:01  BASE  2.84592  347  4.41588  2    -0.9  100   -0.9  0     0     977.1    NA       0.0000   -SN      BR    8000  300  
2019/07/17  04:39:01  BASE  3.087    345  3.62796  346  -0.9  100   -0.9  0     0     977.1    NA       0.0000   -SN      7000  300   0    
2019/07/17  04:40:01  BASE  3.40452  344  3.75144  348  -0.9  100   -0.9  0     0     977.1    NA       0.0000   -SN      BR    9000  300  
2019/07/17  04:41:01  BASE  3.53388  346  3.75144  348  -0.9  100   -0.9  0     0     977.1    NA       0.0000   -SN      BR    9999  330  
2019/07/17  04:42:01  BASE  3.36924  348  3.75144  348  -0.9  100   -0.9  0     0     977.1    NA       0.0000   -SN      9999  300   0    
2019/07/17  04:43:01  BASE  3.10464  347  3.75144  348  -0.9  100   -0.9  0     0     977.1    NA       0.0000   -SN      9999  330   0    
2019/07/17  04:44:01  BASE  2.97528  347  3.75144  348  -0.9  100   -0.9  0     0     977.1    NA       0.0000   -SN      9999  330   0    
2019/07/17  04:45:01  BASE  2.98704  352  3.75144  348  -0.9  100   -0.9  0     0     977.1    NA       0.0000   -SN      9999  330   0    
2019/07/17  04:46:01  BASE  3.24576  354  3.75144  348  -0.9  100   -0.9  0     0     977.1    NA       0.0000   -SN      9999  360   0    
2019/07/17  04:47:01  BASE  3.4692   359  3.75144  348  -0.9  100   -0.9  0     0     977.1    NA       0.0000   -SN      9999  390   0    
2019/07/17  04:48:01  BASE  3.5868   356  4.1454   344  -0.9  100   -0.9  0     0     977.1    NA       0.0000   -SN      9999  430   0    
2019/07/17  04:49:01  BASE  3.55152  352  4.1454   344  -0.8  100   -0.8  0     0     977.1    NA       0.0000   -SN      9999  390   0    
2019/07/17  04:50:01  BASE  3.11052  354  4.1454   344  -0.8  100   -0.8  0     0     977.1    NA       0.0000   -SN      9999  390   0    
2019/07/17  04:51:01  BASE  2.95764  351  4.1454   344  -0.8  100   -0.8  0     0     977.1    NA       0.0000   -SN      9999  390   0    
2019/07/17  04:52:01  BASE  3.06348  352  4.1454   344  -0.8  100   -0.8  0     0     977.0    NA       0.0000   -SN      9999  360   0    
2019/07/17  04:53:01  BASE  3.01056  354  4.1454   344  -0.8  100   -0.8  0     0     977.0    NA       0.0000   -SN      9999  390   0    
2019/07/17  04:54:01  BASE  3.09876  352  4.1454   344  -0.8  100   -0.8  0     0     977.0    NA       0.0000   -SN      9999  390   0    
2019/07/17  04:55:01  BASE  3.09876  353  4.1454   344  -0.8  100   -0.8  0     0     977.0    NA       0.0000   -SN      9999  360   0    
2019/07/17  04:56:00  BASE  3.11052  353  4.1454   344  -0.8  100   -0.8  0     0     977.1    NA       0.0000   -SN      9999  360   0    
2019/07/17  04:57:00  BASE  3.19284  356  4.1454   344  -0.8  100   -0.8  0     0     977.1    NA       0.0000   -SN      9999  360   0    
2019/07/17  04:58:00  BASE  3.43392  352  4.2042   183  -0.8  100   -0.8  0     0     977.1    NA       0.0000   -SN      9999  360   0    
2019/07/17  04:59:00  BASE  3.71028  350  4.2042   183  -0.8  100   -0.8  0     0     977.1    NA       0.0000   -SN      9999  360   0    
2019/07/17  05:00:01  BASE  3.61032  354  4.2042   183  -0.8  100   -0.8  0     0     977.1    NA       0.0000   -SN      9999  390   0    
2019/07/17  05:01:01  BASE  3.38688  349  4.2042   183  -0.8  100   -0.8  0     0     977.1    NA       0.0000   -SN      9999  390   0    
2019/07/17  05:02:00  BASE  3.05172  350  4.2042   183  -0.8  100   -0.8  0     0     977.1    NA       0.0000   -SN      9999  390   0    
2019/07/17  05:03:00  BASE  2.95176  347  4.2042   183  -0.8  100   -0.8  0     0     977.2    NA       0.0000   -SN      9999  390   0    
2019/07/17  05:04:01  BASE  2.9694   342  4.2042   183  -0.8  100   -0.8  0     0     977.2    NA       0.0000   -SN      8000  390   0    
2019/07/17  05:05:00  BASE  2.75772  339  4.2042   183  -0.8  100   -0.8  0     0     977.2    NA       0.0000   -SN      9999  390   0    
2019/07/17  05:06:00  BASE  2.75772  340  4.2042   183  -0.8  100   -0.8  0     0     977.2    NA       0.0000   -SN      9999  430   0    
2019/07/17  05:07:00  BASE  2.83416  349  4.2042   183  -0.8  100   -0.8  0     0     977.2    NA       0.0000   -SN      9999  620   0    
2019/07/17  05:08:00  BASE  2.95176  350  3.90432  352  -0.8  100   -0.8  0     0     977.2    NA       0.0000   -SN      9999  660   0    
2019/07/17  05:09:00  BASE  3.11052  351  3.81024  354  -0.8  100   -0.8  0     0     977.1    NA       0.0000   -SN      9999  590   0    
2019/07/17  05:10:00  BASE  3.33396  351  3.93372  351  -0.8  100   -0.8  0     0     977.1    NA       0.0000   -SN      9999  560   0    
2019/07/17  05:11:00  BASE  3.65148  351  4.05132  344  -0.8  100   -0.8  0     0     977.1    NA       0.0000   -SN      9999  520   0    
2019/07/17  05:12:00  BASE  3.51036  347  4.05132  344  -0.8  100   -0.8  0     0     977.1    NA       0.0000   -SN      9999  460   0    
2019/07/17  05:13:01  BASE  3.30456  346  4.05132  344  -0.7  100   -0.7  0     0     977.1    NA       0.0000   -SN      9999  390   0    
2019/07/17  05:14:01  BASE  3.32808  347  4.05132  344  -0.7  100   -0.7  0     0     977.1    NA       0.0000   9999     390   0     0    
2019/07/17  05:15:00  BASE  3.23988  348  4.05132  344  -0.7  100   -0.7  0     0     977.2    NA       0.0000   9999     430   0     0    
2019/07/17  05:16:01  BASE  3.39864  350  4.05132  344  -0.7  100   -0.7  0     0     977.1    NA       0.0000   9999     430   0     0    
2019/07/17  05:17:00  BASE  3.59856  349  4.05132  344  -0.7  100   -0.7  0     0     977.2    NA       0.0000   9999     430   0     0    
2019/07/17  05:18:00  BASE  3.48684  348  4.05132  344  -0.8  100   -0.8  0     0     977.2    NA       0.0000   9999     430   0     0    
2019/07/17  05:19:00  BASE  3.61032  347  4.08072  353  -0.8  100   -0.8  0     0     977.2    NA       0.0000   9999     360   0     0    
2019/07/17  05:20:00  BASE  3.75732  343  4.08072  353  -0.8  100   -0.8  0     0     977.2    NA       0.0000   9999     360   0     0    
2019/07/17  05:21:01  BASE  3.49272  340  4.08072  353  -0.7  100   -0.7  0     0     977.2    NA       0.0000   9999     360   0     0    
2019/07/17  05:22:00  BASE  2.9694   346  4.08072  353  -0.7  100   -0.7  0     0     977.2    NA       0.0000   9999     590   0     0    
2019/07/17  05:23:00  BASE  2.57544  351  4.08072  353  -0.7  100   -0.7  0     0     977.2    NA       0.0000   9999     560   0     0    
2019/07/17  05:24:00  BASE  2.72832  348  4.08072  353  -0.7  100   -0.7  0     0     977.1    NA       0.0000   9999     430   0     0    
2019/07/17  05:25:00  BASE  2.90472  349  4.08072  353  -0.8  100   -0.8  0     0     977.1    NA       0.0000   9999     560   0     0    
2019/07/17  05:26:00  BASE  3.1752   351  4.53936  343  -0.8  100   -0.8  0     0     977.1    NA       0.0000   9999     460   0     0    
2019/07/17  05:27:00  BASE  3.9102   344  4.53936  343  -0.8  100   -0.8  0     0     977.1    NA       0.0000   9999     430   0     0    
2019/07/17  05:28:00  BASE  4.06308  341  4.53936  343  -0.8  100   -0.8  0     0     977.1    NA       0.0000   9999     430   0     0    
2019/07/17  05:29:00  BASE  3.66912  342  4.53936  343  -0.8  100   -0.8  0     0     977.1    NA       0.0000   9999     430   0     0    
2019/07/17  05:30:00  BASE  3.28104  346  4.53936  343  -0.7  100   -0.7  0     0     977.2    NA       0.0000   9999     430   0     0    
2019/07/17  05:31:00  BASE  2.9988   356  4.53936  343  -0.7  100   -0.7  0     0     977.2    NA       0.0000   9999     560   0     0    
2019/07/17  05:32:00  BASE  2.94     355  4.53936  343  -0.7  100   -0.7  0     0     977.1    NA       0.0000   9999     390   0     0    
2019/07/17  05:33:00  BASE  3.25752  348  4.53936  343  -0.8  100   -0.8  0     0     977.1    NA       0.0000   9999     390   0     0    
2019/07/17  05:34:00  BASE  3.56916  347  4.53936  343  -0.8  100   -0.8  0     0     977.1    NA       0.0000   9999     430   0     0    
2019/07/17  05:35:00  BASE  3.31632  349  4.53936  343  -0.8  100   -0.8  0     0     977.1    NA       0.0000   9999     360   0     0    
2019/07/17  05:36:01  BASE  3.07524  350  4.47468  337  -0.8  100   -0.8  0     0     977.1    NA       0.0000   9999     390   0     0    
2019/07/17  05:37:00  BASE  3.1752   345  4.1748   340  -0.8  100   -0.8  0     0     977.1    NA       0.0000   9999     360   0     0    
2019/07/17  05:38:00  BASE  2.98116  343  3.99252  342  -0.8  100   -0.8  0     0     977.1    NA       0.0000   9999     360   0     0    
2019/07/17  05:39:00  BASE  2.80476  351  3.99252  342  -0.8  100   -0.8  0     0     977.1    NA       0.0000   9999     390   0     0    
2019/07/17  05:40:00  BASE  3.29868  351  4.02192  343  -0.8  100   -0.8  0     0     977.1    NA       0.0000   9999     390   0     0    
2019/07/17  05:41:01  BASE  3.61032  339  4.1454   340  -0.8  100   -0.8  0     0     977.1    NA       0.0000   9999     360   0     0    
2019/07/17  05:42:00  BASE  3.35748  338  4.1454   340  -0.8  100   -0.8  0     0     977.1    NA       0.0000   9999     360   0     0    
2019/07/17  05:43:00  BASE  2.90472  346  4.1454   340  -0.8  100   -0.8  0     0     977.2    NA       0.0000   9999     390   0     0    
2019/07/17  05:44:00  BASE  2.4696   347  4.1454   340  -0.8  100   -0.8  0     0     977.2    NA       0.0000   9999     360   0     0    
2019/07/17  05:45:00  BASE  2.39904  347  4.1454   340  -0.8  100   -0.8  0     0     977.2    NA       0.0000   9999     430   0     0    
2019/07/17  05:46:00  BASE  3.25164  350  4.29828  347  -0.8  100   -0.8  0     0     977.2    NA       0.0000   9999     590   0     0    
2019/07/17  05:47:00  BASE  3.86904  342  4.29828  338  -0.8  100   -0.8  0     0     977.2    NA       0.0000   9999     390   0     0    
2019/07/17  05:48:00  BASE  3.45744  336  4.29828  338  -0.8  100   -0.8  0     0     977.2    NA       0.0000   9999     430   0     0    
2019/07/17  05:49:00  BASE  2.98116  339  4.29828  338  -0.8  100   -0.8  0     0     977.2    NA       0.0000   9999     560   0     0    
2019/07/17  05:50:00  BASE  2.82828  343  4.29828  338  -0.8  100   -0.8  0     0     977.2    NA       0.0000   9999     660   0     0    
2019/07/17  05:51:00  BASE  2.52252  347  4.29828  338  -0.8  100   -0.8  0     0     977.2    NA       0.0000   9999     520   0     0    
2019/07/17  05:52:00  BASE  2.10504  348  4.29828  338  -0.8  100   -0.8  0     0     977.2    NA       0.0000   9999     460   0     0    
2019/07/17  05:53:00  BASE  1.97568  346  4.29828  338  -0.8  100   -0.8  0     0     977.2    NA       0.0000   9999     590   0     0    
2019/07/17  05:54:00  BASE  2.05212  344  4.29828  338  -0.8  100   -0.8  0     0     977.2    NA       0.0000   9999     720   0     0    
2019/07/17  05:55:00  BASE  2.07564  343  4.29828  338  -0.8  100   -0.8  0     0     977.2    NA       0.0000   9999     660   0     0    
2019/07/17  05:56:00  BASE  1.99332  343  4.29828  338  -0.8  100   -0.8  0     0     977.2    NA       0.0000   9999     590   0     0    
2019/07/17  05:57:00  BASE  2.31084  346  3.59856  337  -0.8  100   -0.8  0     0     977.3    NA       0.0000   9999     590   0     0    
2019/07/17  05:58:01  BASE  3.01056  343  3.59856  337  -0.8  100   -0.8  0     0     977.3    NA       0.0000   9999     520   0     0    
2019/07/17  05:59:00  BASE  3.25164  338  3.59856  337  -0.8  100   -0.8  0     0     977.3    NA       0.0000   9999     460   0     0    
2019/07/17  06:00:00  BASE  2.89296  336  3.59856  337  -0.8  100   -0.8  0     0     977.3    NA       0.0000   9999     460   0     0    
2019/07/17  06:01:00  BASE  2.64012  333  3.59856  337  -0.8  100   -0.8  0     0     977.3    NA       0.0000   9999     520   0     0    
2019/07/17  06:02:00  BASE  2.499    332  3.59856  337  -0.8  100   -0.8  0     0     977.3    NA       0.0000   9999     490   0     0    
2019/07/17  06:03:00  BASE  2.26968  333  3.59856  337  -0.8  100   -0.8  0     0     977.3    NA       0.0000   9999     490   0     0    
2019/07/17  06:04:00  BASE  2.1462   334  3.59856  337  -0.8  100   -0.8  0     0     977.3    NA       0.0000   9999     430   0     0    
2019/07/17  06:05:00  BASE  2.3814   330  3.59856  337  -0.8  100   -0.8  0     0     977.3    NA       0.0000   9999     590   0     0    
2019/07/17  06:06:00  BASE  2.69892  324  3.59856  337  -0.8  100   -0.8  0     0     977.3    NA       0.0000   9999     590   0     0    
2019/07/17  06:07:00  BASE  2.68716  322  3.56916  338  -0.8  100   -0.8  0     0     977.3    NA       0.0000   9999     520   0     0    
2019/07/17  06:08:00  BASE  2.51076  322  3.29868  336  -0.7  100   -0.7  0     0     977.3    NA       0.0000   9999     460   0     0    
2019/07/17  06:09:00  BASE  2.26968  321  2.99292  327  -0.7  100   -0.7  0     0     977.3    NA       0.0000   9999     430   0     0    
2019/07/17  06:10:00  BASE  2.12856  321  2.99292  327  -0.7  100   -0.7  0     0     977.3    NA       0.0000   9999     520   0     0    
2019/07/17  06:11:00  BASE  2.22264  323  2.99292  327  -0.8  100   -0.8  0     0     977.3    NA       0.0000   9999     520   0     0    
2019/07/17  06:12:00  BASE  2.25204  328  2.99292  327  -0.8  100   -0.8  0     0     977.3    NA       0.0000   9999     460   0     0    
2019/07/17  06:13:00  BASE  2.1756   331  2.99292  327  -0.8  100   -0.8  0     0     977.3    NA       0.0000   9999     460   0     0    
2019/07/17  06:14:00  BASE  2.18148  333  2.99292  327  -0.8  100   -0.8  0     0     977.3    NA       0.0000   9999     460   0     0    
2019/07/17  06:15:00  BASE  2.16384  333  2.90472  323  -0.8  100   -0.8  0     0     977.3    NA       0.0000   9999     460   0     0    
2019/07/17  06:16:00  BASE  2.11092  328  2.81064  321  -0.9  100   -0.9  0     0     977.3    NA       0.0000   9999     390   0     0    
2019/07/17  06:17:00  BASE  2.04036  327  2.75184  323  -0.9  100   -0.9  0     0     977.3    NA       0.0000   9999     390   0     0    
2019/07/17  06:18:00  BASE  1.94628  328  2.42256  325  -0.9  100   -0.9  0     0     977.3    NA       0.0000   9999     360   0     0    
2019/07/17  06:19:00  BASE  2.01684  325  2.42256  325  -0.9  100   -0.9  0     0     977.3    NA       0.0000   9999     360   0     0    
2019/07/17  06:20:01  BASE  2.19912  326  2.42256  324  -0.9  100   -0.9  0     0     977.3    NA       0.0000   9999     360   0     0    
2019/07/17  06:21:00  BASE  2.1756   337  2.42256  347  -0.9  100   -0.9  0     0     977.3    NA       0.0000   9999     230   0     0    
2019/07/17  06:22:00  BASE  2.39316  338  3.1752   328  -0.9  100   -0.9  0     0     977.3    NA       0.0000   9999     0     0     0    
2019/07/17  06:23:00  BASE  2.59896  337  3.1752   328  -0.9  100   -0.9  0     0     977.3    NA       0.0000   UP       9999  0     0    
2019/07/17  06:24:00  BASE  2.646    344  3.1752   328  -0.9  100   -0.9  0     0     977.3    NA       0.0000   UP       9999  0     0    
2019/07/17  06:25:00  BASE  2.646    347  3.1752   328  -0.9  100   -0.9  0     0     977.3    NA       0.0000   UP       9999  0     0    
2019/07/17  06:26:00  BASE  2.69304  344  3.35748  337  -0.9  100   -0.9  0     0     977.3    NA       0.0000   UP       9999  0     0    
2019/07/17  06:27:00  BASE  2.89296  339  3.35748  337  -0.9  100   -0.9  0     0     977.3    NA       0.0000   UP       9999  0     0    
2019/07/17  06:28:00  BASE  2.8518   343  3.35748  337  -1.0  100   -1.0  0     0     977.3    NA       0.0000   UP       5000  0     0    
2019/07/17  06:29:00  BASE  3.01644  344  3.51036  352  -1.0  100   -1.0  0     0     977.3    NA       0.0000   UP       BR    7000  0    
2019/07/17  06:30:00  BASE  3.03996  340  3.51036  352  -1.0  100   -1.0  0     0     977.3    NA       0.0000   UP       BR    9000  0    
2019/07/17  06:31:00  BASE  2.95764  336  3.51036  352  -1.0  100   -1.0  0     0     977.3    NA       0.0000   UP       BR    9000  0    
2019/07/17  06:32:00  BASE  3.03408  337  3.59856  348  -1.0  100   -1.0  0     0     977.3    NA       0.0000   UP       BR    8000  0    
2019/07/17  06:33:00  BASE  3.1164   342  3.62796  341  -1.0  100   -1.0  0     0     977.3    NA       0.0000   UP       BR    8000  0    
2019/07/17  06:34:01  BASE  3.18696  342  3.62796  341  -1.0  100   -1.0  0     0     977.3    NA       0.0000   UP       BR    8000  0    
2019/07/17  06:35:00  BASE  3.3516   337  3.72204  332  -1.1  100   -1.1  0     0     977.3    NA       0.0000   UP       BR    9000  0    
2019/07/17  06:36:00  BASE  3.83376  335  4.50996  336  -1.1  100   -1.1  0     0     977.3    NA       0.0000   UP       BR    8000  0    
2019/07/17  06:37:00  BASE  4.01016  340  4.50996  336  -1.1  100   -1.1  0     0     977.3    NA       0.0000   UP       BR    8000  0    
2019/07/17  06:38:00  BASE  3.80436  342  4.50996  336  -1.1  100   -1.1  0     0     977.3    NA       0.0000   UP       BR    8000  0    
2019/07/17  06:39:00  BASE  3.78084  340  4.50996  336  -1.1  100   -1.1  0     0     977.3    NA       0.0000   UP       BR    9000  0    
2019/07/17  06:40:00  BASE  3.78672  339  4.50996  336  -1.1  100   -1.1  0     0     977.4    NA       0.0000   UP       BR    9000  0    
2019/07/17  06:41:00  BASE  3.75144  339  4.50996  336  -1.1  100   -1.1  0     0     977.4    NA       0.0000   UP       BR    9999  0    
2019/07/17  06:42:00  BASE  3.88668  338  4.50996  336  -1.1  100   -1.1  0     0     977.4    NA       0.0000   UP       BR    9000  0    
2019/07/17  06:43:00  BASE  4.05132  340  4.50996  336  -1.1  100   -1.1  0     0     977.4    NA       0.0000   UP       BR    9000  0    
2019/07/17  06:44:01  BASE  4.0278   339  4.50996  336  -1.1  100   -1.1  0     0     977.4    NA       0.0000   UP       BR    8000  0    
2019/07/17  06:45:00  BASE  3.9396   338  4.50996  336  -1.1  100   -1.1  0     0     977.4    NA       0.0000   UP       BR    8000  0    
2019/07/17  06:46:00  BASE  4.02192  342  4.65696  337  -1.1  100   -1.1  0     0     977.4    NA       0.0000   UP       BR    8000  0    
2019/07/17  06:47:00  BASE  3.8808   346  4.65696  337  -1.1  100   -1.1  0     0     977.4    NA       0.0000   UP       BR    8000  0    
2019/07/17  06:48:00  BASE  3.381    345  4.65696  337  -1.1  100   -1.1  0     0     977.6    NA       0.0000   UP       BR    8000  0    
2019/07/17  06:49:00  BASE  3.0282   343  4.65696  337  -1.1  100   -1.1  0     0     977.6    NA       0.0000   UP       BR    8000  0    
2019/07/17  06:50:00  BASE  3.31632  344  4.65696  337  -1.1  100   -1.1  0     0     977.6    NA       0.0000   UP       BR    8000  0    
2019/07/17  06:51:01  BASE  3.71028  341  4.65696  337  -1.1  100   -1.1  0     0     977.6    NA       0.0000   UP       BR    8000  0    
2019/07/17  06:52:00  BASE  3.59856  342  4.65696  337  -1.1  100   -1.1  0     0     977.6    NA       0.0000   UP       BR    9000  0    
2019/07/17  06:53:00  BASE  3.38688  344  4.65696  337  -1.1  100   -1.1  0     0     977.5    NA       0.0000   UP       BR    8000  0    
2019/07/17  06:54:00  BASE  3.35748  343  4.65696  337  -1.1  100   -1.1  0     0     977.5    NA       0.0000   UP       BR    8000  0    
2019/07/17  06:55:00  BASE  3.2634   341  4.65696  337  -1.1  100   -1.1  0     0     977.6    NA       0.0000   UP       BR    7000  0    
2019/07/17  06:56:00  BASE  3.37512  338  4.32768  333  -1.1  100   -1.1  0     0     977.6    NA       0.0000   UP       BR    6000  0    
2019/07/17  06:57:01  BASE  3.62208  340  4.32768  333  -1.1  100   -1.1  0     0     977.6    NA       0.0000   UP       BR    6000  0    
2019/07/17  06:58:01  BASE  3.63972  339  4.32768  333  -1.1  100   -1.1  0     0     977.6    NA       0.0000   -SN      BR    7000  0    
2019/07/17  06:59:00  BASE  3.31044  340  4.32768  333  -1.1  100   -1.1  0     0     977.7    NA       0.0000   -SN      BR    6000  0    
2019/07/17  07:00:00  BASE  3.15168  346  4.32768  333  -1.2  100   -1.2  0     0     977.7    NA       0.0000   -SN      BR    7000  0    
2019/07/17  07:01:00  BASE  3.31632  346  4.32768  333  -1.2  100   -1.2  0     0     977.7    NA       0.0000   -SN      BR    8000  0    
2019/07/17  07:02:00  BASE  3.26928  343  4.32768  333  -1.2  100   -1.2  0     0     977.7    NA       0.0000   -SN      BR    8000  0    
2019/07/17  07:03:00  BASE  3.21048  346  4.32768  333  -1.2  100   -1.2  0     0     977.7    NA       0.0000   -SN      BR    9999  0    
2019/07/17  07:04:00  BASE  3.28104  347  4.32768  333  -1.2  100   -1.2  0     0     977.7    NA       0.0000   -SN      BR    9999  0    
2019/07/17  07:05:00  BASE  3.68088  344  4.32768  333  -1.2  100   -1.2  0     0     977.7    NA       0.0000   -SN      BR    9999  0    
2019/07/17  07:06:00  BASE  4.0278   341  4.47468  332  -1.2  100   -1.2  0     0     977.7    NA       0.0000   -SN      BR    9999  0    
2019/07/17  07:07:00  BASE  3.96312  342  4.47468  332  -1.2  100   -1.2  0     0     977.7    NA       0.0000   -SN      BR    9999  0    
2019/07/17  07:08:00  BASE  3.84552  345  4.47468  332  -1.2  100   -1.2  0     0     977.7    NA       0.0000   -SN      BR    9999  0    
2019/07/17  07:09:00  BASE  3.8808   344  4.47468  332  -1.2  100   -1.2  0     0     977.7    NA       0.0000   -SN      BR    9999  0    
2019/07/17  07:10:00  BASE  3.89844  343  4.47468  332  -1.3  100   -1.3  0     0     977.7    NA       0.0000   -SN      BR    9999  0    
2019/07/17  07:11:01  BASE  4.02192  343  4.47468  332  -1.3  100   -1.3  0     0     977.7    NA       0.0000   -SN      9999  0     0    
2019/07/17  07:12:00  BASE  4.36884  344  4.80984  344  -1.3  100   -1.3  0     0     977.7    NA       0.0000   -SN      9999  0     0    
2019/07/17  07:13:00  BASE  4.5864   345  4.93332  346  -1.3  100   -1.3  0     0     977.7    NA       0.0000   -SN      9999  0     0    
2019/07/17  07:14:00  BASE  4.65108  345  5.145    347  -1.3  100   -1.3  0     0     977.7    NA       0.0000   -SN      9999  0     0    
2019/07/17  07:15:00  BASE  4.42176  343  5.145    347  -1.3  100   -1.3  0     0     977.7    NA       0.0000   -SN      9999  0     0    
2019/07/17  07:16:00  BASE  4.12188  342  5.145    347  -1.3  100   -1.3  0     0     977.8    NA       0.0000   -SN      9999  0     0    
2019/07/17  07:17:00  BASE  3.97488  344  5.145    347  -1.4  100   -1.4  0     0     977.8    NA       0.0000   -SN      9999  0     0    
2019/07/17  07:18:00  BASE  4.08072  341  5.145    347  -1.4  100   -1.4  0     0     977.8    NA       0.0000   -SN      9999  0     0    
2019/07/17  07:19:00  BASE  4.16304  339  5.145    347  -1.4  100   -1.4  0     0     977.8    NA       0.0000   -SN      9999  0     0    
2019/07/17  07:20:00  BASE  4.19244  341  5.145    347  -1.4  100   -1.4  0     0     977.8    NA       0.0000   -SN      9999  0     0    
2019/07/17  07:21:00  BASE  4.31592  340  5.145    347  -1.4  100   -1.4  0     0     977.8    NA       0.0000   -SN      9000  0     0    
2019/07/17  07:22:00  BASE  4.19832  340  5.145    347  -1.4  100   -1.4  0     0     977.8    NA       0.0000   -SN      9999  0     0    
2019/07/17  07:23:00  BASE  4.09836  339  5.145    347  -1.4  100   -1.4  0     0     977.8    NA       0.0000   -SN      9000  0     0    
2019/07/17  07:24:00  BASE  4.23948  339  4.96272  336  -1.3  100   -1.3  0     0     977.8    NA       0.0000   -SN      9999  0     0    
2019/07/17  07:25:00  BASE  4.9686   340  6.62676  332  -1.3  100   -1.3  0     0     977.8    NA       0.0000   -SN      9999  0     0    
2019/07/17  07:26:00  BASE  5.86824  339  7.2324   338  -1.3  100   -1.3  0     0     977.8    NA       0.0000   -SN      9999  0     0    
2019/07/17  07:27:00  BASE  6.2622   334  7.2324   338  -1.3  100   -1.3  0     0     977.8    NA       0.0000   -SN      9999  0     0    
2019/07/17  07:28:00  BASE  6.1152   331  7.2324   338  -1.3  100   -1.3  0     0     977.8    NA       0.0000   -SN      9999  0     0    
2019/07/17  07:29:00  BASE  5.99172  331  7.2324   338  -1.3  100   -1.3  0     0     977.8    NA       0.0000   -SN      9999  200   0    
2019/07/17  07:30:00  BASE  6.0564   331  7.2324   338  -1.3  100   -1.3  0     0     977.8    NA       0.0000   9999     0     0     0    
2019/07/17  07:31:00  BASE  5.95056  332  7.2324   338  -1.3  100   -1.3  0     0     977.8    NA       0.0000   9999     200   0     0    
2019/07/17  07:32:00  BASE  5.92704  334  7.2324   338  -1.3  100   -1.3  0     0     977.8    NA       0.0000   9999     0     0     0    
2019/07/17  07:33:00  BASE  5.93292  334  7.2324   338  -1.3  100   -1.3  0     0     977.9    NA       0.0000   9999     0     0     0    
2019/07/17  07:34:00  BASE  5.66832  332  7.2324   338  -1.3  100   -1.3  0     0     977.9    NA       0.0000   9999     200   0     0    
2019/07/17  07:35:00  BASE  5.42136  328  7.2324   338  -1.3  100   -1.3  0     0     977.9    NA       0.0000   9999     200   0     0    
2019/07/17  07:36:00  BASE  5.59188  326  6.74436  331  -1.3  100   -1.3  0     0     977.9    NA       0.0000   9999     200   0     0    
2019/07/17  07:37:00  BASE  6.13872  323  7.02072  316  -1.3  100   -1.3  0     0     977.8    NA       0.0000   9999     160   0     0    
2019/07/17  07:38:00  BASE  6.27984  319  7.19712  322  -1.3  100   -1.3  0     0     977.8    NA       0.0000   9999     160   0     0    
2019/07/17  07:39:00  BASE  6.53268  315  7.56168  317  -1.3  100   -1.3  0     0     977.8    NA       0.0000   9999     200   0     0    
2019/07/17  07:40:00  BASE  6.92076  314  7.59108  315  -1.3  100   -1.3  0     0     977.8    NA       0.0000   9999     230   1970  0    
2019/07/17  07:41:00  BASE  7.06776  312  8.2908   309  -1.3  100   -1.3  0     0     977.8    NA       0.0000   9999     330   0     0    
2019/07/17  07:42:00  BASE  7.45584  311  8.64948  310  -1.3  100   -1.3  0     0     977.8    NA       0.0000   9999     300   0     0    
2019/07/17  07:43:00  BASE  7.74396  313  8.64948  310  -1.3  100   -1.3  0     0     977.8    NA       0.0000   9999     360   0     0    
2019/07/17  07:44:00  BASE  7.7028   314  8.64948  310  -1.4  100   -1.4  0     0     977.8    NA       0.0000   9999     300   0     0    
2019/07/17  07:45:00  BASE  8.06736  314  9.28452  315  -1.4  100   -1.4  0     0     977.8    NA       0.0000   9000     230   2260  0    
2019/07/17  07:46:00  BASE  8.38488  313  9.28452  315  -1.4  100   -1.4  0     0     977.8    NA       0.0000   9000     260   2360  0    
2019/07/17  07:47:00  BASE  8.3202   312  9.28452  315  -1.4  100   -1.4  0     0     977.8    NA       0.0000   BR       9000  260   0    
2019/07/17  07:48:00  BASE  8.39076  311  9.28452  315  -1.4  100   -1.4  0     0     977.8    NA       0.0000   -SN      BR    9000  0    
2019/07/17  07:49:00  BASE  8.40252  312  9.28452  315  -1.5  100   -1.5  0     0     977.8    NA       0.0000   -SN      BR    5000  0    
2019/07/17  07:50:00  BASE  8.41428  310  9.28452  315  -1.5  100   -1.5  0     0     977.9    NA       0.0000   -SN      BR    4000  0    
2019/07/17  07:51:00  BASE  8.28492  307  9.31392  291  -1.5  100   -1.5  0     0     977.9    NA       0.0000   -SN      BR    4300  0    
2019/07/17  07:52:00  BASE  8.50248  305  9.77256  305  -1.5  100   -1.5  0     0     977.9    NA       0.0000   -SN      BR    3800  0    
2019/07/17  07:53:00  BASE  8.50248  301  9.77256  305  -1.5  100   -1.5  0     0     977.9    NA       0.0000   -SN      BR    3100  0    
2019/07/17  07:54:00  BASE  8.07912  301  9.77256  305  -1.5  100   -1.5  0     0     977.9    NA       0.0000   -SN      BR    3000  0    
2019/07/17  07:55:00  BASE  7.5558   303  9.77256  305  -1.6  100   -1.6  0     0     977.9    NA       0.0000   -SN      BR    3200  0    
2019/07/17  07:56:00  BASE  7.47348  303  9.77256  305  -1.6  100   -1.6  0     0     977.9    NA       0.0000   -SN      BR    3100  0    
2019/07/17  07:57:00  BASE  7.69692  303  9.77256  305  -1.6  100   -1.6  0     0     977.9    NA       0.0000   -SN      BR    3200  0    
2019/07/17  07:58:00  BASE  7.62636  303  9.77256  305  -1.6  100   -1.6  0     0     978.0    NA       0.0000   -SN      BR    3900  0    
2019/07/17  07:59:00  BASE  7.47348  304  9.77256  305  -1.6  100   -1.6  0     0     978.0    NA       0.0000   -SN      BR    3900  0    
2019/07/17  08:00:00  BASE  7.33824  304  9.77256  305  -1.6  100   -1.6  0     0     978.0    NA       0.0000   -SN      BR    3800  0    
2019/07/17  08:01:00  BASE  6.95016  305  9.77256  305  -1.6  100   -1.6  0     0     978.1    NA       0.0000   -SN      BR    3700  0    
2019/07/17  08:02:00  BASE  7.2324   309  8.77296  306  -1.6  100   -1.6  0     0     978.1    NA       0.0000   -SN      BR    3800  0    
2019/07/17  08:03:00  BASE  7.74984  309  8.64948  308  -1.7  100   -1.7  0     0     978.1    NA       0.0000   -SN      BR    4000  0    
2019/07/17  08:04:00  BASE  7.4382   309  8.64948  308  -1.7  100   -1.7  0     0     978.1    NA       0.0000   -SN      BR    3900  0    
2019/07/17  08:05:00  BASE  7.3794   309  8.64948  308  -1.7  100   -1.7  0     0     978.1    NA       0.0000   -SN      BR    3700  0    
2019/07/17  08:06:00  BASE  7.03836  310  8.64948  308  -1.7  100   -1.7  0     0     978.1    NA       0.0000   -SN      BR    3700  0    
2019/07/17  08:07:00  BASE  6.8796   311  8.64948  308  -1.7  100   -1.7  0     0     978.1    NA       0.0000   -SN      BR    3800  0    
2019/07/17  08:08:00  BASE  7.13244  310  8.64948  308  -1.7  100   -1.7  0     0     978.1    NA       0.0000   -SN      BR    3500  0    
2019/07/17  08:09:00  BASE  7.06776  310  8.64948  308  -1.7  100   -1.7  0     0     978.2    NA       0.0000   -SN      BR    3500  0    
2019/07/17  08:10:00  BASE  6.86196  311  8.64948  308  -1.7  100   -1.7  0     0     978.2    NA       0.0000   -SN      BR    3900  0    
2019/07/17  08:11:00  BASE  6.8502   312  8.64948  308  -1.7  100   -1.7  0     0     978.2    NA       0.0000   -SN      BR    4200  0    
2019/07/17  08:12:00  BASE  7.1148   313  8.19672  304  -1.7  100   -1.7  0     0     978.2    NA       0.0000   -SN      BR    4400  0    
2019/07/17  08:13:00  BASE  6.94428  316  8.19672  304  -1.7  100   -1.7  0     0     978.2    NA       0.0000   -SN      BR    5000  0    
2019/07/17  08:14:00  BASE  6.45036  319  8.19672  304  -1.7  100   -1.7  0     0     978.3    NA       0.0000   -SN      BR    5000  0    
2019/07/17  08:15:00  BASE  6.45624  319  8.19672  304  -1.7  100   -1.7  0     0     978.2    NA       0.0000   -SN      BR    5000  0    
2019/07/17  08:16:00  BASE  6.82668  318  8.19672  304  -1.7  100   -1.7  0     0     978.2    NA       0.0000   -SN      BR    5000  0    
2019/07/17  08:17:00  BASE  7.00308  317  8.19672  304  -1.7  100   -1.7  0     0     978.2    NA       0.0000   -SN      BR    5000  0    
2019/07/17  08:18:00  BASE  7.06188  315  8.19672  304  -1.7  100   -1.7  0     0     978.3    NA       0.0000   -SN      BR    5000  0    
2019/07/17  08:19:00  BASE  6.87372  316  8.19672  304  -1.8  100   -1.8  0     0     978.3    NA       0.0000   -SN      BR    5000  0    
2019/07/17  08:20:00  BASE  6.43272  318  8.13792  312  -1.8  100   -1.8  0     0     978.3    NA       0.0000   -SN      BR    5000  0    
2019/07/17  08:21:00  BASE  6.26808  320  7.92624  321  -1.8  100   -1.8  0     0     978.3    NA       0.0000   -SN      BR    5000  0    
2019/07/17  08:22:00  BASE  6.69144  320  8.10852  318  -1.8  100   -1.8  0     0     978.2    NA       0.0000   -SN      BR    5000  0    
2019/07/17  08:23:00  BASE  7.1148   319  8.10852  318  -1.8  100   -1.8  0     0     978.3    NA       0.0000   -SN      BR    4900  0    
2019/07/17  08:24:00  BASE  6.88548  319  8.10852  318  -1.8  100   -1.8  0     0     978.3    NA       0.0000   -SN      BR    4800  0    
2019/07/17  08:25:00  BASE  6.44448  321  8.10852  318  -1.8  100   -1.8  0     0     978.3    NA       0.0000   BR       4700  0     0    
2019/07/17  08:26:00  BASE  6.37392  322  8.10852  318  -1.8  100   -1.8  0     0     978.3    NA       0.0000   BR       4600  0     0    
2019/07/17  08:27:00  BASE  6.48564  322  8.10852  318  -1.8  100   -1.8  0     0     978.4    NA       0.0000   BR       4500  0     0    
2019/07/17  08:28:00  BASE  6.45624  323  8.10852  318  -1.8  100   -1.8  0     0     978.4    NA       0.0000   BR       4500  0     0    
2019/07/17  08:29:00  BASE  6.24456  324  8.10852  318  -1.8  100   -1.8  0     0     978.4    NA       0.0000   BR       4400  0     0    
2019/07/17  08:30:00  BASE  5.91528  322  8.10852  318  -1.8  100   -1.8  0     0     978.4    NA       0.0000   BR       4400  0     0    
2019/07/17  08:31:00  BASE  5.82708  323  8.10852  318  -1.8  100   -1.8  0     0     978.4    NA       0.0000   BR       4300  0     0    
2019/07/17  08:32:00  BASE  6.03288  326  7.50288  319  -1.8  100   -1.8  0     0     978.5    NA       0.0000   BR       4200  230   0    
2019/07/17  08:33:00  BASE  5.84472  326  7.44408  323  -1.8  100   -1.8  0     0     978.5    NA       0.0000   BR       4200  260   0    
2019/07/17  08:34:00  BASE  5.50368  325  7.05012  329  -1.8  100   -1.8  0     0     978.5    NA       0.0000   BR       4100  260   0    
2019/07/17  08:35:00  BASE  5.80356  324  7.02072  318  -1.8  100   -1.8  0     0     978.5    NA       0.0000   BR       4000  230   0    
2019/07/17  08:36:00  BASE  6.24456  324  7.02072  318  -1.8  100   -1.8  0     0     978.5    NA       0.0000   BR       4000  0     0    
2019/07/17  08:37:00  BASE  6.4386   323  7.02072  325  -1.8  100   -1.8  0     0     978.5    NA       0.0000   BR       4000  0     0    
2019/07/17  08:38:00  BASE  6.19164  323  7.02072  325  -1.8  100   -1.8  0     0     978.5    NA       0.0000   BR       3900  0     0    
2019/07/17  08:39:00  BASE  6.13284  321  7.02072  325  -1.8  100   -1.8  0     0     978.5    NA       0.0000   BR       3900  230   0    
2019/07/17  08:40:00  BASE  6.2622   319  7.02072  325  -1.8  100   -1.8  0     0     978.5    NA       0.0000   BR       3800  260   0    
2019/07/17  08:41:00  BASE  6.3798   318  7.16772  313  -1.8  100   -1.8  0     0     978.6    NA       0.0000   BR       3800  300   0    
2019/07/17  08:42:00  BASE  6.4092   317  7.16772  313  -1.8  100   -1.8  0     0     978.5    NA       0.0000   BR       3800  260   0    
2019/07/17  08:43:00  BASE  6.43272  317  7.16772  313  -1.8  100   -1.8  0     0     978.6    NA       0.0000   BR       3700  260   0    
2019/07/17  08:44:00  BASE  6.8796   317  7.74396  322  -1.8  100   -1.8  0     0     978.5    NA       0.0000   BR       3700  260   0    
2019/07/17  08:45:00  BASE  6.95016  317  7.74396  322  -1.8  100   -1.8  0     0     978.5    NA       0.0000   BR       3700  260   1350 
2019/07/17  08:46:01  BASE  6.9384   316  7.74396  322  -1.8  100   -1.8  0     0     978.5    NA       0.0000   BR       3600  260   0    
2019/07/17  08:47:00  BASE  6.74436  316  7.74396  322  -1.8  100   -1.8  0     0     978.5    NA       0.0000   BR       3600  300   1870 
2019/07/17  08:48:00  BASE  6.50328  316  7.74396  322  -1.8  100   -1.8  0     0     978.6    NA       0.0000   BR       3600  300   1900 
2019/07/17  08:49:00  BASE  6.60912  317  7.74396  322  -1.8  100   -1.8  0     0     978.6    NA       0.0000   BR       3500  260   1870 
2019/07/17  08:50:00  BASE  6.53268  315  7.74396  322  -1.8  100   -1.8  0     0     978.6    NA       0.0000   BR       3500  260   1020 
2019/07/17  08:51:00  BASE  6.39156  314  7.74396  322  -1.8  100   -1.8  0     0     978.6    NA       0.0000   BR       3500  230   1180 
2019/07/17  08:52:00  BASE  6.50328  313  7.74396  322  -1.8  100   -1.8  0     0     978.6    NA       0.0000   BR       3500  200   1480 
2019/07/17  08:53:00  BASE  6.44448  312  7.74396  322  -1.8  100   -1.8  0     0     978.6    NA       0.0000   BR       3400  230   1640 
2019/07/17  08:54:00  BASE  6.07404  313  7.59108  318  -1.8  100   -1.8  0     0     978.6    NA       0.0000   BR       3400  230   1540 
2019/07/17  08:55:00  BASE  5.92116  314  7.59108  318  -1.8  100   -1.8  0     0     978.6    NA       0.0000   BR       3400  200   0    
2019/07/17  08:56:00  BASE  5.63892  313  7.44408  312  -1.8  100   -1.8  0     0     978.7    NA       0.0000   BR       3400  0     0    
2019/07/17  08:57:00  BASE  5.66244  312  7.13832  315  -1.8  100   -1.8  0     0     978.6    NA       0.0000   BR       3300  0     0    
2019/07/17  08:58:00  BASE  5.78592  313  6.98544  314  -1.8  100   -1.8  0     0     978.7    NA       0.0000   BR       3300  0     0    
2019/07/17  08:59:00  BASE  6.19752  315  7.77336  315  -1.8  100   -1.8  0     0     978.6    NA       0.0000   BR       3300  0     0    
2019/07/17  09:00:00  BASE  7.0266   318  7.95564  319  -1.8  100   -1.8  0     0     978.6    NA       0.0000   BR       3300  0     0    
2019/07/17  09:01:00  BASE  7.20888  320  7.95564  319  -1.9  100   -1.9  0     0     978.6    NA       0.0000   BR       3300  230   0    
2019/07/17  09:02:00  BASE  6.97368  319  7.95564  319  -1.9  100   -1.9  0     0     978.6    NA       0.0000   BR       3200  260   1710 
2019/07/17  09:03:00  BASE  6.56796  319  7.95564  319  -2.0  100   -2.0  0     0     978.6    NA       0.0000   BR       3200  260   1740 
2019/07/17  09:04:00  BASE  6.2916   321  7.95564  319  -2.0  100   -2.0  0     0     978.7    NA       0.0000   BR       3200  260   1770 
2019/07/17  09:05:00  BASE  6.36216  324  7.95564  319  -2.0  100   -2.0  0     0     978.7    NA       0.0000   BR       3200  260   1800 
2019/07/17  09:06:00  BASE  6.43272  325  7.95564  319  -2.0  100   -2.0  0     0     978.7    NA       0.0000   BR       3200  260   1840 
2019/07/17  09:07:00  BASE  6.13284  326  7.95564  319  -2.0  100   -2.0  0     0     978.7    NA       0.0000   BR       3200  300   2130 
2019/07/17  09:08:00  BASE  5.8506   326  7.95564  319  -2.0  100   -2.0  0     0     978.7    NA       0.0000   BR       3200  300   2100 
2019/07/17  09:09:00  BASE  6.10344  326  7.95564  319  -2.0  100   -2.0  0     0     978.7    NA       0.0000   BR       3200  330   2070 
2019/07/17  09:10:00  BASE  6.27984  326  7.56168  322  -2.0  100   -2.0  0     0     978.8    NA       0.0000   BR       3100  360   1710 
2019/07/17  09:11:00  BASE  5.85648  327  7.4088   317  -2.0  100   -2.0  0     0     978.8    NA       0.0000   BR       3100  360   1640 
2019/07/17  09:12:00  BASE  5.75064  327  6.95604  320  -2.0  100   -2.0  0     0     978.8    NA       0.0000   BR       3100  360   1670 
2019/07/17  09:13:00  BASE  5.82708  326  6.95604  320  -2.0  100   -2.0  0     0     978.9    NA       0.0000   BR       3100  330   1710 
2019/07/17  09:14:00  BASE  5.54484  326  6.95604  320  -2.0  100   -2.0  0     0     978.9    NA       0.0000   BR       3100  330   1670 
2019/07/17  09:15:00  BASE  5.48016  324  6.92664  324  -2.0  100   -2.0  0     0     978.9    NA       0.0000   BR       3100  360   1770 
2019/07/17  09:16:00  BASE  5.47428  324  6.92664  324  -1.9  100   -1.9  0     0     978.9    NA       0.0000   BR       3100  330   1840 
2019/07/17  09:17:00  BASE  5.53896  325  6.92664  324  -1.9  100   -1.9  0     0     978.9    NA       0.0000   UP       BR    3100  360  
2019/07/17  09:18:00  BASE  5.733    324  6.92664  324  -1.9  100   -1.9  0     0     978.9    NA       0.0000   UP       BR    4100  330  
2019/07/17  09:19:00  BASE  6.03876  321  6.86784  325  -1.9  100   -1.9  0     0     978.9    NA       0.0000   UP       BR    8000  330  
2019/07/17  09:20:00  BASE  5.93292  319  6.65616  323  -1.9  100   -1.9  0     0     979.0    NA       0.0000   UP       BR    8000  360  
2019/07/17  09:21:00  BASE  5.63892  322  6.65616  323  -1.9  100   -1.9  0     0     979.0    NA       0.0000   UP       BR    9000  360  
2019/07/17  09:22:00  BASE  5.95644  322  6.65616  323  -1.9  100   -1.9  0     0     979.0    NA       0.0000   UP       BR    9000  390  
2019/07/17  09:23:00  BASE  6.09756  320  6.65616  323  -1.9  100   -1.9  0     0     979.0    NA       0.0000   UP       BR    9000  430  
2019/07/17  09:24:00  BASE  5.586    322  6.65616  323  -2.0  100   -2.0  0     0     979.0    NA       0.0000   UP       BR    9999  490  
2019/07/17  09:25:00  BASE  5.439    322  6.65616  323  -2.0  100   -2.0  0     0     979.0    NA       0.0000   UP       BR    9999  520  
2019/07/17  09:26:00  BASE  5.59188  321  6.65616  323  -2.0  100   -2.0  0     0     979.0    NA       0.0000   UP       BR    9999  490  
2019/07/17  09:27:00  BASE  5.68596  320  6.65616  323  -2.0  100   -2.0  0     0     979.0    NA       0.0000   UP       BR    9999  520  
2019/07/17  09:28:00  BASE  5.6448   315  6.65616  323  -2.0  100   -2.0  0     0     979.0    NA       0.0000   UP       9999  430   1180 
2019/07/17  09:29:00  BASE  5.1744   315  6.53268  316  -2.0  100   -2.0  0     0     979.0    NA       0.0000   9999     460   1180  0    
2019/07/17  09:30:00  BASE  5.16264  319  6.53268  316  -2.0  100   -2.0  0     0     979.0    NA       0.0000   9999     490   1120  0    
2019/07/17  09:31:00  BASE  5.75064  319  6.65616  315  -2.0  100   -2.0  0     0     979.0    NA       0.0000   9999     1670  0     0    
2019/07/17  09:32:00  BASE  5.86824  318  6.65616  315  -2.0  100   -2.0  0     0     979.0    NA       0.0000   9999     490   1050  0    
2019/07/17  09:33:00  BASE  5.45664  320  6.65616  315  -2.0  100   -2.0  0     0     979.1    NA       0.0000   9999     980   1610  0    
2019/07/17  09:34:00  BASE  5.54484  321  6.65616  315  -2.0  100   -2.0  0     0     979.0    NA       0.0000   9999     1050  0     0    
2019/07/17  09:35:00  BASE  5.4978   320  6.65616  315  -2.0  100   -2.0  0     0     979.1    NA       0.0000   9999     1120  0     0    
2019/07/17  09:36:00  BASE  5.45664  322  6.65616  315  -2.0  100   -2.0  0     0     979.0    NA       0.0000   9999     490   1350  0    
2019/07/17  09:37:00  BASE  5.68596  320  6.65616  315  -2.0  100   -2.0  0     0     979.1    NA       0.0000   9999     520   0     0    
2019/07/17  09:38:00  BASE  5.57424  317  6.65616  315  -2.0  100   -2.0  0     0     979.1    NA       0.0000   9999     460   1080  0    
2019/07/17  09:39:00  BASE  5.13324  318  6.65616  315  -2.0  100   -2.0  0     0     979.1    NA       0.0000   9999     980   0     0    
2019/07/17  09:40:00  BASE  4.998    317  6.65616  315  -2.0  100   -2.0  0     0     979.1    NA       0.0000   9999     590   0     0    
2019/07/17  09:41:00  BASE  5.60364  315  6.74436  307  -2.0  100   -2.0  0     0     979.1    NA       0.0000   9999     590   0     0    
2019/07/17  09:42:00  BASE  5.99172  314  6.74436  307  -1.9  100   -1.9  0     0     979.1    NA       0.0000   9999     460   0     0    
2019/07/17  09:43:00  BASE  6.0564   311  6.74436  307  -1.9  100   -1.9  0     0     979.1    NA       0.0000   9999     430   0     0    
2019/07/17  09:44:00  BASE  6.12696  310  7.05012  313  -1.9  100   -1.9  0     0     979.1    NA       0.0000   9999     430   0     0    
2019/07/17  09:45:00  BASE  6.57972  310  7.3794   309  -1.9  100   -1.9  0     0     979.1    NA       0.0000   9999     460   0     0    
2019/07/17  09:46:00  BASE  7.06776  312  7.56168  307  -1.9  100   -1.9  0     0     979.1    NA       0.0000   9999     390   0     0    
2019/07/17  09:47:00  BASE  6.94428  310  7.56168  307  -1.9  100   -1.9  0     0     979.1    NA       0.0000   9999     430   0     0    
2019/07/17  09:48:00  BASE  6.93252  307  7.56168  307  -1.9  100   -1.9  0     0     979.1    NA       0.0000   9999     460   1310  0    
2019/07/17  09:49:00  BASE  6.87372  306  7.56168  307  -2.0  100   -2.0  0     0     979.2    NA       0.0000   9999     490   0     0    
2019/07/17  09:50:00  BASE  6.468    304  7.56168  307  -2.0  100   -2.0  0     0     979.1    NA       0.0000   9999     430   0     0    
2019/07/17  09:51:00  BASE  6.34452  303  7.56168  307  -2.0  100   -2.0  0     0     979.1    NA       0.0000   9999     430   0     0    
2019/07/17  09:52:00  BASE  6.1446   305  7.56168  307  -2.0  100   -2.0  0     0     979.1    NA       0.0000   9999     460   0     0    
2019/07/17  09:53:00  BASE  5.9682   307  7.56168  307  -2.0  100   -2.0  0     0     979.1    NA       0.0000   9999     460   0     0    
2019/07/17  09:54:00  BASE  6.13284  308  7.56168  307  -2.0  100   -2.0  0     0     979.1    NA       0.0000   9999     460   0     0    
2019/07/17  09:55:00  BASE  6.07404  308  7.56168  307  -2.0  100   -2.0  0     0     979.2    NA       0.0000   9999     430   0     0    
2019/07/17  09:56:00  BASE  5.95056  307  7.50288  310  -2.0  100   -2.0  0     0     979.2    NA       0.0000   9999     460   0     0    
2019/07/17  09:57:00  BASE  6.12696  308  7.50288  310  -2.0  100   -2.0  0     0     979.2    NA       0.0000   9999     430   0     0    
2019/07/17  09:58:00  BASE  6.47388  308  7.07952  310  -2.0  100   -2.0  0     0     979.2    NA       0.0000   9999     460   0     0    
2019/07/17  09:59:00  BASE  6.45624  305  7.07952  310  -2.0  100   -2.0  0     0     979.2    NA       0.0000   9999     430   0     0    
2019/07/17  10:00:00  BASE  6.46212  305  7.2324   310  -2.0  100   -2.0  0     0     979.2    NA       0.0000   9999     430   0     0    
2019/07/17  10:01:00  BASE  6.762    306  7.2324   310  -2.0  100   -2.0  0     0     979.2    NA       0.0000   9999     520   1350  0    
2019/07/17  10:02:00  BASE  6.74436  307  7.2324   310  -2.0  100   -2.0  0     0     979.2    NA       0.0000   9999     460   0     0    
2019/07/17  10:03:00  BASE  6.77376  308  7.2324   310  -2.0  100   -2.0  0     0     979.2    NA       0.0000   9999     390   0     0    
2019/07/17  10:04:00  BASE  6.91488  307  7.2324   310  -2.0  100   -2.0  0     0     979.2    NA       0.0000   9999     430   0     0    
2019/07/17  10:05:00  BASE  6.63264  307  7.2324   310  -2.0  100   -2.0  0     0     979.2    NA       0.0000   9999     430   0     0    
2019/07/17  10:06:00  BASE  6.37392  308  7.2324   310  -2.0  100   -2.0  0     0     979.2    NA       0.0000   9999     430   0     0    
2019/07/17  10:07:00  BASE  6.18576  307  7.2324   310  -2.0  100   -2.0  0     0     979.2    NA       0.0000   9999     460   0     0    
2019/07/17  10:08:00  BASE  5.63892  307  7.2324   310  -2.0  100   -2.0  0     0     979.3    NA       0.0000   9999     430   0     0    
2019/07/17  10:09:00  BASE  5.56248  307  7.2324   310  -2.0  100   -2.0  0     0     979.3    NA       0.0000   9999     430   0     0    
2019/07/17  10:10:00  BASE  6.0858   308  7.19712  310  -2.0  100   -2.0  0     0     979.3    NA       0.0000   9999     430   0     0    
2019/07/17  10:11:00  BASE  6.56796  308  7.35     309  -2.0  100   -2.0  0     0     979.3    NA       0.0000   9999     430   0     0    
2019/07/17  10:12:00  BASE  6.53856  311  7.35     309  -2.0  100   -2.0  0     0     979.3    NA       0.0000   9999     490   1440  0    
2019/07/17  10:13:00  BASE  6.24456  311  7.35     309  -2.0  100   -2.0  0     0     979.3    NA       0.0000   9999     460   0     0    
2019/07/17  10:14:00  BASE  6.2328   311  7.35     309  -2.0  100   -2.0  0     0     979.3    NA       0.0000   9999     490   0     0    
2019/07/17  10:15:00  BASE  6.24456  312  7.35     309  -2.0  100   -2.0  0     0     979.4    NA       0.0000   9999     460   0     0    
2019/07/17  10:16:00  BASE  6.36804  312  7.35     309  -2.0  100   -2.0  0     0     979.4    NA       0.0000   9999     430   0     0    
2019/07/17  10:17:00  BASE  6.4386   309  7.35     309  -2.0  100   -2.0  0     0     979.5    NA       0.0000   9999     390   0     0    
2019/07/17  10:18:00  BASE  6.31512  307  7.35     309  -2.0  100   -2.0  0     0     979.5    NA       0.0000   9999     430   0     0    
2019/07/17  10:19:00  BASE  6.16224  309  7.35     309  -2.0  100   -2.0  0     0     979.5    NA       0.0000   9999     430   0     0    
2019/07/17  10:20:00  BASE  5.91528  308  7.35     309  -2.0  100   -2.0  0     0     979.5    NA       0.0000   9999     430   0     0    
2019/07/17  10:21:00  BASE  6.13284  307  7.2912   313  -2.0  100   -2.0  0     0     979.5    NA       0.0000   9999     430   0     0    
2019/07/17  10:22:00  BASE  6.16224  308  7.2912   313  -2.0  100   -2.0  0     0     979.5    NA       0.0000   9999     390   0     0    
2019/07/17  10:23:00  BASE  6.02112  308  7.2912   313  -2.0  100   -2.0  0     0     979.5    NA       0.0000   9999     360   0     0    
2019/07/17  10:24:00  BASE  6.4386   309  7.2912   306  -2.0  100   -2.0  0     0     979.5    NA       0.0000   9999     490   0     0    
2019/07/17  10:25:00  BASE  6.87372  309  7.92624  314  -2.0  100   -2.0  0     0     979.5    NA       0.0000   9999     490   0     0    
2019/07/17  10:26:00  BASE  7.1442   310  8.4378   308  -2.0  100   -2.0  0     0     979.5    NA       0.0000   9999     560   0     0    
2019/07/17  10:27:00  BASE  7.34412  312  8.4378   308  -2.0  100   -2.0  0     0     979.5    NA       0.0000   9999     560   1350  0    
2019/07/17  10:28:00  BASE  7.203    313  8.4378   308  -2.0  100   -2.0  0     0     979.5    NA       0.0000   9999     790   0     0    
2019/07/17  10:29:00  BASE  6.75612  314  8.4378   308  -2.0  100   -2.0  0     0     979.6    NA       0.0000   9999     850   0     0    
2019/07/17  10:30:00  BASE  6.36216  313  8.4378   308  -2.0  100   -2.0  0     0     979.6    NA       0.0000   9999     590   0     0    
2019/07/17  10:31:00  BASE  6.10932  312  8.4378   308  -2.0  100   -2.0  0     0     979.6    NA       0.0000   9999     520   0     0    
2019/07/17  10:32:00  BASE  6.23868  313  8.4378   308  -2.0  100   -2.0  0     0     979.6    NA       0.0000   9999     560   1120  0    
2019/07/17  10:33:00  BASE  6.63264  315  8.4378   308  -2.0  100   -2.0  0     0     979.6    NA       0.0000   9999     820   0     0    
2019/07/17  10:34:00  BASE  6.69732  314  8.4378   308  -2.0  100   -2.0  0     0     979.6    NA       0.0000   9999     560   1380  0    
2019/07/17  10:35:00  BASE  6.174    314  8.4378   308  -2.0  100   -2.0  0     0     979.6    NA       0.0000   9999     460   1310  0    
2019/07/17  10:36:00  BASE  5.88588  315  8.07912  311  -2.0  100   -2.0  0     0     979.6    NA       0.0000   9999     460   1350  0    
2019/07/17  10:37:00  BASE  6.2622   313  7.47348  314  -2.0  100   -2.0  0     0     979.6    NA       0.0000   9999     460   0     0    
2019/07/17  10:38:00  BASE  6.39744  311  7.47348  314  -2.0  100   -2.0  0     0     979.6    NA       0.0000   9999     460   0     0    
2019/07/17  10:39:00  BASE  6.174    311  7.47348  314  -2.0  100   -2.0  0     0     979.6    NA       0.0000   9999     460   1150  0    
2019/07/17  10:40:00  BASE  6.06816  313  7.47348  314  -2.0  100   -2.0  0     0     979.6    NA       0.0000   9999     460   0     0    
2019/07/17  10:41:00  BASE  6.19752  316  7.47348  314  -2.0  100   -2.0  0     0     979.6    NA       0.0000   9999     590   0     0    
2019/07/17  10:42:00  BASE  6.468    318  7.47348  314  -2.0  100   -2.0  0     0     979.6    NA       0.0000   9999     560   0     0    
2019/07/17  10:43:00  BASE  6.68556  318  7.3206   318  -2.0  100   -2.0  0     0     979.6    NA       0.0000   9999     430   0     0    
2019/07/17  10:44:00  BASE  6.47976  316  7.3206   318  -2.0  100   -2.0  0     0     979.6    NA       0.0000   9999     390   0     0    
2019/07/17  10:45:00  BASE  6.12696  316  7.3206   318  -2.0  100   -2.0  0     0     979.6    NA       0.0000   9999     390   0     0    
2019/07/17  10:46:00  BASE  6.24456  318  7.3206   318  -2.0  100   -2.0  0     0     979.6    NA       0.0000   9999     390   0     0    
2019/07/17  10:47:00  BASE  6.69144  319  7.3794   316  -2.0  100   -2.0  0     0     979.6    NA       0.0000   9999     390   0     0    
2019/07/17  10:48:00  BASE  7.00896  317  7.3794   316  -2.0  100   -2.0  0     0     979.6    NA       0.0000   9999     330   0     0    
2019/07/17  10:49:00  BASE  7.0854   316  7.68516  318  -2.0  100   -2.0  0     0     979.6    NA       0.0000   9999     300   1120  0    
2019/07/17  10:50:00  BASE  7.203    316  7.68516  318  -2.0  100   -2.0  0     0     979.6    NA       0.0000   9999     300   1020  0    
2019/07/17  10:51:00  BASE  7.04424  317  7.68516  318  -2.0  100   -2.0  0     0     979.7    NA       0.0000   9000     230   1380  0    
2019/07/17  10:52:00  BASE  6.19164  318  7.68516  318  -2.0  100   -2.0  0     0     979.7    NA       0.0000   7000     230   1440  0    
2019/07/17  10:53:00  BASE  5.9388   317  7.68516  318  -2.0  100   -2.0  0     0     979.7    NA       0.0000   8000     260   1080  0    
2019/07/17  10:54:00  BASE  6.63852  316  7.68516  318  -2.0  100   -2.0  0     0     979.7    NA       0.0000   8000     920   0     0    
2019/07/17  10:55:00  BASE  6.89136  316  7.68516  318  -2.0  100   -2.0  0     0     979.7    NA       0.0000   7000     820   0     0    
2019/07/17  10:56:00  BASE  6.60912  318  7.68516  318  -2.0  100   -2.0  0     0     979.7    NA       0.0000   BR       8000  1480  0    
2019/07/17  10:57:00  BASE  6.21516  318  7.68516  318  -2.0  100   -2.0  0     0     979.8    NA       0.0000   BR       9999  1020  0    
2019/07/17  10:58:00  BASE  6.01524  319  7.68516  318  -2.0  100   -2.0  0     0     979.8    NA       0.0000   BR       9999  1150  0    
2019/07/17  10:59:00  BASE  6.07404  321  7.59108  315  -2.0  100   -2.0  0     0     979.8    NA       0.0000   BR       9999  1350  0    
2019/07/17  11:00:00  BASE  6.1446   319  7.3794   321  -2.0  100   -2.0  0     0     979.8    NA       0.0000   BR       9999  1310  2130 
2019/07/17  11:01:00  BASE  6.3798   320  7.53228  324  -2.0  100   -2.0  0     0     979.7    NA       0.0000   BR       9999  1150  0    
2019/07/17  11:02:00  BASE  6.87372  322  7.53228  324  -2.0  100   -2.0  0     0     979.8    NA       0.0000   9999     1150  0     0    
2019/07/17  11:03:00  BASE  6.89724  322  7.53228  324  -2.0  100   -2.0  0     0     979.8    NA       0.0000   9999     1210  0     0    
2019/07/17  11:04:00  BASE  6.468    323  7.53228  324  -2.0  100   -2.0  0     0     979.8    NA       0.0000   9999     1180  0     0    
2019/07/17  11:05:00  BASE  6.25044  324  7.53228  324  -2.1  100   -2.1  0     0     979.8    NA       0.0000   9999     1080  0     0    
2019/07/17  11:06:00  BASE  6.0564   324  7.53228  324  -2.1  100   -2.1  0     0     979.8    NA       0.0000   9999     980   2100  0    
2019/07/17  11:07:00  BASE  6.15048  320  7.53228  324  -2.1  100   -2.1  0     0     979.8    NA       0.0000   9999     1740  0     0    
2019/07/17  11:08:00  BASE  6.45624  319  7.53228  324  -2.1  100   -2.1  0     0     979.8    NA       0.0000   9999     1970  0     0    
2019/07/17  11:09:00  BASE  6.39156  322  7.53228  324  -2.0  100   -2.1  0     0     979.8    NA       0.0000   9999     1900  0     0    
2019/07/17  11:10:00  BASE  5.91528  322  7.53228  324  -2.0  100   -2.0  0     0     979.9    NA       0.0000   9999     1080  0     0    
2019/07/17  11:11:00  BASE  5.65068  320  7.47348  321  -2.0  100   -2.0  0     0     979.9    NA       0.0000   9999     1050  0     0    
2019/07/17  11:12:00  BASE  5.7918   321  6.98544  320  -2.0  100   -2.0  0     0     979.9    NA       0.0000   9999     950   0     0    
2019/07/17  11:13:00  BASE  5.78592  327  6.98544  320  -2.0  100   -2.0  0     0     979.9    NA       0.0000   9999     1020  2130  0    
2019/07/17  11:14:00  BASE  5.70948  329  6.98544  320  -2.0  100   -2.0  0     0     979.9    NA       0.0000   9999     950   0     0    
2019/07/17  11:15:00  BASE  5.72712  327  6.98544  320  -2.0  100   -2.0  0     0     979.9    NA       0.0000   9999     850   0     0    
2019/07/17  11:16:00  BASE  5.66832  326  6.98544  320  -2.0  100   -2.0  0     0     979.9    NA       0.0000   9999     920   0     0    
2019/07/17  11:17:00  BASE  5.53308  326  6.92664  329  -2.0  100   -2.0  0     0     979.9    NA       0.0000   9999     950   1970  0    
2019/07/17  11:18:00  BASE  5.49192  327  6.74436  324  -2.0  100   -2.0  0     0     979.9    NA       0.0000   9999     1210  1970  0    
2019/07/17  11:19:00  BASE  5.90352  328  6.65616  330  -2.0  100   -2.0  0     0     979.9    NA       0.0000   9999     1020  2070  0    
2019/07/17  11:20:00  BASE  6.20928  329  6.71496  326  -2.0  100   -2.0  0     0     979.9    NA       0.0000   9999     1210  0     0    
2019/07/17  11:21:00  BASE  6.00348  329  6.71496  326  -2.0  100   -2.0  0     0     979.9    NA       0.0000   9999     1280  0     0    
2019/07/17  11:22:00  BASE  5.69772  329  6.71496  326  -2.0  100   -2.0  0     0     979.9    NA       0.0000   9999     1310  2070  0    
2019/07/17  11:23:00  BASE  5.48604  335  6.71496  326  -2.0  100   -2.0  0     0     979.9    NA       0.0000   9999     1310  2030  0    
2019/07/17  11:24:00  BASE  5.89176  340  6.71496  326  -2.0  100   -2.0  0     0     979.9    NA       0.0000   9999     1310  2030  0    
2019/07/17  11:25:00  BASE  6.0858   339  6.71496  326  -2.0  100   -2.0  0     0     979.9    NA       0.0000   9999     1440  2130  0    
2019/07/17  11:26:00  BASE  5.58012  335  6.71496  326  -2.1  100   -2.1  0     0     979.9    NA       0.0000   9999     1350  0     0    
2019/07/17  11:27:00  BASE  5.42136  332  6.71496  326  -2.1  100   -2.1  0     0     979.9    NA       0.0000   9999     1350  2200  0    
2019/07/17  11:28:00  BASE  5.68596  333  6.71496  326  -2.1  100   -2.1  0     0     979.9    NA       0.0000   9999     1310  0     0    
2019/07/17  11:29:00  BASE  5.92704  335  6.71496  326  -2.1  100   -2.1  0     0     979.9    NA       0.0000   9999     1210  0     0    
2019/07/17  11:30:00  BASE  5.89764  333  6.59148  335  -2.1  100   -2.1  0     0     979.9    NA       0.0000   9999     1210  2230  0    
2019/07/17  11:31:00  BASE  5.87412  333  6.59148  335  -2.1  100   -2.1  0     0     979.9    NA       0.0000   9999     1310  2260  0    
2019/07/17  11:32:00  BASE  5.7918   336  6.59148  335  -2.1  100   -2.1  0     0     979.9    NA       0.0000   9999     1310  2260  0    
2019/07/17  11:33:00  BASE  5.69184  337  6.59148  335  -2.1  100   -2.1  0     0     979.9    NA       0.0000   9999     1250  2200  0    
2019/07/17  11:34:00  BASE  5.45076  338  6.47388  336  -2.1  100   -2.1  0     0     980.0    NA       0.0000   9999     1020  2200  0    
2019/07/17  11:35:00  BASE  5.73888  342  6.86784  347  -2.0  100   -2.0  0     0     979.9    NA       0.0000   9999     850   0     0    
2019/07/17  11:36:00  BASE  7.1148   344  8.3202   347  -2.0  100   -2.0  0     0     979.9    NA       0.0000   9999     2300  0     0    
2019/07/17  11:37:00  BASE  7.47348  343  8.3202   347  -2.0  100   -2.0  0     0     979.9    NA       0.0000   9999     430   0     0    
2019/07/17  11:38:00  BASE  6.87372  341  8.3202   347  -2.0  100   -2.0  0     0     979.9    NA       0.0000   9999     2360  0     0    
2019/07/17  11:39:00  BASE  6.69144  341  8.3202   347  -2.0  100   -2.0  0     0     979.9    NA       0.0000   9999     690   0     0    
2019/07/17  11:40:00  BASE  6.47976  342  8.3202   347  -2.0  100   -2.0  0     0     979.9    NA       0.0000   9999     820   1940  0    
2019/07/17  11:41:00  BASE  6.35628  342  8.3202   347  -2.0  100   -2.0  0     0     979.9    NA       0.0000   9999     820   1870  0    
2019/07/17  11:42:00  BASE  6.63264  343  8.3202   347  -2.0  100   -2.0  0     0     980.0    NA       0.0000   9999     720   1840  0    
2019/07/17  11:43:00  BASE  6.59148  343  8.3202   347  -2.0  100   -2.0  0     0     980.0    NA       0.0000   9999     520   1770  0    
2019/07/17  11:44:00  BASE  6.47976  344  8.3202   347  -2.0  100   -2.0  0     0     980.0    NA       0.0000   9999     560   0     0    
2019/07/17  11:45:00  BASE  6.40332  347  8.3202   347  -2.0  100   -2.0  0     0     980.0    NA       0.0000   9999     560   2590  0    
2019/07/17  11:46:00  BASE  6.45036  346  7.71456  343  -2.0  100   -2.0  0     0     980.0    NA       0.0000   9999     460   2590  0    
2019/07/17  11:47:00  BASE  6.47388  347  7.53228  341  -2.0  100   -2.0  0     0     980.1    NA       0.0000   9999     1640  2400  0    
2019/07/17  11:48:00  BASE  6.82668  349  7.74396  346  -2.0  100   -2.0  0     0     980.0    NA       0.0000   9999     1570  2530  0    
2019/07/17  11:49:00  BASE  6.95604  347  7.74396  346  -1.9  100   -1.9  0     0     980.1    NA       0.0000   9999     1570  2400  0    
2019/07/17  11:50:00  BASE  6.56796  347  7.74396  346  -1.9  100   -1.9  0     0     980.1    NA       0.0000   9999     1480  0     0    
2019/07/17  11:51:00  BASE  6.33276  345  7.74396  346  -1.9  100   -1.9  0     0     980.1    NA       0.0000   9999     1570  0     0    
2019/07/17  11:52:00  BASE  6.13284  341  7.74396  346  -1.9  100   -1.9  0     0     980.1    NA       0.0000   9999     1610  0     0    
2019/07/17  11:53:00  BASE  6.615    343  7.74396  346  -1.9  100   -1.9  0     0     980.1    NA       0.0000   9999     1640  0     0    
2019/07/17  11:54:00  BASE  6.79728  344  7.74396  346  -1.9  100   -1.9  0     0     980.1    NA       0.0000   9999     1640  0     0    
2019/07/17  11:55:00  BASE  6.66792  343  7.74396  346  -1.9  100   -1.9  0     0     980.1    NA       0.0000   9999     1570  0     0    
2019/07/17  11:56:00  BASE  6.65028  345  7.74396  346  -1.9  100   -1.9  0     0     980.1    NA       0.0000   9999     1540  0     0    
2019/07/17  11:57:00  BASE  6.42684  346  7.74396  346  -1.9  100   -1.9  0     0     980.1    NA       0.0000   9999     1570  0     0    
2019/07/17  11:58:00  BASE  6.5268   347  7.44408  348  -1.9  100   -1.9  0     0     980.1    NA       0.0000   9999     1510  0     0    
2019/07/17  11:59:00  BASE  6.66204  346  7.44408  348  -1.9  100   -1.9  0     0     980.1    NA       0.0000   9999     1610  0     0    
2019/07/17  12:00:00  BASE  6.2916   343  7.44408  348  -1.8  100   -1.8  0     0     980.1    NA       0.0000   9999     1610  0     0    
2019/07/17  12:01:00  BASE  6.45036  343  7.80276  343  -1.8  100   -1.8  0     0     980.1    NA       0.0000   9999     1570  0     0    
2019/07/17  12:02:00  BASE  6.615    343  7.80276  343  -1.8  100   -1.8  0     0     980.1    NA       0.0000   9999     1570  0     0    
2019/07/17  12:03:00  BASE  6.71496  343  7.80276  343  -1.8  100   -1.8  0     0     980.1    NA       0.0000   9999     1610  0     0    
2019/07/17  12:04:00  BASE  6.75024  342  7.80276  343  -1.8  100   -1.8  0     0     980.1    NA       0.0000   9999     1570  0     0    
2019/07/17  12:05:00  BASE  6.23868  345  7.80276  343  -1.8  100   -1.8  0     0     980.2    NA       0.0000   9999     1540  0     0    
2019/07/17  12:06:00  BASE  5.95056  347  7.80276  343  -1.8  100   -1.8  0     0     980.2    NA       0.0000   9999     1510  0     0    
2019/07/17  12:07:00  BASE  6.00936  348  7.80276  343  -1.8  100   -1.8  0     0     980.2    NA       0.0000   9999     1480  2690  0    
2019/07/17  12:08:00  BASE  6.28572  349  7.80276  343  -1.8  100   -1.8  0     0     980.1    NA       0.0000   9999     1570  2560  0    
2019/07/17  12:09:00  BASE  6.03876  348  7.80276  343  -1.8  100   -1.8  0     0     980.2    NA       0.0000   9999     1610  2330  0    
2019/07/17  12:10:00  BASE  5.69184  351  7.80276  343  -1.8  100   -1.8  0     0     980.2    NA       0.0000   9999     1540  2720  0    
2019/07/17  12:11:00  BASE  6.10344  351  7.50288  347  -1.8  100   -1.8  0     0     980.2    NA       0.0000   9999     2330  0     0    
2019/07/17  12:12:00  BASE  7.2618   348  8.53188  352  -1.8  100   -1.8  0     0     980.1    NA       0.0000   9999     2490  0     0    
2019/07/17  12:13:00  BASE  7.62636  347  8.53188  352  -1.8  100   -1.8  0     0     980.1    NA       0.0000   9999     1770  0     0    
2019/07/17  12:14:00  BASE  6.5856   346  8.53188  352  -1.8  100   -1.8  0     0     980.2    NA       0.0000   9999     2690  0     0    
2019/07/17  12:15:00  BASE  6.07992  346  8.53188  352  -1.8  100   -1.8  0     0     980.2    NA       0.0000   9999     2590  0     0    
2019/07/17  12:16:00  BASE  6.468    347  8.53188  352  -1.8  100   -1.8  0     0     980.2    NA       0.0000   9999     2590  0     0    
2019/07/17  12:17:00  BASE  6.2916   348  8.53188  352  -1.8  100   -1.8  0     0     980.2    NA       0.0000   9999     0     0     0    
2019/07/17  12:18:00  BASE  5.9388   351  8.53188  352  -1.8  100   -1.8  0     0     980.3    NA       0.0000   9999     2890  0     0    
2019/07/17  12:19:00  BASE  6.2916   356  8.53188  352  -1.8  100   -1.8  0     0     980.2    NA       0.0000   9999     0     0     0    
2019/07/17  12:20:00  BASE  6.60324  351  8.53188  352  -1.8  100   -1.8  0     0     980.2    NA       0.0000   9999     0     0     0    
2019/07/17  12:21:00  BASE  6.57972  345  8.53188  352  -1.8  100   -1.8  0     0     980.2    NA       0.0000   9999     0     0     0    
2019/07/17  12:22:00  BASE  6.33276  346  7.77336  349  -1.8  100   -1.8  0     0     980.2    NA       0.0000   9999     0     0     0    
2019/07/17  12:23:00  BASE  6.25632  350  7.4088   352  -1.8  100   -1.8  0     0     980.2    NA       0.0000   9999     0     0     0    
2019/07/17  12:24:00  BASE  6.65616  355  7.71456  360  -1.8  100   -1.8  0     0     980.2    NA       0.0000   9999     390   0     0    
2019/07/17  12:25:00  BASE  6.95604  349  7.71456  360  -1.8  100   -1.8  0     0     980.2    NA       0.0000   9999     330   0     0    
2019/07/17  12:26:00  BASE  6.39156  340  7.71456  360  -1.8  100   -1.8  0     0     980.3    NA       0.0000   9999     300   0     0    
2019/07/17  12:27:00  BASE  5.73888  339  7.71456  360  -1.8  100   -1.8  0     0     980.3    NA       0.0000   9999     300   0     0    
2019/07/17  12:28:00  BASE  5.6742   341  7.71456  360  -1.8  100   -1.8  0     0     980.3    NA       0.0000   9999     0     0     0    
2019/07/17  12:29:00  BASE  5.92116  343  7.71456  360  -1.8  100   -1.8  0     0     980.3    NA       0.0000   UP       9999  300   0    
2019/07/17  12:30:00  BASE  5.93292  343  7.71456  360  -1.8  100   -1.8  0     0     980.4    NA       0.0000   UP       9999  260   0    
2019/07/17  12:31:00  BASE  5.56836  344  7.71456  360  -1.8  100   -1.8  0     0     980.4    NA       0.0000   UP       9999  300   0    
2019/07/17  12:32:00  BASE  6.04464  349  7.71456  360  -1.8  100   -1.8  0     0     980.4    NA       0.0000   UP       9999  260   0    
2019/07/17  12:33:00  BASE  6.4092   352  7.71456  360  -1.8  100   -1.8  0     0     980.4    NA       0.0000   UP       9999  0     0    
2019/07/17  12:34:00  BASE  6.13872  349  7.59108  239  -1.9  100   -1.9  0     0     980.4    NA       0.0000   UP       9999  0     0    
2019/07/17  12:35:00  BASE  5.90352  345  6.89724  333  -1.9  100   -1.9  0     0     980.4    NA       0.0000   UP       9999  0     0    
2019/07/17  12:36:00  BASE  5.41548  347  6.89724  333  -1.9  100   -1.9  0     0     980.5    NA       0.0000   UP       9999  0     0    
2019/07/17  12:37:00  BASE  5.33904  350  6.86784  277  -1.9  100   -1.9  0     0     980.5    NA       0.0000   UP       9999  0     0    
2019/07/17  12:38:00  BASE  6.12696  351  7.3794   354  -1.9  100   -1.9  0     0     980.4    NA       0.0000   UP       9999  0     0    
2019/07/17  12:39:00  BASE  6.762    349  7.65576  354  -1.9  100   -1.9  0     0     980.4    NA       0.0000   UP       9999  0     0    
2019/07/17  12:40:00  BASE  7.2324   348  8.19672  353  -1.9  100   -1.9  0     0     980.4    NA       0.0000   UP       9999  0     0    
2019/07/17  12:41:00  BASE  7.44996  351  8.19672  353  -2.0  100   -2.0  0     0     980.4    NA       0.0000   UP       9999  820   0    
2019/07/17  12:42:00  BASE  7.3206   352  8.53188  352  -2.0  100   -2.0  0     0     980.5    NA       0.0000   UP       9999  0     0    
2019/07/17  12:43:00  BASE  7.18536  351  8.53188  352  -2.0  100   -2.0  0     0     980.5    NA       0.0000   UP       9999  0     0    
2019/07/17  12:44:00  BASE  7.22064  357  8.53188  354  -2.0  100   -2.0  0     0     980.5    NA       0.0000   UP       9999  0     0    
2019/07/17  12:45:00  BASE  7.3794   357  8.53188  354  -2.0  100   -2.0  0     0     980.5    NA       0.0000   UP       9999  0     0    
2019/07/17  12:46:00  BASE  7.62636  357  8.89056  360  -2.1  100   -2.1  0     0     980.5    NA       0.0000   UP       9999  0     0    
2019/07/17  12:47:00  BASE  8.17908  5    9.4374   14   -2.1  100   -2.1  0     0     980.4    NA       0.0000   UP       9999  0     0    
2019/07/17  12:48:00  BASE  8.62008  7    9.4374   14   -2.1  100   -2.1  0     0     980.4    NA       0.0000   UP       9999  0     0    
2019/07/17  12:49:00  BASE  8.60244  7    9.4374   14   -2.1  100   -2.1  0     0     980.4    NA       0.0000   UP       9999  0     0    
2019/07/17  12:50:00  BASE  8.56716  8    9.4374   14   -2.0  100   -2.0  0     0     980.5    NA       0.0000   9999     360   0     0    
2019/07/17  12:51:00  BASE  8.74356  9    9.4374   14   -2.0  100   -2.0  0     0     980.5    NA       0.0000   9999     390   0     0    
2019/07/17  12:52:00  BASE  8.50836  10   9.4374   14   -2.0  100   -2.0  0     0     980.5    NA       0.0000   UP       9999  0     0    
2019/07/17  12:53:00  BASE  8.01444  10   9.4374   14   -2.0  100   -2.0  0     0     980.5    NA       0.0000   UP       9999  390   0    
2019/07/17  12:54:00  BASE  8.04384  10   9.4374   14   -2.0  100   -2.0  0     0     980.5    NA       0.0000   UP       9999  390   0    
2019/07/17  12:55:00  BASE  8.24376  10   9.4374   14   -2.0  100   -2.0  0     0     980.5    NA       0.0000   UP       9999  390   2130 
2019/07/17  12:56:00  BASE  8.19084  9    9.4374   14   -2.0  100   -2.0  0     0     980.5    NA       0.0000   UP       9999  390   0    
2019/07/17  12:57:00  BASE  8.31432  9    9.3492   15   -2.0  100   -2.0  0     0     980.5    NA       0.0000   UP       9999  390   0    
2019/07/17  12:58:00  BASE  8.526    10   9.4962   14   -2.0  100   -2.0  0     0     980.5    NA       0.0000   UP       9999  390   0    
2019/07/17  12:59:00  BASE  8.6142   11   9.4962   14   -2.0  100   -2.0  0     0     980.6    NA       0.0000   UP       9999  1740  0    
2019/07/17  13:00:00  BASE  8.26728  11   9.4962   14   -2.0  100   -2.0  0     0     980.6    NA       0.0000   UP       9999  1770  0    
2019/07/17  13:01:00  BASE  7.88508  11   9.4962   14   -2.0  100   -2.0  0     0     980.6    NA       0.0000   9999     1800  3810  0    
2019/07/17  13:02:00  BASE  7.83804  11   9.4962   14   -2.0  100   -2.0  0     0     980.7    NA       0.0000   9999     1770  2330  0    
2019/07/17  13:03:00  BASE  8.21436  12   9.4962   14   -2.0  100   -2.0  0     0     980.7    NA       0.0000   9999     1800  3900  0    
2019/07/17  13:04:00  BASE  8.5554   12   9.4962   14   -2.0  100   -2.0  0     0     980.7    NA       0.0000   9999     1840  3870  0    
2019/07/17  13:05:00  BASE  8.45544  10   9.4962   14   -2.0  100   -2.0  0     0     980.7    NA       0.0000   9999     1870  2850  0    
2019/07/17  13:06:12  BASE  8.60244  10   9.4962   14   -2.0  100   -2.0  0     0     980.7    NA       0.0000   9999     1840  4070  0    
2019/07/17  13:07:00  BASE  8.50248  11   9.4962   14   -2.0  100   -2.0  0     0     980.7    NA       0.0000   9999     1570  0     0    
2019/07/17  13:08:00  BASE  8.43192  11   9.67848  10   -2.0  100   -2.0  0     0     980.7    NA       0.0000   9999     1150  1900  0    
2019/07/17  13:09:00  BASE  8.44956  11   9.67848  10   -2.0  100   -2.0  0     0     980.8    NA       0.0000   9999     1870  3900  0    
2019/07/17  13:10:00  BASE  8.39664  11   9.67848  10   -2.0  100   -2.0  0     0     980.8    NA       0.0000   9999     2070  3840  0    
2019/07/17  13:11:00  BASE  8.35548  11   9.67848  10   -2.0  100   -2.0  0     0     980.8    NA       0.0000   9999     790   3840  0    
2019/07/17  13:12:00  BASE  8.10264  11   9.67848  10   -2.0  100   -2.0  0     0     980.8    NA       0.0000   9999     690   2430  0    
2019/07/17  13:13:00  BASE  8.4378   11   9.67848  10   -2.0  100   -2.0  0     0     980.8    NA       0.0000   9999     790   2490  0    
2019/07/17  13:14:00  BASE  8.22612  12   9.67848  10   -2.0  100   -2.0  0     0     980.9    NA       0.0000   9999     1970  2620  0    
2019/07/17  13:15:00  BASE  8.13204  12   9.67848  10   -2.0  100   -2.0  0     0     980.8    NA       0.0000   9999     2100  3810  0    
2019/07/17  13:16:00  BASE  8.60832  12   9.67848  10   -2.0  100   -2.0  0     0     980.8    NA       0.0000   9999     1870  2890  0    
2019/07/17  13:17:00  BASE  8.4672   13   9.67848  10   -1.9  100   -1.9  1     0     980.9    NA       0.0000   9999     2000  2990  0    
2019/07/17  13:18:00  BASE  8.14968  12   9.3786   18   -1.9  100   -1.9  1     0     980.9    NA       0.0000   9999     2850  0     0    
2019/07/17  13:19:00  BASE  8.6142   12   9.86076  12   -1.9  100   -1.9  1     0     980.8    NA       0.0000   9999     2000  3840  0    
2019/07/17  13:20:00  BASE  8.98464  13   9.86076  12   -1.9  100   -1.9  1     0     980.9    NA       0.0000   9999     1970  3940  0    
2019/07/17  13:21:00  BASE  8.673    15   9.86076  12   -1.9  100   -1.9  1     0     980.9    NA       0.0000   9999     2170  3940  0    
2019/07/17  13:22:00  BASE  8.5554   16   9.86076  12   -1.9  100   -1.9  1     0     980.9    NA       0.0000   9999     2200  3940  0    
2019/07/17  13:23:00  BASE  8.47308  16   9.86076  12   -1.9  100   -1.9  1     0     980.9    NA       0.0000   9999     2330  0     0    
2019/07/17  13:24:00  BASE  8.25552  14   9.86076  12   -1.9  100   -1.9  1     0     980.9    NA       0.0000   9999     2230  0     0    
2019/07/17  13:25:00  BASE  8.379    14   9.86076  12   -1.9  100   -1.9  1     0     980.9    NA       0.0000   9999     3900  0     0    
2019/07/17  13:26:00  BASE  8.96112  15   10.1665  14   -1.9  100   -1.9  1     0     980.8    NA       0.0000   9999     3900  0     0    
2019/07/17  13:27:00  BASE  9.28452  15   10.2841  20   -1.9  100   -1.9  1     0     980.9    NA       0.0000   9999     3940  0     0    
2019/07/17  13:28:00  BASE  9.48444  16   10.8604  18   -1.9  100   -1.9  1     0     980.9    NA       0.0000   9999     3940  0     0    
2019/07/17  13:29:00  BASE  8.83176  15   10.8604  18   -1.9  100   -1.9  1     0     980.9    NA       0.0000   9999     3940  0     0    
2019/07/17  13:30:00  BASE  8.43192  13   10.8604  18   -1.9  100   -1.9  1     0     980.9    NA       0.0000   9999     3970  0     0    
2019/07/17  13:31:00  BASE  8.92584  14   10.8604  18   -1.9  100   -1.9  1     0     980.9    NA       0.0000   9999     3970  0     0    
2019/07/17  13:32:00  BASE  9.28452  18   10.8604  18   -1.9  100   -1.9  1     0     980.9    NA       0.0000   9999     3970  0     0    
2019/07/17  13:33:00  BASE  9.46092  19   10.8604  18   -1.9  100   -1.9  1     0     980.9    NA       0.0000   9999     3900  0     0    
2019/07/17  13:34:00  BASE  9.30804  18   10.8604  18   -1.9  100   -1.9  1     0     981.0    NA       0.0000   9999     3900  0     0    
2019/07/17  13:35:00  BASE  9.06108  18   10.8604  18   -1.9  100   -1.9  1     0     981.0    NA       0.0000   9999     3810  0     0    
2019/07/17  13:36:00  BASE  9.21984  17   10.8604  18   -1.9  100   -1.9  1     0     981.0    NA       0.0000   9999     3810  0     0    
2019/07/17  13:37:00  BASE  9.4668   17   10.8604  18   -1.9  100   -1.9  2     0     981.0    NA       0.0000   9999     3940  0     0    
2019/07/17  13:38:00  BASE  9.60792  18   10.8016  18   -1.9  100   -1.9  2     0     981.0    NA       0.0000   9999     3970  0     0    
2019/07/17  13:39:00  BASE  9.54324  17   10.8016  18   -1.8  100   -1.8  2     0     981.0    NA       0.0000   9999     4000  0     0    
2019/07/17  13:40:00  BASE  9.10812  16   10.8016  18   -1.8  100   -1.8  2     0     981.0    NA       0.0000   9999     2430  0     0    
2019/07/17  13:41:00  BASE  9.10224  18   10.8016  18   -1.8  100   -1.8  2     0     981.0    NA       0.0000   9999     2200  3970  0    
2019/07/17  13:42:00  BASE  9.26688  18   10.8016  18   -1.8  100   -1.8  2     0     981.0    NA       0.0000   9999     2330  3970  0    
2019/07/17  13:43:00  BASE  9.48444  18   10.8016  18   -1.8  100   -1.8  2     0     981.0    NA       0.0000   9999     2260  3970  0    
2019/07/17  13:44:00  BASE  9.66672  17   10.8016  18   -1.8  100   -1.8  2     0     981.1    NA       0.0000   9999     2230  3940  0    
2019/07/17  13:45:00  BASE  9.54324  18   10.8016  18   -1.8  100   -1.8  2     0     981.1    NA       0.0000   9999     4000  0     0    
2019/07/17  13:46:00  BASE  9.82548  20   10.9486  19   -1.8  100   -1.8  2     0     981.1    NA       0.0000   9999     4000  0     0    
2019/07/17  13:47:00  BASE  10.0489  20   10.9486  19   -1.8  100   -1.8  2     0     981.1    NA       0.0000   9999     2460  0     0    
2019/07/17  13:48:00  BASE  9.72552  22   10.9486  19   -1.8  100   -1.8  2     0     981.1    NA       0.0000   9999     3220  0     0    
2019/07/17  13:49:00  BASE  9.36096  23   10.9486  19   -1.9  100   -1.9  2     0     981.0    NA       0.0000   9999     3250  0     0    
2019/07/17  13:50:00  BASE  9.38448  23   10.9486  19   -1.9  100   -1.9  2     0     980.8    NA       0.0000   9999     2690  0     0    
2019/07/17  13:51:00  BASE  9.50796  24   10.9486  19   -1.9  100   -1.9  2     0     981.0    NA       0.0000   9999     2790  0     0    
2019/07/17  13:52:00  BASE  9.34332  25   10.9486  19   -1.9  100   -1.9  2     0     981.1    NA       0.0000   9999     2950  0     0    
2019/07/17  13:53:00  BASE  9.31392  23   10.9486  19   -1.9  100   -1.9  2     0     981.1    NA       0.0000   9999     3970  0     0    
2019/07/17  13:54:00  BASE  9.1434   23   10.9486  19   -1.9  99    -2.0  3     0     981.2    NA       0.0000   9999     950   4000  0    
2019/07/17  13:55:00  BASE  8.86704  25   10.9486  19   -1.9  99    -2.0  3     0     981.2    NA       0.0000   9999     4040  0     0    
2019/07/17  13:56:00  BASE  9.06696  26   10.8016  19   -1.9  99    -2.0  3     0     981.2    NA       0.0000   9999     3020  0     0    
2019/07/17  13:57:00  BASE  9.27276  25   10.8016  19   -1.8  99    -2.0  3     0     981.2    NA       0.0000   9999     1210  4200  0    
2019/07/17  13:58:00  BASE  9.0846   25   10.8016  19   -1.8  99    -2.0  3     0     981.2    NA       0.0000   9999     0     0     0    
2019/07/17  13:59:00  BASE  9.28452  26   10.8016  19   -1.8  99    -2.0  3     0     981.2    NA       0.0000   9999     1210  0     0    
2019/07/17  14:00:00  BASE  9.69612  26   10.9192  19   -1.8  98    -2.0  3     0     981.2    NA       0.0000   9999     1350  0     0    
2019/07/17  14:01:00  BASE  9.14928  25   10.9192  19   -1.8  98    -2.1  3     0     981.3    NA       0.0000   9999     0     0     0    
2019/07/17  14:02:00  BASE  9.1434   24   10.9192  19   -1.8  98    -2.1  3     0     981.2    NA       0.0000   9999     0     0     0    
2019/07/17  14:03:00  BASE  9.7902   25   10.9192  19   -1.8  98    -2.1  4     0     981.2    NA       0.0000   9999     1210  0     0    
2019/07/17  14:04:00  BASE  9.54324  25   10.9192  19   -1.8  98    -2.1  4     0     981.3    NA       0.0000   9999     0     0     0    
2019/07/17  14:05:00  BASE  9.6138   26   11.0132  32   -1.8  98    -2.1  4     0     981.2    NA       0.0000   9999     4630  0     0    
2019/07/17  14:06:00  BASE  9.92544  27   11.1602  25   -1.8  98    -2.1  4     0     981.3    NA       0.0000   9999     0     0     0    
2019/07/17  14:07:00  BASE  9.84312  26   11.1602  25   -1.8  98    -2.1  4     0     981.3    NA       0.0000   9999     0     0     0    
2019/07/17  14:08:00  BASE  9.70788  26   11.1602  25   -1.8  97    -2.2  4     0     981.3    NA       0.0000   9999     0     0     0    
2019/07/17  14:09:00  BASE  9.53736  25   11.1602  25   -1.8  97    -2.2  5     0     981.3    NA       0.0000   9999     0     0     0    
2019/07/17  14:10:00  BASE  9.61968  24   11.1602  25   -1.8  97    -2.2  5     0     981.3    NA       0.0000   UP       9999  0     0    
2019/07/17  14:11:00  BASE  9.88428  25   11.1602  25   -1.8  97    -2.2  5     0     981.3    NA       0.0000   UP       9999  0     0    
2019/07/17  14:12:00  BASE  9.60204  27   11.1602  25   -1.8  97    -2.2  5     0     981.4    NA       0.0000   UP       9999  0     0    
2019/07/17  14:13:00  BASE  9.17868  27   11.1602  25   -1.8  97    -2.2  5     0     981.4    NA       0.0000   UP       9999  0     0    
2019/07/17  14:14:00  BASE  9.25512  28   11.1602  25   -1.8  97    -2.2  6     0     981.4    NA       0.0000   UP       9999  0     0    
2019/07/17  14:15:00  BASE  9.1434   29   11.1602  25   -1.8  97    -2.2  6     0     981.4    NA       0.0000   UP       9999  0     0    
2019/07/17  14:16:00  BASE  8.87292  27   10.978   24   -1.8  97    -2.2  6     0     981.4    NA       0.0000   UP       9000  3250  0    
2019/07/17  14:17:00  BASE  9.61968  27   11.5836  25   -1.8  97    -2.2  6     0     981.3    NA       0.0000   UP       BR    9000  3180 
2019/07/17  14:18:00  BASE  10.0607  28   11.5836  25   -1.8  97    -2.2  6     0     981.3    NA       0.0000   UP       BR    9000  3050 
2019/07/17  14:19:00  BASE  9.79608  27   11.5836  25   -1.8  97    -2.2  7     0     981.4    NA       0.0000   UP       BR    9000  2950 
2019/07/17  14:20:00  BASE  9.50208  29   11.5836  25   -1.8  97    -2.2  7     0     981.4    NA       0.0000   UP       BR    9000  3050 
2019/07/17  14:21:00  BASE  9.03756  30   11.5836  25   -1.8  97    -2.2  7     0     981.4    NA       0.0000   UP       BR    9000  3120 
2019/07/17  14:22:00  BASE  8.9376   30   11.5836  25   -1.8  97    -2.2  7     0     981.4    NA       0.0000   UP       BR    9000  3180 
2019/07/17  14:23:00  BASE  9.09048  29   11.5836  25   -1.8  97    -2.2  7     0     981.4    NA       0.0000   UP       BR    9000  3050 
2019/07/17  14:24:00  BASE  9.2904   28   11.5836  25   -1.8  97    -2.2  8     0     981.4    NA       0.0000   UP       BR    9000  2890 
2019/07/17  14:25:00  BASE  9.27276  28   11.5836  25   -1.8  97    -2.2  8     0     981.4    NA       0.0000   UP       BR    8000  2990 
2019/07/17  14:26:00  BASE  9.5844   30   11.5836  25   -1.8  97    -2.2  8     0     981.4    NA       0.0000   UP       BR    8000  2920 
2019/07/17  14:27:00  BASE  10.1606  31   11.3131  34   -1.8  97    -2.3  8     0     981.4    NA       0.0000   UP       BR    8000  2850 
2019/07/17  14:28:00  BASE  9.7608   30   11.3131  34   -1.9  97    -2.3  8     0     981.5    NA       0.0000   UP       BR    9000  2850 
2019/07/17  14:29:00  BASE  9.47856  30   11.3131  34   -1.9  97    -2.3  9     0     981.5    NA       0.0000   UP       BR    9000  2920 
2019/07/17  14:30:00  BASE  10.0607  31   11.4366  32   -1.9  97    -2.3  9     0     981.5    NA       0.0000   UP       BR    9000  3080 
2019/07/17  14:31:00  BASE  9.93132  30   11.4366  32   -1.9  97    -2.3  9     0     981.5    NA       0.0000   UP       BR    9000  3050 
2019/07/17  14:32:00  BASE  9.63732  29   11.4366  32   -1.9  97    -2.3  9     0     981.4    NA       0.0000   UP       BR    8000  3080 
2019/07/17  14:33:00  BASE  10.0195  28   11.4366  32   -1.9  97    -2.3  10    0     981.5    NA       0.0000   UP       BR    9000  3050 
2019/07/17  14:34:00  BASE  9.849    29   11.4366  32   -1.9  98    -2.2  10    0     981.6    NA       0.0000   UP       BR    9000  2950 
2019/07/17  14:35:00  BASE  9.59616  29   11.4366  32   -1.9  98    -2.2  10    0     981.6    NA       0.0000   UP       BR    9000  2890 
2019/07/17  14:36:00  BASE  9.83136  29   11.4366  32   -1.9  98    -2.2  10    0     981.6    NA       0.0000   UP       BR    9999  2920 
2019/07/17  14:37:00  BASE  9.7608   29   11.4366  32   -1.8  98    -2.2  11    0     981.6    NA       0.0000   UP       BR    9000  0    
2019/07/17  14:38:00  BASE  10.1077  28   11.86    31   -1.8  97    -2.2  11    0     981.6    NA       0.0000   UP       BR    6000  0    
2019/07/17  14:39:00  BASE  10.4488  29   11.86    31   -1.8  97    -2.2  11    0     981.6    NA       0.0000   UP       BR    4700  1310 
2019/07/17  14:40:00  BASE  9.71376  30   11.86    31   -1.8  97    -2.2  12    0     981.6    NA       0.0000   -SN      BR    4500  0    
2019/07/17  14:41:00  BASE  8.75532  29   11.86    31   -1.9  97    -2.3  12    0     981.7    NA       0.0000   -SN      BR    3900  0    
2019/07/17  14:42:00  BASE  8.4378   28   11.86    31   -1.9  97    -2.3  12    0     981.6    NA       0.0000   -SN      BR    3300  390  
2019/07/17  14:43:00  BASE  8.74944  28   11.86    31   -1.9  97    -2.3  12    0     981.6    NA       0.0000   -SN      BR    4500  0    
2019/07/17  14:44:00  BASE  9.06696  29   11.86    31   -1.9  97    -2.2  13    0     981.6    NA       0.0000   -SN      BR    4400  0    
2019/07/17  14:45:00  BASE  9.4668   29   11.86    31   -1.9  98    -2.2  13    0     981.6    NA       0.0000   -SN      BR    3300  330  
2019/07/17  14:46:00  BASE  9.29628  28   11.86    31   -1.9  98    -2.2  13    0     981.7    NA       0.0000   -SN      BR    2900  330  
2019/07/17  14:47:00  BASE  8.74944  27   11.86    31   -1.9  98    -2.2  14    0     981.7    NA       0.0000   -SN      BR    3800  390  
2019/07/17  14:48:00  BASE  9.16104  27   11.2249  27   -1.9  98    -2.1  14    0     981.7    NA       0.0000   -SN      BR    5000  390  
2019/07/17  14:49:00  BASE  9.33156  28   10.437   29   -1.9  98    -2.1  14    0     981.7    NA       0.0000   -SN      BR    4800  390  
2019/07/17  14:50:00  BASE  9.20808  27   10.5546  31   -1.9  99    -2.0  14    0     981.8    NA       0.0000   -SN      BR    6000  390  
2019/07/17  14:51:00  BASE  9.01992  28   10.5546  31   -1.8  99    -2.0  14    0     981.8    NA       0.0000   -SN      BR    5000  390  
2019/07/17  14:52:00  BASE  8.77884  27   10.5546  31   -1.8  99    -2.0  15    0     981.8    NA       0.0000   -SN      BR    5000  720  
2019/07/17  14:53:00  BASE  9.30804  27   11.2249  30   -1.8  99    -2.0  15    0     981.8    NA       0.0000   -SN      BR    5000  430  
2019/07/17  14:54:00  BASE  9.38448  26   11.2249  30   -1.8  99    -2.0  15    0     981.8    NA       0.0000   -SN      BR    6000  390  
2019/07/17  14:55:00  BASE  9.66672  28   11.2837  27   -1.8  99    -2.0  16    0     981.8    NA       0.0000   -SN      BR    6000  360  
2019/07/17  14:56:00  BASE  9.90192  33   11.2837  27   -1.8  99    -2.0  16    0     981.8    NA       0.0000   -SN      BR    4800  390  
2019/07/17  14:57:00  BASE  8.86704  31   11.2837  27   -1.8  99    -1.9  16    0     981.9    NA       0.0000   -SN      BR    5000  330  
2019/07/17  14:58:00  BASE  8.60244  29   11.2837  27   -1.8  99    -1.9  17    0     981.9    NA       0.0000   -SN      BR    4600  300  
2019/07/17  14:59:00  BASE  9.36684  29   11.2837  27   -1.8  99    -1.9  17    0     981.9    NA       0.0000   -SN      BR    3600  300  
2019/07/17  15:00:00  BASE  9.7608   29   11.2837  27   -1.8  99    -1.9  17    0     981.9    NA       0.0000   -SN      BR    3200  330  
2019/07/17  15:01:00  BASE  9.50796  29   11.2837  27   -1.8  99    -1.9  18    0     982.0    NA       0.0000   -SN      BR    2800  330  
2019/07/17  15:02:00  BASE  8.94936  30   11.2837  27   -1.8  99    -1.9  18    0     982.0    NA       0.0000   -SN      BR    3500  0    
2019/07/17  15:03:00  BASE  8.72592  31   11.2837  27   -1.8  99    -1.9  18    0     982.0    NA       0.0000   -SN      BR    4000  0    
2019/07/17  15:04:00  BASE  8.74356  31   11.2837  27   -1.8  99    -1.9  18    0     982.0    NA       0.0000   -SN      BR    4200  0    
2019/07/17  15:05:00  BASE  8.74944  32   11.072   33   -1.8  99    -1.9  18    0     982.0    NA       0.0000   -SN      BR    4300  0    
2019/07/17  15:06:00  BASE  8.3496   31   11.072   33   -1.8  99    -1.9  18    0     982.1    NA       0.0000   -SN      BR    3100  330  
2019/07/17  15:07:00  BASE  8.0262   29   11.072   33   -1.8  99    -1.9  18    0     982.1    NA       0.0000   -SN      BR    2600  300  
2019/07/17  15:08:00  BASE  8.04972  30   11.072   33   -1.8  99    -1.9  18    0     982.1    NA       0.0000   -SN      BR    3000  0    
2019/07/17  15:09:00  BASE  7.90272  31   10.6487  26   -1.8  99    -1.9  18    0     982.1    NA       0.0000   -SN      BR    3500  0    
2019/07/17  15:10:00  BASE  8.03796  32   9.95484  31   -1.8  99    -1.9  18    0     982.1    NA       0.0000   -SN      BR    3400  0    
2019/07/17  15:11:00  BASE  7.60872  33   9.77256  42   -1.8  99    -1.9  18    0     982.1    NA       0.0000   -SN      BR    4400  0    
2019/07/17  15:12:00  BASE  7.68516  33   9.77256  42   -1.8  99    -1.9  18    0     982.1    NA       0.0000   -SN      BR    5000  0    
2019/07/17  15:13:00  BASE  8.16144  32   9.77256  42   -1.8  99    -1.9  18    0     982.0    NA       0.0000   -SN      BR    5000  0    
2019/07/17  15:14:00  BASE  7.83804  32   9.77256  42   -1.8  99    -1.9  17    0     982.1    NA       0.0000   -SN      BR    5000  0    
2019/07/17  15:15:00  BASE  8.10852  32   9.3492   34   -1.8  99    -1.9  17    0     982.0    NA       0.0000   -SN      BR    8000  0    
2019/07/17  15:16:00  BASE  8.44956  30   9.77256  29   -1.8  99    -1.9  16    0     982.0    NA       0.0000   -SN      BR    8000  0    
2019/07/17  15:17:00  BASE  8.27316  32   9.77256  29   -1.8  99    -2.0  16    0     982.1    NA       0.0000   -SN      BR    7000  360  
2019/07/17  15:18:00  BASE  7.938    33   9.77256  29   -1.8  98    -2.0  15    0     982.1    NA       0.0000   -SN      BR    9999  0    
2019/07/17  15:19:00  BASE  8.232    29   9.77256  29   -1.7  98    -2.0  15    0     982.1    NA       0.0000   -SN      BR    9999  0    
2019/07/17  15:20:00  BASE  8.9376   29   9.83136  32   -1.7  98    -2.0  14    0     982.1    NA       0.0000   -SN      BR    9999  2890 
2019/07/17  15:21:00  BASE  9.03756  29   9.91956  22   -1.7  98    -2.0  14    0     982.1    NA       0.0000   -SN      BR    9999  430  
2019/07/17  15:22:00  BASE  8.97288  28   9.91956  22   -1.7  98    -2.0  14    0     982.1    NA       0.0000   -SN      BR    9999  2920 
2019/07/17  15:23:00  BASE  8.85528  29   9.91956  22   -1.7  98    -2.0  14    0     982.1    NA       0.0000   -SN      BR    9999  430  
2019/07/17  15:24:00  BASE  8.75532  29   9.91956  22   -1.7  97    -2.0  14    0     982.1    NA       0.0000   -SN      9999  430   0    
2019/07/17  15:25:00  BASE  8.82     28   10.1312  27   -1.7  97    -2.1  14    0     982.1    NA       0.0000   -SN      9999  390   0    
2019/07/17  15:26:00  BASE  9.04932  27   10.5252  29   -1.7  97    -2.1  14    0     982.1    NA       0.0000   -SN      9999  0     0    
2019/07/17  15:27:00  BASE  9.49032  27   10.6193  29   -1.7  96    -2.2  14    0     982.1    NA       0.0000   -SN      9999  0     0    
2019/07/17  15:28:00  BASE  9.2022   28   10.6193  29   -1.7  96    -2.2  14    0     982.2    NA       0.0000   -SN      9999  0     0    
2019/07/17  15:29:00  BASE  8.7612   30   10.6193  29   -1.7  96    -2.2  14    0     982.2    NA       0.0000   -SN      9999  0     0    
2019/07/17  15:30:00  BASE  8.81412  32   10.6193  29   -1.7  96    -2.2  14    0     982.2    NA       0.0000   -SN      9999  0     0    
2019/07/17  15:31:00  BASE  8.84352  31   10.6193  29   -1.7  96    -2.3  14    0     982.2    NA       0.0000   -SN      9999  0     0    
2019/07/17  15:32:00  BASE  8.46132  32   10.6193  29   -1.7  96    -2.3  14    0     982.2    NA       0.0000   -SN      9999  0     0    
2019/07/17  15:33:00  BASE  7.80864  28   10.6193  29   -1.7  96    -2.3  15    0     982.3    NA       0.0000   -SN      9999  0     0    
2019/07/17  15:34:00  BASE  7.95564  27   10.6193  29   -1.7  96    -2.3  15    0     982.3    NA       0.0000   -SN      9999  0     0    
2019/07/17  15:35:00  BASE  8.41428  28   10.6193  29   -1.7  95    -2.3  15    0     982.3    NA       0.0000   -SN      9999  0     0    
2019/07/17  15:36:00  BASE  8.74944  28   10.6193  29   -1.7  95    -2.3  15    0     982.3    NA       0.0000   -SN      9999  0     0    
2019/07/17  15:37:00  BASE  8.967    29   10.3429  31   -1.7  95    -2.3  16    0     982.3    NA       0.0000   -SN      9999  0     0    
2019/07/17  15:38:00  BASE  8.95524  26   10.3429  31   -1.7  95    -2.3  16    0     982.3    NA       0.0000   -SN      9999  0     0    
2019/07/17  15:39:00  BASE  8.80824  26   10.3429  31   -1.7  95    -2.3  16    0     982.3    NA       0.0000   -SN      9999  0     0    
2019/07/17  15:40:00  BASE  8.97876  29   10.3429  31   -1.7  96    -2.3  16    0     982.3    NA       0.0000   -SN      9999  0     0    
2019/07/17  15:41:00  BASE  8.90232  32   10.3429  31   -1.8  96    -2.3  16    0     982.4    NA       0.0000   -SN      9999  0     0    
2019/07/17  15:42:00  BASE  8.42604  33   10.3429  31   -1.8  96    -2.3  16    0     982.4    NA       0.0000   -SN      9000  0     0    
2019/07/17  15:43:00  BASE  8.967    32   10.6487  33   -1.8  96    -2.4  16    0     982.4    NA       0.0000   -SN      8000  360   0    
2019/07/17  15:44:00  BASE  9.4374   31   10.6487  33   -1.9  96    -2.4  16    0     982.4    NA       0.0000   -SN      9999  1180  0    
2019/07/17  15:45:00  BASE  9.20808  29   10.6487  33   -1.9  96    -2.4  16    0     982.4    NA       0.0000   -SN      9999  850   0    
2019/07/17  15:46:00  BASE  9.53148  30   11.2837  32   -1.9  96    -2.4  16    0     982.4    NA       0.0000   -SN      9999  1150  0    
2019/07/17  15:47:00  BASE  9.50796  32   11.2837  32   -1.9  96    -2.4  16    0     982.4    NA       0.0000   -SN      9999  0     0    
2019/07/17  15:48:00  BASE  9.40212  33   11.2837  32   -1.9  96    -2.4  15    0     982.4    NA       0.0000   -SN      9999  0     0    
2019/07/17  15:49:00  BASE  9.53736  32   11.2837  32   -1.8  96    -2.4  15    0     982.4    NA       0.0000   -SN      9999  430   0    
2019/07/17  15:50:00  BASE  9.41388  29   11.2837  32   -1.8  95    -2.5  15    0     982.4    NA       0.0000   -SN      9999  0     0    
2019/07/17  15:51:00  BASE  9.41388  29   11.2837  32   -1.8  95    -2.5  15    0     982.4    NA       0.0000   -SN      9999  2100  0    
2019/07/17  15:52:00  BASE  9.0846   30   11.2837  32   -1.8  94    -2.6  14    0     982.5    NA       0.0000   -SN      9999  2170  0    
2019/07/17  15:53:00  BASE  8.99052  31   11.2837  32   -1.8  94    -2.6  14    0     982.5    NA       0.0000   9999     0     0     0    
2019/07/17  15:54:00  BASE  9.28452  32   11.2837  32   -1.7  93    -2.7  14    0     982.5    NA       0.0000   9999     0     0     0    
2019/07/17  15:55:00  BASE  9.114    35   11.2837  32   -1.7  93    -2.7  14    0     982.5    NA       0.0000   9999     1540  0     0    
2019/07/17  15:56:00  BASE  8.64948  35   11.1602  31   -1.7  92    -2.8  14    0     982.6    NA       0.0000   9999     0     0     0    
2019/07/17  15:57:00  BASE  8.59068  32   11.1602  31   -1.7  92    -2.8  14    0     982.5    NA       0.0000   9999     1610  0     0    
2019/07/17  15:58:00  BASE  8.82     31   11.1602  31   -1.7  92    -2.8  14    0     982.5    NA       0.0000   9000     0     0     0    
2019/07/17  15:59:00  BASE  8.7906   29   10.9192  35   -1.7  92    -2.8  14    0     982.6    NA       0.0000   9000     1800  0     0    
2019/07/17  16:00:00  BASE  8.94936  29   10.9192  35   -1.6  92    -2.8  14    0     982.6    NA       0.0000   BR       9000  1940  0    
2019/07/17  16:01:00  BASE  9.19632  33   10.7663  37   -1.6  92    -2.8  14    0     982.6    NA       0.0000   BR       9000  2660  0    
2019/07/17  16:02:00  BASE  9.11988  32   10.7663  37   -1.6  91    -2.9  13    0     982.6    NA       0.0000   BR       9000  3220  0    
2019/07/17  16:03:00  BASE  9.22572  29   10.7663  37   -1.7  91    -2.9  13    0     982.5    NA       0.0000   BR       9000  1670  0    
2019/07/17  16:04:00  BASE  9.60204  31   10.7663  37   -1.7  91    -2.9  13    0     982.4    NA       0.0000   BR       9000  1510  3080 
2019/07/17  16:05:00  BASE  9.56676  32   10.7663  37   -1.7  91    -2.9  14    0     982.4    NA       0.0000   BR       9000  1440  3120 
2019/07/17  16:06:00  BASE  9.29628  32   10.7663  37   -1.6  91    -2.9  13    0     982.6    NA       0.0000   BR       8000  1440  3080 
2019/07/17  16:07:00  BASE  8.97288  30   10.7663  37   -1.6  91    -2.9  13    0     982.6    NA       0.0000   BR       8000  1150  2950 
2019/07/17  16:08:00  BASE  8.52012  30   10.7663  37   -1.6  91    -2.9  13    0     982.6    NA       0.0000   BR       8000  390   0    
2019/07/17  16:09:00  BASE  8.80236  31   10.7663  37   -1.6  91    -2.9  13    0     982.0    NA       0.0000   BR       7000  3150  0    
2019/07/17  16:10:00  BASE  9.0846   31   10.7663  37   -1.6  91    -2.9  13    0     982.5    NA       0.0000   BR       7000  3080  0    
2019/07/17  16:11:00  BASE  8.87292  28   10.437   27   -1.6  91    -2.9  13    0     982.7    NA       0.0000   -SN      BR    9999  3050 
2019/07/17  16:12:00  BASE  8.89056  31   10.437   27   -1.6  91    -2.9  13    0     982.7    NA       0.0000   -SN      BR    9999  3120 
2019/07/17  16:13:00  BASE  8.56716  32   10.437   27   -1.6  91    -2.9  13    0     982.2    NA       0.0000   -SN      BR    9999  3120 
2019/07/17  16:14:00  BASE  8.51424  30   10.2547  31   -1.7  91    -2.9  13    0     982.7    NA       0.0000   -SN      BR    9999  3080 
2019/07/17  16:15:00  BASE  8.7318   30   10.2547  31   -1.7  91    -2.9  13    0     982.7    NA       0.0000   -SN      BR    9999  2890 
2019/07/17  16:16:00  BASE  8.56128  29   10.2547  31   -1.7  91    -2.9  12    0     982.7    NA       0.0000   -SN      BR    9999  2990 
2019/07/17  16:17:00  BASE  8.63772  27   10.2547  31   -1.7  92    -2.9  12    0     982.7    NA       0.0000   -SN      BR    9999  3050 
2019/07/17  16:18:00  BASE  8.54952  30   10.2547  31   -1.7  92    -2.9  12    0     982.8    NA       0.0000   -SN      BR    9999  3080 
2019/07/17  16:19:00  BASE  8.7906   32   10.2547  31   -1.7  92    -2.9  12    0     982.7    NA       0.0000   -SN      BR    9999  3050 
2019/07/17  16:20:00  BASE  8.8788   31   10.2547  31   -1.7  92    -2.8  11    0     982.7    NA       0.0000   -SN      9999  3150  0    
2019/07/17  16:21:00  BASE  8.09676  30   10.2547  31   -1.8  92    -2.8  11    0     982.8    NA       0.0000   -SN      9999  3050  0    
2019/07/17  16:22:00  BASE  7.69692  28   10.1312  32   -1.8  93    -2.8  11    0     982.8    NA       0.0000   -SN      9999  3020  0    
2019/07/17  16:23:00  BASE  8.673    29   10.831   37   -1.8  93    -2.8  11    0     982.8    NA       0.0000   -SN      9999  2990  0    
2019/07/17  16:24:00  BASE  9.51384  34   10.831   37   -1.8  93    -2.8  11    0     982.8    NA       0.0000   9999     3120  0     0    
2019/07/17  16:25:00  BASE  9.16104  31   10.831   37   -1.8  93    -2.8  10    0     982.8    NA       0.0000   9999     3180  0     0    
2019/07/17  16:26:00  BASE  9.24924  26   10.831   37   -1.8  93    -2.8  10    0     982.8    NA       0.0000   9999     3180  0     0    
2019/07/17  16:27:00  BASE  9.76668  24   10.9192  24   -1.8  92    -2.9  10    0     982.8    NA       0.0000   9999     3150  0     0    
2019/07/17  16:28:00  BASE  10.0136  25   10.9192  24   -1.8  92    -2.9  10    0     982.8    NA       0.0000   9999     3150  0     0    
2019/07/17  16:29:00  BASE  9.98424  25   10.9192  24   -1.7  92    -2.9  10    0     982.8    NA       0.0000   9999     3120  0     0    
2019/07/17  16:30:00  BASE  9.702    24   10.9192  24   -1.7  91    -3.0  10    0     982.8    NA       0.0000   9999     3220  0     0    
2019/07/17  16:31:00  BASE  9.36096  26   10.9192  24   -1.7  91    -3.0  9     0     982.9    NA       0.0000   9999     3280  0     0    
2019/07/17  16:32:00  BASE  9.408    24   11.7659  23   -1.7  90    -3.1  9     0     982.8    NA       0.0000   9999     3350  0     0    
2019/07/17  16:33:00  BASE  10.2018  23   11.7659  23   -1.7  90    -3.2  9     0     982.8    NA       0.0000   9999     0     0     0    
2019/07/17  16:34:00  BASE  10.4664  23   11.7659  23   -1.7  89    -3.3  9     0     982.9    NA       0.0000   9999     0     0     0    
2019/07/17  16:35:00  BASE  10.2782  23   11.7659  23   -1.7  89    -3.3  9     0     982.9    NA       0.0000   -SN      9999  0     0    
2019/07/17  16:36:00  BASE  10.4546  22   11.7659  23   -1.8  89    -3.3  9     0     982.9    NA       0.0000   -SN      9999  0     0    
2019/07/17  16:37:00  BASE  10.1077  22   11.7659  23   -1.8  89    -3.4  9     0     982.9    NA       0.0000   -SN      9999  0     0    
2019/07/17  16:38:00  BASE  9.93132  19   11.7659  23   -1.8  89    -3.4  9     0     982.9    NA       0.0000   -SN      9999  0     0    
2019/07/17  16:39:00  BASE  10.731   18   12.7067  16   -1.9  90    -3.3  9     0     982.8    NA       0.0000   -SN      9999  0     0    
2019/07/17  16:40:00  BASE  11.072   22   12.7067  16   -1.9  90    -3.3  9     0     982.8    NA       0.0000   -SN      9999  0     0    
2019/07/17  16:41:00  BASE  11.0544  24   12.7067  16   -1.9  91    -3.2  9     0     982.8    NA       0.0000   -SN      9999  0     0    
2019/07/17  16:42:00  BASE  11.219   24   12.7067  16   -1.9  91    -3.2  9     0     982.9    NA       0.0000   -SN      9999  0     0    
2019/07/17  16:43:00  BASE  11.3484  23   12.7067  16   -2.0  92    -3.2  9     0     982.9    NA       0.0000   -SN      9999  0     0    
2019/07/17  16:44:00  BASE  11.8952  22   12.9478  24   -2.0  92    -3.1  9     0     982.9    NA       0.0000   -SN      9999  0     0    
2019/07/17  16:45:00  BASE  11.6306  23   12.9478  24   -2.0  92    -3.1  9     0     982.9    NA       0.0000   -SN      9999  0     0    
2019/07/17  16:46:00  BASE  10.9721  24   12.9478  24   -2.0  92    -3.1  9     0     982.9    NA       0.0000   -SN      9999  0     0    
2019/07/17  16:47:00  BASE  11.1191  25   12.9478  24   -2.0  92    -3.1  9     0     982.9    NA       0.0000   -SN      9000  0     0    
2019/07/17  16:48:00  BASE  11.5013  26   12.9478  24   -2.0  93    -3.0  9     0     983.0    NA       0.0000   -SN      9000  0     0    
2019/07/17  16:49:00  BASE  11.2896  25   12.9478  24   -2.0  93    -3.0  9     0     983.0    NA       0.0000   -SN      9999  0     0    
2019/07/17  16:50:00  BASE  10.9662  25   12.9478  24   -2.0  93    -3.0  9     0     983.0    NA       0.0000   -SN      9999  0     0    
2019/07/17  16:51:00  BASE  10.5017  26   12.9478  24   -2.0  93    -3.0  9     0     983.0    NA       0.0000   -SN      9999  0     0    
2019/07/17  16:52:00  BASE  10.4135  24   12.9478  24   -2.0  92    -3.1  10    0     983.0    NA       0.0000   -SN      9999  1250  0    
2019/07/17  16:53:00  BASE  10.3135  24   12.9478  24   -2.0  92    -3.1  10    0     983.1    NA       0.0000   -SN      9999  0     0    
2019/07/17  16:54:00  BASE  10.1136  24   12.4656  25   -2.0  92    -3.1  10    0     983.0    NA       0.0000   -SN      9999  0     0    
2019/07/17  16:55:00  BASE  10.7016  23   12.4656  25   -2.0  92    -3.1  10    0     983.0    NA       0.0000   -SN      9999  0     0    
2019/07/17  16:56:01  BASE  10.7898  24   12.4656  25   -2.0  92    -3.1  10    0     983.0    NA       0.0000   -SN      9999  0     0    
2019/07/17  16:57:00  BASE  10.4958  26   12.4656  25   -2.0  92    -3.1  10    0     983.1    NA       0.0000   -SN      9999  0     0    
2019/07/17  16:58:00  BASE  9.8196   26   11.9776  21   -2.0  93    -3.0  9     0     983.1    NA       0.0000   -SN      9999  0     0    
2019/07/17  16:59:00  BASE  9.5844   24   11.9776  21   -2.0  93    -3.0  9     0     983.1    NA       0.0000   -SN      9999  0     0    
2019/07/17  17:00:00  BASE  10.4076  25   11.9776  21   -2.0  93    -3.0  9     0     983.0    NA       0.0000   -SN      9000  0     0    
2019/07/17  17:01:00  BASE  10.7134  26   11.9776  21   -2.0  93    -3.0  9     0     983.1    NA       0.0000   -SN      7000  0     0    
2019/07/17  17:02:00  BASE  10.337   25   11.9776  21   -2.0  93    -3.0  9     0     983.0    NA       0.0000   -SN      9000  0     0    
2019/07/17  17:03:00  BASE  9.849    25   11.9776  21   -2.0  93    -2.9  10    0     983.1    NA       0.0000   -SN      9999  0     0    
2019/07/17  17:04:00  BASE  9.61968  27   11.9482  19   -2.0  94    -2.9  10    0     983.1    NA       0.0000   -SN      9999  0     0    
2019/07/17  17:05:00  BASE  10.2136  26   11.9188  29   -2.0  94    -2.9  10    0     983.0    NA       0.0000   -SN      9999  0     0    
2019/07/17  17:06:00  BASE  10.7839  25   11.9188  29   -2.0  94    -2.8  10    0     983.0    NA       0.0000   -SN      9999  0     0    
2019/07/17  17:07:00  BASE  10.7604  23   11.9188  29   -2.0  94    -2.8  10    0     983.0    NA       0.0000   -SN      9999  0     0    
2019/07/17  17:08:00  BASE  10.8898  22   11.9188  29   -2.0  94    -2.8  10    0     983.0    NA       0.0000   -SN      9999  0     0    
2019/07/17  17:09:00  BASE  10.878   23   11.9188  29   -2.0  94    -2.8  10    0     983.0    NA       0.0000   -SN      9999  0     0    
2019/07/17  17:10:00  BASE  10.8427  23   12.248   29   -2.0  95    -2.8  10    0     983.0    NA       0.0000   -SN      9999  0     0    
2019/07/17  17:11:00  BASE  10.9486  25   12.248   29   -2.0  95    -2.7  11    0     983.1    NA       0.0000   -SN      9999  0     0    
2019/07/17  17:12:00  BASE  10.9133  24   12.248   29   -2.0  95    -2.7  11    0     983.1    NA       0.0000   -SN      9999  0     0    
2019/07/17  17:13:00  BASE  10.9015  23   12.248   29   -2.0  95    -2.7  11    0     983.1    NA       0.0000   -SN      9999  0     0    
2019/07/17  17:14:00  BASE  10.6957  25   12.248   29   -2.0  95    -2.7  11    0     983.1    NA       0.0000   -SN      7000  0     0    
2019/07/17  17:15:00  BASE  11.0426  25   12.3127  24   -2.0  95    -2.7  11    0     983.0    NA       0.0000   -SN      BR    8000  0    
2019/07/17  17:16:00  BASE  11.0074  25   12.3127  24   -2.0  95    -2.7  11    0     983.1    NA       0.0000   -SN      BR    8000  0    
2019/07/17  17:17:00  BASE  10.7604  24   12.3127  24   -2.0  95    -2.7  12    0     983.1    NA       0.0000   -SN      BR    9999  0    
2019/07/17  17:18:00  BASE  9.91368  23   12.3127  24   -2.0  95    -2.7  12    0     983.2    NA       0.0000   -SN      BR    9999  0    
2019/07/17  17:19:00  BASE  9.73728  22   12.3127  24   -2.0  95    -2.7  12    0     983.1    NA       0.0000   -SN      BR    9000  0    
2019/07/17  17:20:00  BASE  10.9721  23   12.3127  24   -2.1  96    -2.7  12    0     983.1    NA       0.0000   -SN      BR    7000  0    
2019/07/17  17:21:00  BASE  10.6722  24   12.3127  24   -2.1  96    -2.7  13    0     983.1    NA       0.0000   -SN      BR    4900  0    
2019/07/17  17:22:00  BASE  10.5781  23   12.3127  24   -2.1  96    -2.6  13    0     983.1    NA       0.0000   -SN      BR    5000  0    
2019/07/17  17:23:00  BASE  11.1602  23   12.3127  24   -2.1  96    -2.6  13    0     983.1    NA       0.0000   -SN      BR    6000  0    
2019/07/17  17:24:00  BASE  11.0191  24   12.3127  24   -2.1  96    -2.6  13    0     983.2    NA       0.0000   -SN      BR    4900  0    
2019/07/17  17:25:00  BASE  10.8604  23   12.2186  27   -2.1  96    -2.6  13    0     983.0    NA       0.0000   -SN      BR    5000  0    
2019/07/17  17:26:00  BASE  11.0015  23   12.2186  27   -2.1  96    -2.6  14    0     983.2    NA       0.0000   -SN      BR    8000  0    
2019/07/17  17:27:00  BASE  10.584   22   12.2186  27   -2.1  96    -2.6  14    0     983.2    NA       0.0000   -SN      BR    8000  0    
2019/07/17  17:28:00  BASE  9.68436  22   12.2186  27   -2.1  97    -2.6  14    0     983.3    NA       0.0000   -SN      BR    9999  0    
2019/07/17  17:29:00  BASE  9.49032  24   12.2186  27   -2.1  97    -2.5  14    0     983.3    NA       0.0000   -SN      BR    9000  0    
2019/07/17  17:30:00  BASE  10.0136  25   12.2186  27   -2.1  97    -2.5  14    0     983.2    NA       0.0000   -SN      BR    6000  0    
2019/07/17  17:31:00  BASE  10.1489  25   12.2186  27   -2.1  97    -2.5  14    0     982.7    NA       0.0000   -SN      BR    5000  0    
2019/07/17  17:32:00  BASE  9.91368  24   12.2186  27   -2.1  97    -2.5  14    0     983.2    NA       0.0000   -SN      BR    4600  0    
2019/07/17  17:33:00  BASE  10.0372  24   11.8247  23   -2.1  97    -2.5  14    0     983.2    NA       0.0000   -SN      BR    3900  0    
2019/07/17  17:34:00  BASE  10.19    25   11.7071  21   -2.1  97    -2.5  14    0     983.2    NA       0.0000   -SN      BR    3200  330  
2019/07/17  17:35:00  BASE  9.62556  26   11.7071  21   -2.1  97    -2.5  14    0     983.3    NA       0.0000   -SN      BR    3100  0    
2019/07/17  17:36:00  BASE  9.16104  27   11.7071  21   -2.2  97    -2.6  14    0     983.3    NA       0.0000   -SN      BR    2900  0    
2019/07/17  17:37:00  BASE  9.72552  29   11.613   29   -2.2  97    -2.6  14    0     983.3    NA       0.0000   -SN      BR    3200  0    
2019/07/17  17:38:00  BASE  9.57852  28   11.613   29   -2.2  97    -2.6  14    0     983.3    NA       0.0000   -SN      BR    2900  0    
2019/07/17  17:39:00  BASE  9.7902   26   11.8247  32   -2.2  98    -2.5  14    0     983.3    NA       0.0000   -SN      BR    4000  0    
2019/07/17  17:40:00  BASE  10.7134  28   11.8247  32   -2.2  98    -2.5  14    0     983.3    NA       0.0000   -SN      BR    3300  0    
2019/07/17  17:41:00  BASE  10.4135  29   11.8247  32   -2.2  98    -2.5  14    0     983.2    NA       0.0000   -SN      BR    2000  0    
2019/07/17  17:42:00  BASE  9.84312  29   11.8247  32   -2.2  98    -2.5  14    0     983.2    NA       0.0000   -SN      BR    1700  0    
2019/07/17  17:43:00  BASE  9.996    28   11.8247  32   -2.2  98    -2.5  14    0     983.3    NA       0.0000   -SN      BR    1600  0    
2019/07/17  17:44:00  BASE  9.996    28   11.8247  32   -2.2  98    -2.5  14    0     983.4    NA       0.0000   -SN      BR    1800  0    
2019/07/17  17:45:00  BASE  9.83136  30   11.8247  35   -2.2  98    -2.5  13    0     983.4    NA       0.0000   -SN      BR    2000  0    
2019/07/17  17:46:00  BASE  10.0254  30   11.8247  35   -2.2  98    -2.5  13    0     983.4    NA       0.0000   -SN      BR    2400  0    
2019/07/17  17:47:00  BASE  9.91956  29   11.8247  35   -2.2  98    -2.5  13    0     983.4    NA       0.0000   -SN      BR    2300  0    
2019/07/17  17:48:00  BASE  9.7902   29   11.8247  35   -2.2  98    -2.5  13    0     983.4    NA       0.0000   -SN      BR    2100  0    
2019/07/17  17:49:00  BASE  9.50796  28   11.8247  35   -2.3  98    -2.5  13    0     983.4    NA       0.0000   -SN      BR    2000  0    
2019/07/17  17:50:00  BASE  9.51384  30   11.8247  35   -2.3  98    -2.6  13    0     983.4    NA       0.0000   -SN      BR    1900  0    
2019/07/17  17:51:00  BASE  9.849    32   11.8247  35   -2.3  98    -2.6  13    0     983.1    NA       0.0000   -SN      BR    1800  0    
2019/07/17  17:52:00  BASE  9.47268  30   11.8247  35   -2.3  98    -2.6  12    0     983.4    NA       0.0000   -SN      BR    1900  0    
2019/07/17  17:53:00  BASE  9.07872  28   11.8247  35   -2.3  98    -2.5  12    0     983.4    NA       0.0000   -SN      BR    2200  0    
2019/07/17  17:54:00  BASE  8.75532  28   11.8247  35   -2.3  98    -2.5  12    0     983.4    NA       0.0000   -SN      BR    2000  0    
2019/07/17  17:55:00  BASE  9.27864  27   11.4366  27   -2.3  99    -2.5  11    0     983.4    NA       0.0000   -SN      BR    2000  0    
2019/07/17  17:56:00  BASE  9.83724  28   11.4366  27   -2.3  99    -2.4  11    0     983.4    NA       0.0000   -SN      BR    2100  0    
2019/07/17  17:57:00  BASE  9.61968  28   11.4366  27   -2.2  99    -2.4  11    0     983.4    NA       0.0000   -SN      BR    2200  0    
2019/07/17  17:58:00  BASE  9.61968  30   11.4366  27   -2.2  99    -2.4  11    0     983.4    NA       0.0000   -SN      BR    2400  0    
2019/07/17  17:59:00  BASE  9.39036  28   11.4366  27   -2.2  99    -2.4  11    0     983.5    NA       0.0000   -SN      BR    3100  0    
2019/07/17  18:00:00  BASE  9.28452  28   11.4366  27   -2.2  99    -2.4  10    0     983.5    NA       0.0000   -SN      BR    3000  0    
2019/07/17  18:01:00  BASE  9.30216  26   11.4366  27   -2.2  99    -2.4  10    0     983.5    NA       0.0000   -SN      BR    3400  0    
2019/07/17  18:02:00  BASE  9.27864  25   11.4366  27   -2.2  99    -2.4  10    0     983.4    NA       0.0000   -SN      BR    4100  0    
2019/07/17  18:03:00  BASE  8.9964   25   11.4366  27   -2.2  98    -2.4  10    0     983.5    NA       0.0000   -SN      BR    4700  0    
2019/07/17  18:04:00  BASE  8.51424  25   11.4366  27   -2.2  98    -2.5  10    0     983.5    NA       0.0000   -SN      BR    7000  0    
2019/07/17  18:05:00  BASE  9.12576  27   11.1014  32   -2.2  98    -2.5  10    0     983.5    NA       0.0000   -SN      BR    7000  0    
2019/07/17  18:06:00  BASE  9.65496  27   10.9192  25   -2.2  98    -2.5  10    0     983.5    NA       0.0000   -SN      BR    7000  0    
2019/07/17  18:07:00  BASE  9.6138   28   11.2249  26   -2.2  98    -2.5  11    0     983.5    NA       0.0000   -SN      BR    9000  0    
2019/07/17  18:08:00  BASE  9.69612  29   11.6483  28   -2.2  98    -2.5  11    0     983.5    NA       0.0000   -SN      BR    6000  0    
2019/07/17  18:09:00  BASE  9.83136  29   11.6483  28   -2.2  97    -2.5  11    0     983.5    NA       0.0000   -SN      BR    5000  0    
2019/07/17  18:10:00  BASE  10.1136  29   11.6483  28   -2.1  97    -2.5  11    0     983.5    NA       0.0000   -SN      BR    7000  0    
2019/07/17  18:11:00  BASE  9.85488  28   11.6483  28   -2.1  97    -2.6  11    0     983.6    NA       0.0000   -SN      BR    9999  0    
2019/07/17  18:12:00  BASE  9.61968  27   11.6483  28   -2.1  97    -2.6  11    0     983.5    NA       0.0000   -SN      BR    9999  0    
2019/07/17  18:13:00  BASE  9.7902   26   11.6483  28   -2.1  96    -2.6  11    0     983.5    NA       0.0000   -SN      BR    9999  0    
2019/07/17  18:14:00  BASE  9.57264  27   11.6483  28   -2.1  96    -2.7  11    0     983.6    NA       0.0000   -SN      BR    9999  0    
2019/07/17  18:15:00  BASE  9.555    27   11.6483  28   -2.1  96    -2.7  11    0     983.6    NA       0.0000   -SN      BR    9999  0    
2019/07/17  18:16:00  BASE  9.80784  29   11.6483  28   -2.1  95    -2.7  11    0     983.6    NA       0.0000   -SN      BR    9999  0    
2019/07/17  18:17:00  BASE  9.9666   30   11.6483  28   -2.1  95    -2.8  11    0     983.6    NA       0.0000   -SN      BR    9999  0    
2019/07/17  18:18:00  BASE  9.30804  27   11.3425  26   -2.1  95    -2.8  11    0     983.7    NA       0.0000   -SN      BR    9999  0    
2019/07/17  18:19:00  BASE  9.14928  26   11.3425  26   -2.1  95    -2.8  12    0     983.7    NA       0.0000   -SN      9999  0     0    
2019/07/17  18:20:00  BASE  9.60204  28   11.2543  30   -2.1  95    -2.8  12    0     983.7    NA       0.0000   -SN      9999  0     0    
2019/07/17  18:21:00  BASE  8.96112  27   11.2543  30   -2.1  95    -2.8  12    0     983.7    NA       0.0000   -SN      9999  460   0    
2019/07/17  18:22:00  BASE  9.27276  27   11.2543  30   -2.1  95    -2.8  12    0     983.7    NA       0.0000   -SN      9999  1020  2920 
2019/07/17  18:23:00  BASE  9.51972  27   11.2543  30   -2.1  95    -2.8  13    0     983.7    NA       0.0000   -SN      9999  1180  0    
2019/07/17  18:24:00  BASE  9.00816  25   11.2543  30   -2.1  95    -2.8  13    0     983.8    NA       0.0000   -SN      9999  0     0    
2019/07/17  18:25:00  BASE  8.9376   26   10.978   31   -2.1  95    -2.8  13    0     983.8    NA       0.0000   -SN      9999  1180  0    
2019/07/17  18:26:00  BASE  8.8494   27   10.978   31   -2.1  95    -2.8  14    0     983.8    NA       0.0000   -SN      9999  980   0    
2019/07/17  18:27:00  BASE  9.30216  26   10.978   31   -2.0  94    -2.8  14    0     983.8    NA       0.0000   -SN      9999  790   0    
2019/07/17  18:28:00  BASE  9.71964  26   10.978   31   -2.0  94    -2.8  14    0     983.8    NA       0.0000   -SN      9999  690   0    
2019/07/17  18:29:00  BASE  9.1728   23   10.978   31   -2.0  94    -2.9  15    0     983.8    NA       0.0000   -SN      9999  430   0    
2019/07/17  18:30:00  BASE  9.10224  24   10.978   31   -2.0  94    -2.9  15    0     983.8    NA       0.0000   9999     660   0     0    
2019/07/17  18:31:00  BASE  9.09048  24   10.978   31   -2.0  93    -2.9  15    0     983.9    NA       0.0000   9999     0     0     0    
2019/07/17  18:32:00  BASE  8.71416  22   10.5899  26   -2.0  93    -2.9  15    0     983.9    NA       0.0000   9999     390   0     0    
2019/07/17  18:33:00  BASE  9.06696  22   10.5899  26   -1.9  93    -2.9  15    0     983.9    NA       0.0000   9999     460   0     0    
2019/07/17  18:34:00  BASE  9.0846   24   10.5899  26   -1.9  93    -2.9  15    0     983.9    NA       0.0000   9999     0     0     0    
2019/07/17  18:35:00  BASE  8.95524  24   10.5899  26   -1.9  93    -2.9  15    0     983.9    NA       0.0000   9999     460   0     0    
2019/07/17  18:36:00  BASE  9.31392  23   10.9192  17   -1.9  93    -2.9  15    0     983.9    NA       0.0000   9999     0     0     0    
2019/07/17  18:37:00  BASE  9.56676  23   11.1896  21   -1.9  92    -2.9  14    0     983.9    NA       0.0000   9999     660   0     0    
2019/07/17  18:38:00  BASE  10.0019  23   11.1896  21   -1.9  92    -3.0  14    0     983.9    NA       0.0000   9999     0     0     0    
2019/07/17  18:39:00  BASE  9.83136  23   11.1896  21   -1.9  92    -3.0  14    0     984.0    NA       0.0000   9999     0     0     0    
2019/07/17  18:40:00  BASE  9.54912  23   11.1896  21   -1.9  92    -3.0  13    0     984.0    NA       0.0000   9999     0     0     0    
2019/07/17  18:41:00  BASE  10.2841  20   11.5836  17   -1.8  92    -3.0  13    0     983.9    NA       0.0000   9999     0     0     0    
2019/07/17  18:42:00  BASE  10.5664  21   11.5836  17   -1.8  92    -2.9  12    0     983.9    NA       0.0000   9999     2230  0     0    
2019/07/17  18:43:00  BASE  10.2312  22   11.5836  17   -1.8  92    -2.9  11    0     984.0    NA       0.0000   9999     2300  0     0    
2019/07/17  18:44:00  BASE  10.1842  22   11.7071  17   -1.8  92    -2.9  10    0     984.0    NA       0.0000   9999     2400  0     0    
2019/07/17  18:45:00  BASE  10.1312  23   11.7071  17   -1.8  92    -2.8  10    0     984.0    NA       0.0000   9999     1840  0     0    
2019/07/17  18:46:00  BASE  10.0313  22   11.7071  17   -1.8  93    -2.8  9     0     984.0    NA       0.0000   9999     2300  0     0    
2019/07/17  18:47:00  BASE  10.1371  23   11.7071  17   -1.8  93    -2.8  9     0     984.0    NA       0.0000   9999     2430  0     0    
2019/07/17  18:48:00  BASE  10.096   22   11.7071  17   -1.8  93    -2.8  8     0     984.0    NA       0.0000   9999     1570  0     0    
2019/07/17  18:49:00  BASE  9.9078   21   11.7071  17   -1.8  93    -2.8  7     0     984.1    NA       0.0000   9999     1710  0     0    
2019/07/17  18:50:00  BASE  9.8196   21   11.7071  17   -1.8  93    -2.8  7     0     984.1    NA       0.0000   9999     1800  0     0    
2019/07/17  18:51:00  BASE  9.82548  21   11.7071  17   -1.8  93    -2.7  7     0     984.1    NA       0.0000   9999     1670  0     0    
2019/07/17  18:52:00  BASE  9.7902   22   11.7071  17   -1.8  93    -2.7  6     0     984.1    NA       0.0000   9999     1050  0     0    
2019/07/17  18:53:00  BASE  9.90192  23   11.7071  17   -1.8  94    -2.7  6     0     984.1    NA       0.0000   9999     1210  0     0    
2019/07/17  18:54:00  BASE  9.89016  22   11.1602  19   -1.8  94    -2.7  6     0     984.1    NA       0.0000   9999     0     0     0    
2019/07/17  18:55:00  BASE  9.67848  21   11.1602  19   -1.8  94    -2.7  6     0     984.1    NA       0.0000   9999     0     0     0    
2019/07/17  18:56:00  BASE  9.78432  21   10.9192  21   -1.7  93    -2.7  6     0     984.2    NA       0.0000   9999     1900  0     0    
2019/07/17  18:57:00  BASE  9.90192  19   10.9192  21   -1.7  93    -2.7  5     0     984.2    NA       0.0000   9999     1770  0     0    
2019/07/17  18:58:00  BASE  9.6138   18   10.9192  21   -1.7  93    -2.7  5     0     984.2    NA       0.0000   9999     1870  0     0    
2019/07/17  18:59:00  BASE  8.97288  19   10.9192  21   -1.7  93    -2.7  5     0     984.2    NA       0.0000   9999     660   0     0    
2019/07/17  19:00:00  BASE  8.54364  19   10.9192  21   -1.7  93    -2.7  5     0     984.3    NA       0.0000   9999     2100  0     0    
2019/07/17  19:01:00  BASE  9.04932  19   11.1896  14   -1.7  93    -2.7  5     0     984.2    NA       0.0000   9999     1800  0     0    
2019/07/17  19:02:00  BASE  9.60204  20   11.1896  14   -1.7  93    -2.7  5     0     984.2    NA       0.0000   9999     1970  0     0    
2019/07/17  19:03:00  BASE  9.54912  19   11.1896  14   -1.7  93    -2.7  5     0     984.3    NA       0.0000   9999     2000  0     0    
2019/07/17  19:04:00  BASE  9.48444  18   11.1896  14   -1.7  93    -2.6  4     0     984.3    NA       0.0000   9999     2070  0     0    
2019/07/17  19:05:00  BASE  9.27864  19   11.1896  14   -1.6  93    -2.6  4     0     984.3    NA       0.0000   9999     2130  0     0    
2019/07/17  19:06:00  BASE  8.77884  22   11.1896  14   -1.6  93    -2.6  4     0     984.4    NA       0.0000   9999     2400  0     0    
2019/07/17  19:07:00  BASE  8.93172  21   11.1896  14   -1.6  93    -2.6  4     0     984.4    NA       0.0000   9999     2260  0     0    
2019/07/17  19:08:00  BASE  9.66084  20   11.1896  14   -1.6  93    -2.6  4     0     984.4    NA       0.0000   9999     2660  0     0    
2019/07/17  19:09:00  BASE  9.78432  21   11.1896  14   -1.6  92    -2.7  4     0     984.4    NA       0.0000   9999     0     0     0    
2019/07/17  19:10:00  BASE  9.69024  21   11.1896  14   -1.6  92    -2.7  3     0     984.4    NA       0.0000   9999     0     0     0    
2019/07/17  19:11:00  BASE  9.69024  20   10.831   14   -1.6  92    -2.8  3     0     984.4    NA       0.0000   9999     2990  0     0    
2019/07/17  19:12:00  BASE  9.56676  19   10.831   14   -1.6  92    -2.8  3     0     984.5    NA       0.0000   9999     2990  0     0    
2019/07/17  19:13:00  BASE  9.702    19   10.831   14   -1.6  92    -2.8  3     0     984.5    NA       0.0000   9999     2890  0     0    
2019/07/17  19:14:00  BASE  9.95484  19   10.5899  22   -1.6  92    -2.8  2     0     984.5    NA       0.0000   9999     2690  0     0    
2019/07/17  19:15:00  BASE  9.6726   19   10.5899  22   -1.6  92    -2.7  2     0     984.5    NA       0.0000   UP       9999  2690  0    
2019/07/17  19:16:00  BASE  9.41388  19   10.5899  22   -1.6  92    -2.8  2     0     984.5    NA       0.0000   UP       9999  2790  0    
2019/07/17  19:17:00  BASE  9.76668  20   10.6487  15   -1.6  92    -2.8  2     0     984.5    NA       0.0000   UP       9999  2820  0    
2019/07/17  19:18:00  BASE  9.7902   19   10.6487  15   -1.7  92    -2.8  1     0     984.5    NA       0.0000   UP       9999  2790  0    
2019/07/17  19:19:00  BASE  9.45504  20   10.6487  15   -1.7  92    -2.8  1     0     984.5    NA       0.0000   UP       9999  0     0    
2019/07/17  19:20:00  BASE  9.6138   23   10.6487  15   -1.7  92    -2.9  1     0     984.6    NA       0.0000   UP       9999  0     0    
2019/07/17  19:21:00  BASE  9.60792  23   10.6487  15   -1.7  92    -2.9  1     0     984.6    NA       0.0000   UP       9999  0     0    
2019/07/17  19:22:00  BASE  9.36684  21   10.6487  15   -1.7  91    -2.9  1     0     984.6    NA       0.0000   UP       9999  0     0    
2019/07/17  19:23:00  BASE  9.22572  20   10.6487  15   -1.7  91    -2.9  1     0     984.7    NA       0.0000   UP       9999  0     0    
2019/07/17  19:24:00  BASE  8.64948  21   10.6487  15   -1.7  91    -3.0  1     0     984.7    NA       0.0000   UP       9999  2300  2920 
2019/07/17  19:25:00  BASE  8.57304  22   10.6487  15   -1.7  91    -3.0  1     0     984.7    NA       0.0000   UP       9999  0     0    
2019/07/17  19:26:00  BASE  9.2022   21   10.6487  15   -1.7  91    -3.0  1     0     984.7    NA       0.0000   UP       9999  0     0    
2019/07/17  19:27:00  BASE  8.89056  18   10.4958  24   -1.7  91    -3.0  1     0     984.7    NA       0.0000   UP       9999  0     0    
2019/07/17  19:28:00  BASE  8.86116  18   10.4958  24   -1.7  91    -3.0  1     0     984.7    NA       0.0000   UP       9999  0     0    
2019/07/17  19:29:00  BASE  9.03168  19   10.4958  24   -1.7  91    -3.0  1     0     984.7    NA       0.0000   UP       9999  0     0    
2019/07/17  19:30:00  BASE  8.54364  19   10.1959  20   -1.7  91    -3.0  1     0     984.7    NA       0.0000   UP       9999  0     0    
2019/07/17  19:31:00  BASE  8.53188  20   10.1959  20   -1.7  91    -3.0  1     0     984.7    NA       0.0000   UP       9999  0     0    
2019/07/17  19:32:00  BASE  8.72592  20   10.1959  20   -1.7  91    -3.0  1     0     984.7    NA       0.0000   9999     0     0     0    
2019/07/17  19:33:00  BASE  9.23748  21   10.7075  21   -1.7  90    -3.1  0     0     984.7    NA       0.0000   9999     2170  0     0    
2019/07/17  19:34:00  BASE  9.57264  19   10.7075  21   -1.7  90    -3.1  0     0     984.7    NA       0.0000   9999     0     0     0    
2019/07/17  19:35:00  BASE  9.6432   21   10.7075  21   -1.7  90    -3.1  0     0     984.7    NA       0.0000   9999     2300  0     0    
2019/07/17  19:36:00  BASE  9.39624  22   10.7075  21   -1.7  90    -3.1  0     0     984.7    NA       0.0000   9999     2360  0     0    
2019/07/17  19:37:00  BASE  8.87292  22   10.7075  21   -1.7  90    -3.1  0     0     984.8    NA       0.0000   9999     2300  0     0    
2019/07/17  19:38:00  BASE  9.10224  22   10.7075  21   -1.7  90    -3.1  0     0     984.8    NA       0.0000   9999     2760  0     0    
2019/07/17  19:39:00  BASE  9.4374   21   10.7075  21   -1.8  90    -3.2  0     0     984.8    NA       0.0000   9999     2850  0     0    
2019/07/17  19:40:00  BASE  9.7608   21   10.831   20   -1.8  90    -3.2  0     0     984.8    NA       0.0000   9999     2790  0     0    
2019/07/17  19:41:00  BASE  9.94896  21   10.831   20   -1.8  90    -3.2  0     0     984.8    NA       0.0000   9999     3020  0     0    
2019/07/17  19:42:00  BASE  9.44328  22   10.831   20   -1.8  90    -3.2  0     0     984.8    NA       0.0000   UP       9999  2130  3180 
2019/07/17  19:43:00  BASE  9.3786   23   10.831   20   -1.7  90    -3.2  0     0     984.8    NA       0.0000   UP       9999  3710  0    
2019/07/17  19:44:00  BASE  9.91956  23   10.831   20   -1.7  90    -3.1  0     0     984.8    NA       0.0000   UP       9999  2230  0    
2019/07/17  19:45:00  BASE  9.94896  22   10.831   20   -1.7  90    -3.1  0     0     984.8    NA       0.0000   UP       9999  1840  0    
2019/07/17  19:46:00  BASE  9.7608   22   10.831   20   -1.7  90    -3.1  0     0     984.8    NA       0.0000   UP       9999  2560  0    
2019/07/17  19:47:00  BASE  9.73728  22   10.831   20   -1.7  90    -3.1  0     0     984.9    NA       0.0000   UP       9999  2950  0    
2019/07/17  19:48:00  BASE  9.86664  22   10.831   20   -1.7  90    -3.1  0     0     984.9    NA       0.0000   UP       9999  5610  0    
2019/07/17  19:49:00  BASE  10.043   22   10.831   20   -1.7  90    -3.1  0     0     984.9    NA       0.0000   UP       9999  5410  0    
2019/07/17  19:50:00  BASE  10.0019  21   10.8016  16   -1.7  91    -3.0  0     0     984.9    NA       0.0000   UP       9999  5350  0    
2019/07/17  19:51:00  BASE  10.043   21   10.8016  16   -1.7  91    -3.0  0     0     984.9    NA       0.0000   UP       9999  5090  0    
2019/07/17  19:52:00  BASE  9.95484  23   10.8016  16   -1.7  91    -3.0  0     0     985.0    NA       0.0000   UP       9999  0     0    
2019/07/17  19:53:00  BASE  9.74904  23   10.8016  16   -1.7  91    -3.0  0     0     985.0    NA       0.0000   UP       9999  0     0    
2019/07/17  19:54:00  BASE  9.8196   23   10.8016  16   -1.7  91    -3.0  0     0     985.0    NA       0.0000   UP       9999  5480  0    
2019/07/17  19:55:00  BASE  9.6726   23   10.8016  16   -1.7  91    -2.9  0     0     985.1    NA       0.0000   UP       9999  5450  0    
2019/07/17  19:56:00  BASE  9.36096  23   10.8016  16   -1.7  92    -2.9  0     0     985.1    NA       0.0000   UP       9999  5450  0    
2019/07/17  19:57:00  BASE  9.47856  21   10.8016  16   -1.7  92    -2.9  0     0     985.1    NA       0.0000   UP       9999  4790  0    
2019/07/17  19:58:00  BASE  9.85488  23   10.8016  16   -1.7  92    -2.8  0     0     985.1    NA       0.0000   UP       9999  0     0    
2019/07/17  19:59:00  BASE  9.77844  23   10.8016  16   -1.7  92    -2.8  0     0     985.2    NA       0.0000   UP       9999  4490  0    
2019/07/17  20:00:00  BASE  9.849    22   10.7663  20   -1.7  92    -2.8  0     0     985.2    NA       0.0000   UP       9999  3080  0    
2019/07/17  20:01:00  BASE  9.94308  23   10.7663  20   -1.7  92    -2.8  0     0     985.1    NA       0.0000   UP       9999  4360  0    
2019/07/17  20:02:00  BASE  9.35508  26   10.7663  20   -1.7  92    -2.8  0     0     985.2    NA       0.0000   UP       9999  4300  0    
2019/07/17  20:03:00  BASE  8.7318   26   10.7663  20   -1.7  92    -2.9  0     0     985.2    NA       0.0000   UP       9999  0     0    
2019/07/17  20:04:00  BASE  8.74356  23   10.7663  20   -1.7  92    -2.9  0     0     985.2    NA       0.0000   UP       9999  4130  0    
2019/07/17  20:05:00  BASE  9.22572  22   10.7663  20   -1.8  92    -2.9  0     0     985.2    NA       0.0000   UP       9999  4100  0    
2019/07/17  20:06:00  BASE  9.38448  22   10.7663  20   -1.8  92    -2.9  0     0     985.2    NA       0.0000   UP       9999  4000  0    
2019/07/17  20:07:00  BASE  9.3786   22   10.7663  20   -1.8  92    -2.9  0     0     985.2    NA       0.0000   UP       9999  3970  0    
2019/07/17  20:08:00  BASE  9.27276  22   10.7663  20   -1.8  92    -2.9  0     0     985.3    NA       0.0000   UP       9999  3870  0    
2019/07/17  20:09:00  BASE  9.00816  22   10.7663  20   -1.8  92    -2.9  0     0     985.3    NA       0.0000   UP       9999  3900  0    
2019/07/17  20:10:00  BASE  9.13752  22   10.3135  28   -1.8  92    -2.9  0     0     985.3    NA       0.0000   UP       9999  4040  0    
2019/07/17  20:11:00  BASE  9.25512  23   10.1959  20   -1.8  92    -2.9  0     0     985.3    NA       0.0000   UP       9999  0     0    
2019/07/17  20:12:00  BASE  9.22572  21   10.1959  20   -1.8  92    -2.9  0     0     985.3    NA       0.0000   UP       9999  3970  0    
2019/07/17  20:13:00  BASE  9.34332  22   10.1959  20   -1.8  93    -2.8  0     0     985.3    NA       0.0000   UP       9999  3940  0    
2019/07/17  20:14:00  BASE  9.408    24   10.1959  24   -1.8  93    -2.8  0     0     985.3    NA       0.0000   UP       9999  2620  0    
2019/07/17  20:15:00  BASE  9.114    24   10.1959  24   -1.8  93    -2.8  0     0     985.3    NA       0.0000   UP       9999  3870  0    
2019/07/17  20:16:00  BASE  8.66124  22   10.1959  24   -1.8  93    -2.8  0     0     985.4    NA       0.0000   UP       9999  3770  0    
2019/07/17  20:17:00  BASE  8.66712  20   10.1959  24   -1.8  93    -2.8  0     0     985.4    NA       0.0000   UP       9999  3770  0    
2019/07/17  20:18:00  BASE  8.69652  19   10.1959  24   -1.8  93    -2.8  0     0     985.4    NA       0.0000   UP       9999  3770  0    
2019/07/17  20:19:00  BASE  8.53776  19   10.1959  24   -1.8  93    -2.7  0     0     985.4    NA       0.0000   UP       9999  3810  0    
2019/07/17  20:20:00  BASE  8.66124  20   10.1959  24   -1.8  94    -2.7  0     0     985.4    NA       0.0000   UP       9999  3810  0    
2019/07/17  20:21:00  BASE  8.6142   20   10.1959  24   -1.7  94    -2.6  0     0     985.4    NA       0.0000   UP       9999  3840  0    
2019/07/17  20:22:00  BASE  8.33196  19   10.1959  24   -1.7  94    -2.6  0     0     985.5    NA       0.0000   UP       9999  3900  0    
2019/07/17  20:23:00  BASE  8.3496   20   10.1959  24   -1.7  94    -2.6  0     0     985.4    NA       0.0000   UP       9999  3940  0    
2019/07/17  20:24:00  BASE  8.5848   21   9.89016  22   -1.7  94    -2.6  0     0     985.5    NA       0.0000   UP       9999  3870  0    
2019/07/17  20:25:00  BASE  8.4084   20   9.89016  22   -1.7  93    -2.7  0     0     985.5    NA       0.0000   9999     3870  0     0    
2019/07/17  20:26:00  BASE  8.24376  20   9.89016  22   -1.8  93    -2.7  0     0     985.5    NA       0.0000   9999     3900  0     0    
2019/07/17  20:27:00  BASE  8.34372  19   9.89016  22   -1.8  93    -2.7  0     0     985.5    NA       0.0000   9999     3970  0     0    
2019/07/17  20:28:00  BASE  7.75572  17   9.89016  22   -1.8  94    -2.7  0     0     985.5    NA       0.0000   9999     3900  0     0    
2019/07/17  20:29:00  BASE  8.00268  17   9.89016  22   -1.8  94    -2.6  0     0     985.5    NA       0.0000   9999     2400  3870  0    
2019/07/17  20:30:00  BASE  8.64948  18   9.3786   17   -1.8  94    -2.6  0     0     985.5    NA       0.0000   9999     2360  2920  0    
2019/07/17  20:31:00  BASE  8.53776  19   9.408    22   -1.7  94    -2.5  0     0     985.5    NA       0.0000   9999     2300  4000  0    
2019/07/17  20:32:00  BASE  8.50836  20   9.408    22   -1.7  95    -2.5  0     0     985.6    NA       0.0000   9999     2790  4070  0    
2019/07/17  20:33:00  BASE  8.86704  21   9.59028  22   -1.7  95    -2.5  0     0     985.5    NA       0.0000   9999     2760  4100  0    
2019/07/17  20:34:00  BASE  9.33744  22   9.80196  22   -1.7  95    -2.5  0     0     985.5    NA       0.0000   9999     2660  4000  0    
2019/07/17  20:35:00  BASE  9.114    22   9.80196  22   -1.7  94    -2.5  0     0     985.6    NA       0.0000   9999     2560  4040  0    
2019/07/17  20:36:00  BASE  8.76708  20   9.80196  22   -1.7  94    -2.5  0     0     985.6    NA       0.0000   9999     2170  4070  0    
2019/07/17  20:37:00  BASE  8.26728  19   9.80196  22   -1.7  94    -2.5  0     0     985.6    NA       0.0000   9999     2200  4100  0    
2019/07/17  20:38:00  BASE  8.18496  19   9.80196  22   -1.7  94    -2.5  0     0     985.6    NA       0.0000   9999     2170  4100  0    
2019/07/17  20:39:00  BASE  8.70828  18   9.80196  22   -1.7  95    -2.5  0     0     985.6    NA       0.0000   9999     2000  4040  0    
2019/07/17  20:40:00  BASE  8.66712  19   9.80196  22   -1.7  95    -2.5  0     0     985.7    NA       0.0000   9999     2030  4070  0    
2019/07/17  20:41:00  BASE  8.38488  19   9.80196  22   -1.7  95    -2.4  0     0     985.7    NA       0.0000   9999     4040  0     0    
2019/07/17  20:42:00  BASE  7.92036  17   9.80196  22   -1.7  95    -2.3  0     0     985.8    NA       0.0000   UP       9999  4070  0    
2019/07/17  20:43:00  BASE  7.35588  16   9.80196  22   -1.7  96    -2.3  0     0     985.8    NA       0.0000   UP       9999  3970  0    
2019/07/17  20:44:00  BASE  7.23828  17   9.64908  19   -1.7  96    -2.3  0     0     985.8    NA       0.0000   UP       9999  4000  0    
2019/07/17  20:45:00  BASE  7.791    16   9.64908  19   -1.7  96    -2.3  0     0     985.8    NA       0.0000   UP       9999  1740  4000 
2019/07/17  20:46:00  BASE  8.77884  17   10.1959  13   -1.7  96    -2.3  0     0     985.7    NA       0.0000   9999     1840  3870  0    
2019/07/17  20:47:00  BASE  8.66124  20   10.1959  13   -1.7  96    -2.3  0     0     985.8    NA       0.0000   9999     2030  3940  0    
2019/07/17  20:48:00  BASE  7.86156  20   10.1959  13   -1.7  96    -2.3  0     0     985.8    NA       0.0000   9999     1870  0     0    
2019/07/17  20:49:00  BASE  7.5558   18   10.1959  13   -1.7  96    -2.3  0     0     985.9    NA       0.0000   UP       9999  1840  0    
2019/07/17  20:50:00  BASE  7.20888  14   10.1959  13   -1.7  96    -2.3  0     0     985.9    NA       0.0000   UP       9999  1840  0    
2019/07/17  20:51:00  BASE  6.74436  17   10.1959  13   -1.7  96    -2.2  0     0     985.9    NA       0.0000   UP       9999  1940  3970 
2019/07/17  20:52:00  BASE  6.49152  15   10.1959  13   -1.7  97    -2.2  0     0     985.9    NA       0.0000   9999     3970  0     0    
2019/07/17  20:53:00  BASE  6.40332  15   10.1959  13   -1.7  97    -2.2  0     0     986.0    NA       0.0000   9999     1510  0     0    
2019/07/17  20:54:00  BASE  6.34452  20   10.1959  13   -1.7  97    -2.1  0     0     985.9    NA       0.0000   9999     1800  0     0    
2019/07/17  20:55:00  BASE  6.01524  18   10.1959  13   -1.7  97    -2.1  0     0     986.0    NA       0.0000   9999     1940  0     0    
2019/07/17  20:56:00  BASE  5.76828  21   9.3786   20   -1.7  97    -2.1  0     0     986.0    NA       0.0000   9999     2030  0     0    
2019/07/17  20:57:00  BASE  5.94468  21   8.74356  8    -1.7  97    -2.1  0     0     986.0    NA       0.0000   9999     1800  0     0    
2019/07/17  20:58:00  BASE  6.21516  15   8.74356  8    -1.7  97    -2.1  0     0     986.0    NA       0.0000   9999     1800  0     0    
2019/07/17  20:59:00  BASE  6.55032  13   8.74356  8    -1.7  97    -2.1  0     0     985.9    NA       0.0000   9999     1840  0     0    
2019/07/17  21:00:00  BASE  6.53268  12   7.74396  346  -1.6  97    -2.0  0     0     986.0    NA       0.0000   9999     1840  0     0    
2019/07/17  21:01:00  BASE  5.87412  8    7.74396  346  -1.6  97    -2.0  0     0     986.1    NA       0.0000   9999     1870  0     0    
2019/07/17  21:02:00  BASE  5.06856  15   7.44408  8    -1.5  97    -2.0  0     0     986.1    NA       0.0000   9999     1940  0     0    
2019/07/17  21:03:00  BASE  5.15088  21   7.44408  8    -1.5  96    -2.0  0     0     986.0    NA       0.0000   9999     1710  0     0    
2019/07/17  21:04:00  BASE  5.35668  13   7.44408  8    -1.5  96    -2.0  0     0     986.1    NA       0.0000   9999     1740  4070  0    
2019/07/17  21:05:00  BASE  4.94508  3    7.44408  8    -1.5  96    -2.1  0     0     986.1    NA       0.0000   9999     1770  4040  0    
2019/07/17  21:06:00  BASE  4.96272  357  7.44408  8    -1.5  96    -2.1  0     0     986.0    NA       0.0000   9999     4000  0     0    
2019/07/17  21:07:00  BASE  5.26848  6    7.44408  8    -1.5  96    -2.1  0     0     986.1    NA       0.0000   9999     3970  0     0    
2019/07/17  21:08:00  BASE  5.20968  15   7.44408  8    -1.4  95    -2.1  0     0     986.1    NA       0.0000   9999     3970  0     0    
2019/07/17  21:09:00  BASE  5.00388  12   7.19712  8    -1.4  95    -2.1  0     0     986.2    NA       0.0000   9999     3940  0     0    
2019/07/17  21:10:00  BASE  5.2332   14   6.68556  11   -1.4  94    -2.2  0     0     986.2    NA       0.0000   9999     2460  3940  0    
2019/07/17  21:11:00  BASE  5.6448   17   6.68556  11   -1.4  94    -2.3  0     0     986.2    NA       0.0000   9999     1770  3970  0    
2019/07/17  21:12:00  BASE  5.98584  12   6.74436  4    -1.5  94    -2.3  0     0     986.2    NA       0.0000   9999     1840  2360  3940 
2019/07/17  21:13:00  BASE  5.9094   14   7.65576  17   -1.5  94    -2.3  0     0     986.2    NA       0.0000   9999     2330  3970  0    
2019/07/17  21:14:00  BASE  5.00388  15   7.65576  17   -1.5  94    -2.4  0     0     986.2    NA       0.0000   9999     1800  4000  0    
2019/07/17  21:15:00  BASE  5.21556  8    7.65576  17   -1.5  94    -2.4  0     0     986.2    NA       0.0000   9999     1800  3940  0    
2019/07/17  21:16:00  BASE  5.45076  12   7.65576  17   -1.5  94    -2.3  0     0     986.3    NA       0.0000   9999     1800  3900  0    
2019/07/17  21:17:00  BASE  4.78632  16   7.65576  17   -1.5  94    -2.3  0     0     986.3    NA       0.0000   9999     2100  3840  0    
2019/07/17  21:18:00  BASE  4.4982   15   7.65576  17   -1.5  94    -2.3  0     0     986.3    NA       0.0000   9999     1940  0     0    
2019/07/17  21:19:00  BASE  4.50408  13   7.65576  17   -1.5  94    -2.3  0     0     986.3    NA       0.0000   9999     1870  0     0    
2019/07/17  21:20:00  BASE  5.1156   9    7.65576  17   -1.5  94    -2.3  0     0     986.3    NA       0.0000   9999     1870  0     0    
2019/07/17  21:21:00  BASE  5.45076  11   7.65576  17   -1.5  94    -2.3  0     0     986.4    NA       0.0000   9999     2000  0     0    
2019/07/17  21:22:00  BASE  5.23908  17   7.65576  17   -1.5  94    -2.3  0     0     986.4    NA       0.0000   9999     2030  0     0    
2019/07/17  21:23:00  BASE  4.9392   14   6.98544  20   -1.5  94    -2.3  0     0     986.4    NA       0.0000   9999     2100  0     0    
2019/07/17  21:24:00  BASE  4.6746   13   6.98544  20   -1.5  94    -2.3  0     0     986.5    NA       0.0000   9999     1900  0     0    
2019/07/17  21:25:00  BASE  5.09208  15   6.02112  15   -1.5  94    -2.3  0     0     986.5    NA       0.0000   9999     1870  0     0    
2019/07/17  21:26:00  BASE  5.38608  15   6.02112  15   -1.5  94    -2.3  0     0     986.5    NA       0.0000   9999     1940  3710  0    
2019/07/17  21:27:00  BASE  4.85688  13   6.02112  15   -1.5  94    -2.3  0     0     986.5    NA       0.0000   9999     1840  3670  0    
2019/07/17  21:28:00  BASE  4.5276   10   6.02112  15   -1.5  94    -2.3  0     0     986.5    NA       0.0000   9999     1800  3640  0    
2019/07/17  21:29:00  BASE  4.6746   7    6.02112  15   -1.5  94    -2.3  0     0     986.5    NA       0.0000   9999     1670  3710  0    
2019/07/17  21:30:00  BASE  4.77456  8    6.02112  15   -1.5  94    -2.3  0     0     986.6    NA       0.0000   9999     1800  3710  0    
2019/07/17  21:31:00  BASE  5.18028  14   6.07992  19   -1.5  94    -2.3  0     0     986.6    NA       0.0000   9999     1800  3770  0    
2019/07/17  21:32:00  BASE  5.62716  18   6.07992  19   -1.5  94    -2.3  0     0     986.6    NA       0.0000   9999     1870  0     0    
2019/07/17  21:33:00  BASE  5.66244  15   6.07992  19   -1.5  95    -2.3  0     0     986.6    NA       0.0000   9999     1870  0     0    
2019/07/17  21:34:00  BASE  5.4978   11   6.07992  19   -1.5  95    -2.2  0     0     986.6    NA       0.0000   9999     1870  0     0    
2019/07/17  21:35:00  BASE  5.38608  8    6.2034   4    -1.5  95    -2.2  0     0     986.6    NA       0.0000   9999     1870  0     0    
2019/07/17  21:36:00  BASE  5.586    7    6.2034   4    -1.5  95    -2.2  0     0     986.6    NA       0.0000   9999     1870  0     0    
2019/07/17  21:37:00  BASE  5.65068  9    6.2034   4    -1.5  95    -2.2  0     0     986.6    NA       0.0000   9999     1870  0     0    
2019/07/17  21:38:00  BASE  5.33904  11   6.2034   4    -1.5  95    -2.2  0     0     986.6    NA       0.0000   9999     1900  0     0    
2019/07/17  21:39:00  BASE  5.59776  12   6.53268  12   -1.5  95    -2.2  0     0     986.6    NA       0.0000   9999     1900  0     0    
2019/07/17  21:40:00  BASE  6.12108  12   6.71496  8    -1.5  95    -2.2  0     0     986.6    NA       0.0000   9999     1840  0     0    
2019/07/17  21:41:00  BASE  5.82708  10   6.71496  8    -1.5  95    -2.2  0     0     986.7    NA       0.0000   9999     1840  0     0    
2019/07/17  21:42:00  BASE  5.3802   7    6.71496  8    -1.5  95    -2.2  0     0     986.7    NA       0.0000   9999     1800  0     0    
2019/07/17  21:43:00  BASE  5.42724  9    6.71496  8    -1.5  95    -2.2  0     0     986.7    NA       0.0000   9999     1770  0     0    
2019/07/17  21:44:00  BASE  5.63892  10   6.71496  8    -1.5  95    -2.2  0     0     986.7    NA       0.0000   9999     1770  0     0    
2019/07/17  21:45:00  BASE  5.3802   6    6.71496  8    -1.5  95    -2.2  0     0     986.7    NA       0.0000   9999     1740  0     0    
2019/07/17  21:46:00  BASE  5.09208  5    6.71496  8    -1.5  95    -2.2  0     0     986.8    NA       0.0000   9999     1770  0     0    
2019/07/17  21:47:00  BASE  5.22732  3    6.71496  8    -1.5  95    -2.3  0     0     986.8    NA       0.0000   9999     1740  0     0    
2019/07/17  21:48:00  BASE  4.8804   359  6.71496  8    -1.6  95    -2.3  0     0     986.8    NA       0.0000   9999     1670  0     0    
2019/07/17  21:49:00  BASE  4.72752  354  6.71496  8    -1.6  95    -2.3  0     0     986.8    NA       0.0000   9999     1610  0     0    
2019/07/17  21:50:00  BASE  4.86864  353  6.13872  6    -1.6  95    -2.3  0     0     986.8    NA       0.0000   9999     1610  0     0    
2019/07/17  21:51:00  BASE  4.998    358  6.13872  6    -1.6  95    -2.3  0     0     986.9    NA       0.0000   9999     1510  0     0    
2019/07/17  21:52:00  BASE  5.13912  359  6.13872  6    -1.6  95    -2.3  0     0     986.9    NA       0.0000   9999     1540  0     0    
2019/07/17  21:53:00  BASE  4.66284  350  5.99172  12   -1.6  95    -2.3  0     0     987.0    NA       0.0000   9999     1610  0     0    
2019/07/17  21:54:00  BASE  4.31004  352  5.83884  3    -1.6  95    -2.3  0     0     987.0    NA       0.0000   9999     1610  0     0    
2019/07/17  21:55:00  BASE  4.3512   1    5.83884  3    -1.6  95    -2.3  0     0     987.0    NA       0.0000   9999     1740  0     0    
2019/07/17  21:56:00  BASE  4.38648  3    5.83884  3    -1.6  95    -2.3  0     0     987.0    NA       0.0000   9999     1610  0     0    
2019/07/17  21:57:00  BASE  4.11012  358  5.74476  6    -1.6  95    -2.3  0     0     987.0    NA       0.0000   9999     1710  0     0    
2019/07/17  21:58:00  BASE  3.83964  353  5.74476  6    -1.6  95    -2.3  0     0     987.1    NA       0.0000   9999     1670  0     0    
2019/07/17  21:59:00  BASE  3.96312  349  5.74476  6    -1.6  95    -2.3  0     0     987.1    NA       0.0000   9999     1670  3640  0    
2019/07/17  22:00:00  BASE  4.13952  350  5.74476  6    -1.6  95    -2.3  0     0     987.1    NA       0.0000   9999     1510  2170  3610 
2019/07/17  22:01:00  BASE  4.18068  350  5.59776  355  -1.6  95    -2.2  0     0     987.1    NA       0.0000   9999     1480  0     0    
2019/07/17  22:02:00  BASE  4.24536  352  4.86864  349  -1.6  96    -2.2  0     0     987.1    NA       0.0000   9999     1440  2460  3540 
2019/07/17  22:03:00  BASE  3.86316  352  4.86864  349  -1.6  96    -2.2  0     0     987.1    NA       0.0000   9999     1610  2260  3670 
2019/07/17  22:04:00  BASE  3.34572  350  4.86864  349  -1.6  96    -2.1  0     0     987.2    NA       0.0000   9999     1350  0     0    
2019/07/17  22:05:00  BASE  3.22224  350  4.86864  349  -1.6  96    -2.1  0     0     987.2    NA       0.0000   9999     1480  0     0    
2019/07/17  22:06:00  BASE  3.09288  347  4.86864  349  -1.6  96    -2.1  0     0     987.2    NA       0.0000   9999     1480  0     0    
2019/07/17  22:07:00  BASE  2.81652  343  4.86864  349  -1.6  96    -2.1  0     0     987.2    NA       0.0000   9999     1410  0     0    
2019/07/17  22:09:01  BASE  M        M    12.66    119  -1.6  96    -2.1  M     M     M        NA       0.0000   M        M     M     M    
2019/07/17  22:10:01  BASE  M        M    12.66    119  -1.6  96    -2.2  0     0     M        NA       0.0000   9999     1610  0     0    
2019/07/17  22:11:00  BASE  2.69304  347  7.44408  119  -1.6  96    -2.1  0     0     987.2    NA       0.0000   UP       9999  1570  0    
2019/07/17  22:12:00  BASE  2.72832  349  7.44408  119  -1.6  97    -2.1  0     0     987.2    NA       0.0000   UP       9999  1540  0    
2019/07/17  22:13:00  BASE  2.71068  348  7.44408  119  -1.6  97    -2.0  0     0     987.3    NA       0.0000   UP       9999  1570  0    
2019/07/17  22:14:00  BASE  2.59308  349  7.44408  119  -1.7  97    -2.0  0     0     987.3    NA       0.0000   UP       9999  1540  0    
2019/07/17  22:15:00  BASE  2.48724  350  7.44408  119  -1.7  98    -2.0  0     0     987.3    NA       0.0000   UP       7000  1640  0    
2019/07/17  22:16:00  BASE  2.56368  349  7.44408  119  -1.7  98    -2.0  0     0     987.3    NA       0.0000   UP       9999  1570  0    
2019/07/17  22:17:00  BASE  2.56368  344  2.96352  350  -1.7  98    -2.0  0     0     987.3    NA       0.0000   UP       9999  1640  0    
2019/07/17  22:18:00  BASE  2.28732  339  2.96352  350  -1.7  98    -2.0  0     0     987.3    NA       0.0000   UP       9999  1610  0    
2019/07/17  22:19:00  BASE  2.09916  335  2.96352  350  -1.7  98    -1.9  0     0     987.3    NA       0.0000   UP       9999  1540  0    
2019/07/17  22:20:01  BASE  2.12268  334  2.96352  350  -1.7  98    -1.9  0     0     987.4    NA       0.0000   UP       9999  1640  0    
2019/07/17  22:21:00  BASE  2.0286   342  2.93412  350  -1.7  98    -1.9  0     0     987.4    NA       0.0000   UP       7000  1610  0    
2019/07/17  22:22:00  BASE  2.16384  352  2.87532  347  -1.7  98    -1.9  0     0     987.4    NA       0.0000   UP       BR    5000  1570 
2019/07/17  22:23:00  BASE  2.31672  352  2.87532  347  -1.7  99    -1.9  0     0     987.4    NA       0.0000   UP       BR    9000  1540 
2019/07/17  22:24:00  BASE  2.4696   346  3.35748  353  -1.7  99    -1.9  0     0     987.4    NA       0.0000   UP       BR    9999  1610 
2019/07/17  22:25:00  BASE  2.76948  348  3.35748  347  -1.8  99    -1.9  0     0     987.4    NA       0.0000   UP       BR    9999  1640 
2019/07/17  22:26:00  BASE  2.62248  350  3.35748  347  -1.8  99    -1.9  0     0     987.4    NA       0.0000   UP       BR    9999  1670 
2019/07/17  22:27:00  BASE  2.499    349  3.35748  347  -1.8  99    -1.9  0     0     987.5    NA       0.0000   UP       BR    9999  430  
2019/07/17  22:28:00  BASE  2.58132  349  3.35748  347  -1.8  99    -1.9  0     0     987.5    NA       0.0000   UP       BR    9999  390  
2019/07/17  22:29:01  BASE  2.57544  351  3.35748  347  -1.8  99    -1.9  0     0     987.5    NA       0.0000   UP       BR    9000  360  
2019/07/17  22:30:00  BASE  2.5872   349  3.35748  347  -1.8  99    -1.9  0     0     987.5    NA       0.0000   UP       BR    9999  360  
2019/07/17  22:31:00  BASE  2.57544  345  3.35748  347  -1.8  99    -1.9  0     0     987.5    NA       0.0000   UP       BR    9000  360  
2019/07/17  22:32:00  BASE  2.47548  348  3.35748  347  -1.8  99    -1.9  0     0     987.5    NA       0.0000   UP       BR    7000  360  
2019/07/17  22:33:00  BASE  2.42844  352  3.35748  347  -1.8  100   -1.8  0     0     987.5    NA       0.0000   UP       BR    7000  330  
2019/07/17  22:34:00  BASE  2.48724  354  3.35748  347  -1.8  100   -1.8  0     0     987.5    NA       0.0000   UP       BR    8000  330  
2019/07/17  22:35:00  BASE  2.55192  355  2.87532  346  -1.8  100   -1.8  0     0     987.5    NA       0.0000   UP       BR    6000  330  
2019/07/17  22:36:00  BASE  2.42844  354  2.87532  346  -1.8  100   -1.8  0     0     987.5    NA       0.0000   UP       BR    4800  300  
2019/07/17  22:37:00  BASE  2.32848  352  2.87532  346  -1.8  100   -1.8  0     0     987.6    NA       0.0000   -SN      BR    4600  300  
2019/07/17  22:38:00  BASE  2.46372  351  2.87532  346  -1.8  100   -1.8  0     0     987.6    NA       0.0000   -SN      BR    4100  300  
2019/07/17  22:39:00  BASE  2.51664  352  2.87532  346  -1.8  100   -1.8  0     0     987.5    NA       0.0000   -SN      BR    4300  260  
2019/07/17  22:40:00  BASE  2.41668  354  2.87532  346  -1.8  100   -1.8  0     0     987.6    NA       0.0000   -SN      BR    4000  260  
2019/07/17  22:41:00  BASE  2.36964  359  2.75184  350  -1.9  100   -1.9  0     0     987.6    NA       0.0000   -SN      BR    4000  0    
2019/07/17  22:42:00  BASE  2.2932   0    2.75184  350  -1.9  100   -1.9  0     0     987.6    NA       0.0000   -SN      BR    3900  230  
2019/07/17  22:43:00  BASE  2.22852  357  2.75184  344  -1.9  100   -1.9  0     0     987.6    NA       0.0000   -SN      BR    3900  0    
2019/07/17  22:44:00  BASE  2.22264  350  2.75184  344  -1.9  100   -1.9  0     0     987.6    NA       0.0000   -SN      BR    3700  0    
2019/07/17  22:45:00  BASE  1.96392  352  2.75184  344  -1.9  100   -1.9  0     0     987.6    NA       0.0000   -SN      BR    2900  0    
2019/07/17  22:46:00  BASE  1.62876  4    2.75184  344  -1.9  100   -1.9  0     0     987.6    NA       0.0000   -SN      BR    2700  0    
2019/07/17  22:47:00  BASE  1.53468  0    2.75184  344  -1.9  100   -1.9  0     0     987.6    NA       0.0000   -SN      BR    2800  0    
2019/07/17  22:48:00  BASE  1.58172  349  2.75184  344  -2.0  100   -2.0  0     0     987.6    NA       0.0000   -SN      BR    2600  0    
2019/07/17  22:49:00  BASE  1.76988  348  2.75184  344  -2.0  100   -2.0  0     0     987.6    NA       0.0000   -SN      BR    2800  0    
2019/07/17  22:50:00  BASE  1.78752  344  2.75184  344  -2.0  100   -2.0  0     0     987.6    NA       0.0000   -SN      BR    2700  0    
2019/07/17  22:51:00  BASE  1.57584  342  2.75184  344  -2.0  100   -2.0  0     0     987.7    NA       0.0000   -SN      BR    2500  0    
2019/07/17  22:52:00  BASE  1.37592  347  2.75184  344  -2.0  100   -2.0  0     0     987.7    NA       0.0000   -SN      BR    2200  0    
2019/07/17  22:53:00  BASE  0.87612  339  2.72244  344  -2.1  100   -2.1  0     0     987.7    NA       0.0000   -SN      BR    2600  0    
2019/07/17  22:54:00  BASE  0.34104  344  2.1168   344  -2.1  100   -2.1  0     0     987.7    NA       0.0000   -SN      BR    3200  0    
2019/07/17  22:55:00  BASE  0.25284  355  2.1168   344  -2.1  100   -2.1  0     0     987.7    NA       0.0000   -SN      BR    4100  0    
2019/07/17  22:56:00  BASE  0.48216  341  2.1168   344  -2.1  100   -2.1  0     0     987.7    NA       0.0000   -SN      BR    3000  0    
2019/07/17  22:57:00  BASE  0.6762   343  2.1168   344  -2.1  100   -2.1  0     0     987.7    NA       0.0000   -SN      BR    3200  300  
2019/07/17  22:58:00  BASE  0.8526   12   2.1168   344  -2.1  100   -2.1  0     0     987.7    NA       0.0000   -SN      BR    3300  0    
2019/07/17  22:59:00  BASE  1.21128  31   2.1462   26   -2.1  100   -2.1  0     0     987.7    NA       0.0000   -SN      BR    3800  0    
2019/07/17  23:00:00  BASE  1.66992  34   2.78124  22   -2.1  100   -2.1  0     0     987.7    NA       0.0000   -SN      BR    4000  0    
2019/07/17  23:01:00  BASE  1.84044  33   2.78124  22   -2.1  100   -2.1  0     0     987.7    NA       0.0000   -SN      BR    4000  0    
2019/07/17  23:02:00  BASE  1.80516  22   2.78124  22   -2.1  100   -2.1  0     0     987.7    NA       0.0000   -SN      BR    4500  0    
2019/07/17  23:03:00  BASE  2.0874   13   2.84592  6    -2.1  100   -2.1  0     0     987.8    NA       0.0000   -SN      BR    5000  0    
2019/07/17  23:04:00  BASE  2.42844  15   2.87532  25   -2.1  100   -2.1  0     0     987.8    NA       0.0000   -SN      BR    6000  360  
2019/07/17  23:05:00  BASE  2.352    21   3.1458   10   -2.0  100   -2.0  0     0     987.8    NA       0.0000   -SN      BR    5000  330  
2019/07/17  23:06:00  BASE  2.5578   22   3.56916  23   -2.0  100   -2.0  0     0     987.8    NA       0.0000   -SN      BR    4200  330  
2019/07/17  23:07:00  BASE  2.89296  26   3.56916  23   -2.0  100   -2.0  0     0     987.8    NA       0.0000   -SN      BR    4100  0    
2019/07/17  23:08:00  BASE  2.81064  29   3.56916  23   -2.0  100   -2.0  0     0     987.8    NA       0.0000   -SN      BR    3900  0    
2019/07/17  23:09:00  BASE  2.76948  28   3.56916  23   -2.0  100   -2.0  0     0     987.8    NA       0.0000   -SN      BR    3700  300  
2019/07/17  23:10:00  BASE  2.53428  24   3.56916  23   -2.0  100   -2.0  0     0     987.8    NA       0.0000   -SN      BR    3100  260  
2019/07/17  23:11:00  BASE  2.2344   25   3.56916  23   -2.0  100   -2.0  0     0     987.9    NA       0.0000   -SN      BR    2200  230  
2019/07/17  23:12:00  BASE  2.19324  34   3.56916  23   -2.0  100   -2.0  0     0     987.9    NA       0.0000   -SN      BR    2600  230  
2019/07/17  23:13:00  BASE  1.99332  38   3.56916  23   -2.0  100   -2.0  0     0     987.9    NA       0.0000   -SN      BR    3000  260  
2019/07/17  23:14:00  BASE  1.46412  47   3.56916  23   -2.0  100   -2.0  0     0     987.9    NA       0.0000   -SN      BR    3200  260  
2019/07/17  23:15:00  BASE  1.02312  54   3.56916  23   -2.1  100   -2.1  0     0     987.9    NA       0.0000   -SN      BR    3200  260  
2019/07/17  23:16:00  BASE  1.22892  37   3.53976  27   -2.1  100   -2.1  0     0     987.9    NA       0.0000   -SN      BR    3500  300  
2019/07/17  23:17:00  BASE  1.39944  29   3.35748  25   -2.1  100   -2.1  0     0     987.9    NA       0.0000   -SN      BR    3600  300  
2019/07/17  23:18:00  BASE  1.54644  31   2.93412  26   -2.1  100   -2.1  0     0     987.9    NA       0.0000   -SN      BR    4300  300  
2019/07/17  23:19:00  BASE  1.71696  33   2.81064  20   -2.1  100   -2.1  0     0     987.9    NA       0.0000   -SN      BR    3700  0    
2019/07/17  23:20:00  BASE  1.54056  34   2.63424  16   -2.1  100   -2.1  0     0     987.9    NA       0.0000   -SN      BR    3900  0    
2019/07/17  23:21:00  BASE  1.45236  35   2.59896  33   -2.1  100   -2.1  0     0     987.9    NA       0.0000   -SN      BR    3900  0    
2019/07/17  23:22:00  BASE  1.19952  41   2.21088  32   -2.1  100   -2.1  0     0     988.0    NA       0.0000   -SN      BR    3400  300  
2019/07/17  23:23:00  BASE  0.78792  40   2.21088  32   -2.1  100   -2.1  0     0     988.0    NA       0.0000   -SN      BR    3500  260  
2019/07/17  23:24:00  BASE  0.77616  21   2.21088  32   -2.1  100   -2.1  0     0     988.0    NA       0.0000   -SN      BR    3400  260  
2019/07/17  23:25:00  BASE  1.02312  9    2.21088  32   -2.1  100   -2.1  0     0     988.1    NA       0.0000   -SN      BR    3800  300  
2019/07/17  23:26:00  BASE  0.66444  357  2.21088  32   -2.1  100   -2.1  0     0     988.1    NA       0.0000   -SN      BR    3900  300  
2019/07/17  23:27:00  BASE  0.31164  309  2.21088  32   -2.1  100   -2.1  0     0     988.1    NA       0.0000   -SN      BR    4100  360  
2019/07/17  23:28:00  BASE  0.55272  248  2.0874   22   -2.1  100   -2.1  0     0     988.1    NA       0.0000   -SN      BR    4400  360  
2019/07/17  23:29:00  BASE  0.77028  252  2.0874   22   -2.1  100   -2.1  0     0     988.2    NA       0.0000   -SN      BR    5000  360  
2019/07/17  23:30:00  BASE  0.85848  265  1.75224  36   -2.2  100   -2.2  0     0     988.2    NA       0.0000   -SN      BR    5000  330  
2019/07/17  23:31:00  BASE  0.95256  257  1.66404  349  -2.2  100   -2.2  0     0     988.2    NA       0.0000   -SN      BR    4100  330  
2019/07/17  23:32:00  BASE  0.97608  243  1.66404  349  -2.2  100   -2.2  0     0     988.2    NA       0.0000   -SN      BR    3900  330  
2019/07/17  23:33:00  BASE  0.81144  227  1.66404  349  -2.2  100   -2.2  0     0     988.2    NA       0.0000   -SN      BR    3400  300  
2019/07/17  23:34:00  BASE  0.50568  195  1.27008  9    -2.2  100   -2.2  0     0     988.2    NA       0.0000   -SN      BR    2700  260  
2019/07/17  23:35:00  BASE  0.2352   218  1.24068  176  -2.1  100   -2.1  0     0     988.2    NA       0.0000   -SN      BR    2500  230  
2019/07/17  23:36:00  BASE  0.16464  251  1.24068  176  -2.1  100   -2.1  0     0     988.2    NA       0.0000   -SN      BR    2700  0    
2019/07/17  23:37:00  BASE  0.1176   244  1.24068  176  -2.1  100   -2.1  0     0     988.2    NA       0.0000   -SN      BR    2800  0    
2019/07/17  23:38:00  BASE  0        234  1.24068  176  -2.1  100   -2.1  0     0     988.3    NA       0.0000   -SN      BR    2700  230  
2019/07/17  23:39:00  BASE  0        248  1.24068  176  -2.2  100   -2.2  0     0     988.3    NA       0.0000   -SN      BR    3300  230  
2019/07/17  23:40:00  BASE  0        270  1.24068  176  -2.2  100   -2.2  0     0     988.3    NA       0.0000   -SN      BR    3400  230  
2019/07/17  23:41:00  BASE  0        294  1.24068  176  -2.2  100   -2.2  0     0     988.3    NA       0.0000   -SN      BR    3800  260  
2019/07/17  23:42:00  BASE  0.0588   335  1.24068  176  -2.2  100   -2.2  0     0     988.3    NA       0.0000   -SN      BR    4000  300  
2019/07/17  23:43:00  BASE  0.0588   339  1.24068  176  -2.2  100   -2.2  0     0     988.3    NA       0.0000   -SN      BR    4600  300  
2019/07/17  23:44:00  BASE  0.0294   287  0.81732  11   -2.2  100   -2.2  0     0     988.4    NA       0.0000   -SN      BR    4900  260  
2019/07/17  23:45:00  BASE  0.75264  283  1.81692  296  -2.2  100   -2.2  0     0     988.4    NA       0.0000   -SN      BR    4700  230  
2019/07/17  23:46:00  BASE  1.4994   299  1.81692  296  -2.2  100   -2.2  0     0     988.4    NA       0.0000   -SN      BR    3900  0    
2019/07/17  23:47:00  BASE  1.22892  310  1.81692  296  -2.2  100   -2.2  0     0     988.4    NA       0.0000   -SN      BR    4600  0    
2019/07/17  23:48:00  BASE  0.94668  313  1.81692  296  -2.2  100   -2.2  0     0     988.5    NA       0.0000   -SN      BR    5000  230  
2019/07/17  23:49:00  BASE  1.09368  314  1.81692  296  -2.2  100   -2.2  0     0     988.5    NA       0.0000   -SN      BR    5000  230  
2019/07/17  23:50:00  BASE  1.37592  316  1.81692  296  -2.2  100   -2.2  0     0     988.5    NA       0.0000   -SN      BR    5000  200  
2019/07/17  23:51:00  BASE  1.42296  314  1.81692  296  -2.2  100   -2.2  0     0     988.5    NA       0.0000   -SN      BR    5000  200  
2019/07/17  23:52:00  BASE  1.12308  309  1.81692  296  -2.2  100   -2.2  0     0     988.5    NA       0.2540   -SN      BR    5000  0    
2019/07/17  23:53:00  BASE  0.81144  300  1.81692  296  -2.2  100   -2.2  0     0     988.5    NA       0.0000   -SN      BR    4300  0    
2019/07/17  23:54:00  BASE  0.77616  295  1.81692  296  -2.2  100   -2.2  0     0     988.5    NA       0.0000   -SN      BR    3400  0    
2019/07/17  23:55:00  BASE  0.89376  305  1.75224  320  -2.2  100   -2.2  0     0     988.5    NA       0.0000   -SN      BR    3500  0    
2019/07/17  23:56:00  BASE  0.47628  306  1.75224  320  -2.2  100   -2.2  0     0     988.5    NA       0.0000   -SN      BR    3200  0    
2019/07/17  23:57:00  BASE  0.03528  290  1.75224  320  -2.2  100   -2.2  0     0     988.6    NA       0.0000   -SN      BR    3100  0    
2019/07/17  23:58:00  BASE  0        278  1.75224  320  -2.2  100   -2.2  0     0     988.7    NA       0.0000   -SN      BR    2700  0    
2019/07/17  23:59:00  BASE  0.4998   294  2.1462   313  -2.2  100   -2.2  0     0     988.7    NA       0.0000   -SN      BR    2600  0